GFSNGP_700_spd_000.txt.gz
Wind_Speed
11 9 9 10 11 13 16 16 16 19 20 16 18 18 21 24 27 29 28 26 26 27 32 39 40 34 34 35 37 40 41 44 46 47 48 49 48 45 43 39 34 30 26 21
15 13 13 13 14 17 20 21 23 24 25 20 18 19 22 24 26 28 28 27 27 33 38 39 34 36 34 36 38 40 43 45 46 48 49 48 46 44 41 36 32 27 25 21
8 14 15 16 19 20 23 24 22 25 20 17 17 18 19 20 22 25 26 27 31 37 37 34 35 33 34 37 39 41 44 46 49 49 48 46 44 42 37 33 28 26 21 24
6 8 1 17 17 16 16 16 21 22 20 19 19 19 18 19 20 24 26 29 33 34 34 35 32 33 35 38 41 44 46 48 49 48 46 44 41 38 34 30 27 22 22 25
6 12 16 14 16 17 18 20 23 23 20 19 20 18 20 20 19 23 27 31 35 34 33 30 31 34 36 39 43 45 47 48 47 45 44 42 37 35 32 29 26 24 25 27
10 5 5 10 12 12 18 28 25 22 19 17 18 27 24 19 23 25 29 33 35 33 29 29 31 34 37 41 44 46 48 46 43 43 44 40 36 32 30 27 25 24 24 24
21 15 13 18 19 18 13 21 12 12 16 24 29 27 26 25 25 27 30 32 31 29 27 29 32 35 40 43 45 47 46 42 41 43 43 39 35 29 27 25 23 24 26 27
12 11 12 16 19 18 17 16 22 23 25 30 27 28 32 27 26 32 31 31 27 25 27 30 34 39 42 44 46 46 43 39 40 42 39 35 31 26 25 24 24 25 27 29
14 13 17 22 23 22 21 27 28 30 30 28 28 33 28 28 35 35 30 26 24 24 27 32 37 41 43 45 46 43 40 38 40 40 34 32 26 24 26 26 26 25 28 29
25 25 23 24 26 28 29 31 31 30 30 30 35 29 28 31 32 34 24 24 21 25 30 35 40 41 44 45 44 41 39 37 39 36 33 29 24 26 30 27 25 26 28 28
28 27 27 25 27 28 30 31 30 31 32 36 30 29 30 30 36 29 22 21 21 29 35 38 39 41 43 43 42 39 37 36 37 34 30 26 22 24 30 26 25 26 27 25
25 20 23 26 26 28 30 30 30 32 31 29 28 29 34 33 30 21 19 19 27 34 38 37 39 40 41 41 39 36 35 35 34 31 28 25 22 26 27 25 24 26 25 22
24 25 28 28 27 26 28 28 29 29 27 25 29 29 36 29 18 15 17 25 33 36 35 37 38 38 39 36 36 35 34 32 31 28 25 23 22 23 23 23 24 25 23 20
27 29 30 28 31 31 30 29 27 25 26 28 34 40 27 19 14 19 25 31 34 34 35 36 37 36 34 36 35 33 31 30 28 25 23 21 20 20 22 23 23 22 20 17
31 32 34 35 34 33 31 29 28 30 30 37 32 22 20 16 21 26 29 32 32 33 33 34 34 33 34 35 34 31 29 28 27 24 23 21 19 20 21 23 22 20 17 15
35 34 34 33 32 32 31 28 29 26 35 30 19 18 17 24 27 28 30 31 30 31 33 33 32 32 33 32 31 30 28 27 27 26 23 21 20 21 22 22 21 19 16 14
32 32 31 31 30 30 30 27 32 26 20 15 14 20 25 27 29 28 29 29 30 32 33 34 32 32 34 32 30 28 27 28 28 27 24 22 20 21 22 21 20 18 16 14
28 28 27 26 27 25 27 19 18 21 14 14 20 24 25 26 27 28 29 31 32 33 33 33 33 34 33 32 30 29 29 29 28 27 25 22 21 21 21 21 20 19 17 16
27 24 22 19 14 13 13 12 11 13 17 22 25 26 26 26 29 31 33 33 32 33 32 34 34 33 33 32 30 30 30 29 28 27 24 22 21 22 22 21 21 20 20 19
19 15 13 7 8 10 12 16 21 24 26 29 30 28 28 30 32 33 34 34 32 34 34 33 33 34 34 33 32 31 30 29 28 26 25 23 23 23 24 24 24 23 21 21
9 10 11 12 15 19 21 22 25 28 32 32 30 30 31 31 32 33 34 35 30 34 34 33 34 34 34 34 33 32 31 30 28 27 26 25 25 26 27 28 28 27 26 24
11 14 14 15 18 20 24 27 31 31 29 29 30 30 32 31 32 34 34 35 35 36 36 34 35 36 35 34 34 33 32 30 28 26 25 25 26 27 29 30 31 30 29 29
16 16 17 20 24 26 28 28 27 28 29 29 30 31 32 33 36 37 38 39 39 39 40 40 40 39 38 37 35 34 31 29 27 26 25 25 26 28 31 33 34 35 35 35
18 21 23 24 23 24 25 25 27 28 30 31 33 34 37 40 42 41 42 43 43 45 45 44 44 40 38 36 33 32 30 28 26 26 27 27 28 29 30 31 33 35 35 34
21 21 22 23 25 27 28 29 30 31 33 36 38 40 42 44 46 47 46 45 45 43 38 37 37 36 35 34 33 31 29 28 27 28 28 27 27 28 29 30 31 33 34 36
22 23 25 26 27 29 31 33 36 39 40 42 44 45 45 45 44 43 43 42 39 37 34 33 33 34 33 32 30 31 29 28 28 28 28 28 29 30 32 33 34 34 33 34
23 24 25 27 29 33 37 39 40 42 44 46 48 48 48 47 45 42 41 37 35 32 28 33 33 33 32 31 30 29 29 29 28 27 28 29 30 32 34 35 35 35 35 34

GFSNGP_700_spd_003.txt.gz
Wind_Speed
14 11 9 10 11 13 16 17 15 19 22 16 16 14 12 14 20 24 26 27 28 26 24 28 32 38 36 37 34 33 34 38 41 43 45 47 46 44 43 41 39 34 29 24
15 16 13 15 15 16 19 21 23 24 26 17 16 16 16 15 16 18 21 27 26 24 26 28 35 34 34 35 32 33 35 39 42 45 46 47 45 43 41 39 37 32 28 25
9 14 16 15 22 22 22 22 22 24 19 19 20 17 15 16 16 15 18 23 23 22 24 29 33 34 34 31 31 34 37 40 43 46 47 46 43 42 40 37 34 31 27 25
7 9 3 17 19 18 18 15 17 21 21 20 21 19 18 17 14 16 18 20 22 24 28 32 34 34 30 29 32 35 39 42 45 47 47 44 41 41 38 35 32 29 27 26
5 10 17 12 13 17 21 21 16 21 22 23 20 19 17 16 21 20 19 21 24 27 30 32 32 29 28 30 34 38 41 43 46 46 44 41 40 39 37 34 29 26 25 24
9 5 4 6 7 13 20 23 19 12 12 15 17 17 21 24 22 20 20 23 25 28 31 28 28 25 28 33 37 40 42 44 46 44 41 39 39 37 36 31 26 24 25 25
16 13 10 14 18 20 11 13 11 14 13 20 23 26 29 27 24 22 21 23 29 37 24 25 23 25 30 35 39 40 43 45 43 40 38 37 38 35 33 27 24 25 26 27
8 7 7 9 9 10 13 21 23 24 27 26 27 28 27 25 26 23 24 27 30 36 26 23 20 26 32 37 39 41 43 42 40 37 35 36 36 34 30 24 25 28 27 26
9 9 13 21 24 23 24 23 24 28 28 28 28 29 28 29 32 29 29 33 32 28 23 15 21 28 34 37 39 41 41 40 37 35 34 35 34 32 28 25 27 30 27 26
21 22 21 23 25 25 25 27 28 30 29 29 29 30 32 34 32 31 32 34 36 24 14 18 24 31 34 37 39 39 38 35 34 34 33 33 31 29 25 23 25 28 27 27
26 25 23 21 23 24 25 26 27 29 29 30 31 32 34 31 31 31 38 38 23 14 18 21 27 30 33 36 37 36 34 35 34 31 30 30 27 25 23 21 25 26 26 26
21 17 20 23 24 26 28 28 27 29 30 30 30 29 27 29 32 37 35 26 13 17 19 23 27 29 32 35 34 33 35 34 31 29 28 26 23 22 19 20 22 24 26 23
23 23 24 24 23 25 28 29 31 32 30 29 28 29 31 33 37 31 18 10 15 17 20 24 25 27 32 33 32 33 33 30 28 26 26 24 21 19 18 19 21 23 25 21
25 26 26 27 29 31 32 32 31 28 27 27 26 32 36 34 22 9 14 19 19 19 21 22 24 29 31 30 31 32 30 28 26 25 24 23 20 19 19 19 22 23 23 20
28 29 31 32 33 34 33 29 28 29 25 29 25 32 25 19 19 16 20 20 19 22 23 24 26 28 28 29 31 30 28 26 25 25 25 23 21 19 19 20 22 23 20 18
32 33 32 32 34 32 29 28 23 23 22 29 26 24 23 20 17 20 21 21 22 23 24 24 26 26 28 30 30 29 28 26 26 26 26 24 22 20 19 19 20 21 20 18
28 28 27 28 29 29 26 26 26 26 24 20 19 14 14 18 19 20 21 22 21 22 24 26 27 28 30 30 29 29 30 29 28 27 27 25 23 21 19 19 19 19 19 18
26 26 26 28 25 26 22 21 13 12 13 13 15 20 22 23 21 20 21 22 23 23 25 29 29 31 31 31 31 30 29 29 29 28 28 26 24 22 21 21 20 20 19 18
27 27 22 16 14 10 7 9 11 15 19 23 27 27 22 20 22 23 23 24 24 26 26 29 30 31 32 33 33 32 31 31 30 29 28 27 26 23 22 23 23 23 23 22
13 11 9 11 14 16 17 18 20 22 23 23 23 22 22 23 25 26 27 26 26 28 31 32 34 34 34 34 34 35 34 33 32 30 29 28 27 25 23 23 25 26 27 27
11 11 12 11 12 14 16 17 19 20 20 20 21 23 24 24 26 28 29 31 29 31 34 36 37 37 37 37 38 38 38 36 33 30 29 28 26 25 25 25 26 28 29 29
8 11 12 14 16 18 20 20 21 22 23 24 24 25 26 27 28 31 32 35 37 39 40 41 42 42 43 43 42 39 38 35 32 29 27 26 25 24 24 25 26 28 30 32
12 15 16 17 18 20 21 23 24 24 25 26 27 28 31 33 36 39 39 41 43 43 44 44 44 43 37 39 35 32 32 31 30 28 25 24 24 24 25 25 25 25 26 28
15 18 20 21 21 22 21 22 23 26 28 30 32 35 37 38 40 43 45 46 46 45 44 42 40 35 30 35 32 31 30 27 28 29 27 25 25 25 25 25 25 25 27 29
20 22 22 21 22 24 25 27 28 30 33 35 36 38 41 44 46 47 48 47 45 43 41 38 34 32 27 27 29 31 31 29 28 28 29 28 28 26 25 26 27 28 29 31
20 20 21 23 25 27 29 33 36 38 40 42 44 46 49 50 52 52 50 47 44 41 38 35 32 24 25 29 35 32 31 30 30 29 29 30 29 26 26 27 30 31 33 34
20 20 21 23 26 31 36 39 41 44 47 49 51 52 54 54 54 54 52 48 43 37 34 29 27 21 33 35 33 32 31 31 29 29 29 29 28 27 28 29 30 32 34 35

GFSNGP_700_spd_006.txt.gz
Wind_Speed
18 14 12 12 13 19 21 17 12 12 15 12 13 14 15 15 17 25 29 30 30 31 34 32 30 32 34 32 32 35 34 32 35 37 38 40 43 44 42 40 40 38 35 32
18 18 17 17 16 17 19 20 23 21 23 17 13 15 17 18 17 19 24 26 27 29 31 31 29 32 31 32 35 34 31 32 35 37 38 42 44 43 41 40 38 35 32 24
8 17 18 15 25 25 24 23 23 20 16 19 17 17 18 17 17 17 19 20 24 28 29 29 30 33 30 33 34 30 29 32 35 37 39 43 44 42 40 38 35 33 28 26
8 7 4 14 18 18 19 18 18 17 20 19 19 19 20 17 16 16 16 20 22 26 29 30 33 31 31 33 29 27 30 34 36 38 42 44 44 40 38 36 33 32 28 26
5 8 15 13 12 13 16 17 15 17 19 23 21 20 19 16 16 21 23 20 22 26 30 33 33 37 33 27 24 27 31 34 36 39 42 43 42 38 34 34 32 30 27 25
8 4 4 7 9 12 14 13 12 9 10 15 14 16 14 20 26 25 23 20 22 26 29 34 38 42 31 24 23 28 31 34 36 39 41 42 39 34 33 33 32 28 24 25
15 11 7 12 15 15 5 6 9 17 22 25 24 20 22 25 27 25 24 23 24 27 31 33 40 35 24 20 24 28 32 34 37 38 40 38 35 32 32 32 31 28 26 27
7 6 6 7 5 5 10 20 26 23 22 25 27 27 26 27 27 27 28 28 28 32 34 37 38 20 18 20 24 29 32 34 35 36 37 35 32 30 31 30 29 26 24 25
7 6 12 18 19 19 21 24 25 26 27 29 30 30 30 30 30 31 31 33 34 35 38 36 34 21 16 18 26 29 31 32 33 35 35 32 30 29 29 28 26 24 22 24
17 17 16 20 23 23 23 23 23 25 26 28 30 31 32 32 32 33 36 34 36 39 42 42 29 13 13 22 27 28 29 30 32 33 32 30 28 27 26 25 23 21 21 23
21 20 20 20 20 21 22 25 27 28 28 28 29 30 31 32 33 33 32 36 40 43 34 26 14 12 19 23 25 26 28 30 31 30 29 27 25 25 25 21 20 19 21 24
16 14 19 21 22 24 24 25 26 29 30 32 32 32 32 32 31 31 33 41 39 25 16 9 10 16 21 23 23 25 28 28 28 28 26 25 25 24 23 20 19 18 20 23
22 22 21 23 23 23 25 28 30 32 33 33 31 29 28 31 31 35 38 26 18 10 8 10 14 17 20 22 24 26 27 27 27 26 24 24 25 25 24 23 19 19 20 22
23 23 23 23 25 26 29 31 32 33 31 29 29 29 29 31 29 28 20 18 18 15 14 14 17 19 20 23 24 26 26 26 26 25 24 25 26 26 25 23 22 20 19 21
25 26 26 27 29 28 30 33 29 28 26 24 26 28 29 22 18 18 17 14 16 15 16 18 19 21 22 24 24 26 27 26 26 26 27 27 26 26 25 24 22 20 19 20
27 29 30 30 28 25 26 28 26 24 24 23 23 22 18 19 15 16 21 22 17 15 19 20 20 22 23 24 26 27 28 28 28 28 28 28 28 27 25 25 23 22 20 19
23 24 23 24 25 26 28 25 26 23 16 14 14 15 15 17 21 20 15 14 16 17 20 21 21 23 25 26 28 30 29 29 29 30 30 30 29 29 27 25 25 24 22 20
20 21 22 23 22 19 17 14 10 10 12 14 15 17 18 17 16 16 18 19 19 20 20 24 25 26 27 28 31 33 34 33 32 33 32 32 31 30 29 28 26 25 24 23
16 14 14 13 12 9 9 10 11 12 14 15 16 15 15 17 18 19 20 20 21 24 23 26 28 30 32 34 35 37 36 37 38 38 37 35 33 32 30 29 27 27 26 25
7 8 9 9 9 9 10 11 12 14 15 16 17 18 18 20 22 22 23 23 23 28 30 32 34 36 37 39 40 41 40 41 43 43 41 37 34 33 31 28 27 26 26 26
9 8 8 10 11 13 15 16 16 16 16 18 19 20 21 21 24 27 29 32 32 34 36 38 40 42 43 43 44 44 41 40 38 38 36 33 32 31 30 26 24 23 24 25
9 9 10 12 14 15 16 16 17 19 20 21 23 25 27 29 31 33 35 37 39 41 43 44 45 45 44 43 44 42 35 32 36 37 33 29 28 29 28 26 25 24 26 26
11 13 14 16 17 18 19 19 20 22 24 25 28 31 34 36 38 41 43 44 47 48 49 49 47 45 42 41 40 36 30 31 39 34 29 24 26 31 28 27 26 27 27 27
14 17 19 20 20 19 20 20 22 24 27 30 34 36 39 42 44 47 50 52 52 52 52 50 47 45 41 38 36 32 32 32 28 29 29 28 30 37 37 32 32 30 26 27
19 20 21 21 21 21 23 24 26 30 34 36 38 42 45 48 51 53 54 56 56 55 52 49 43 38 36 35 33 32 33 33 28 28 31 32 31 31 31 32 33 31 27 28
22 22 21 21 22 24 26 30 34 37 40 44 47 50 52 53 54 54 52 50 48 47 44 41 36 31 27 27 27 31 24 23 25 29 33 33 31 30 30 30 31 31 29 29
21 21 22 22 24 28 32 36 40 43 47 50 52 53 53 52 50 48 46 44 42 39 36 32 28 24 25 24 25 29 27 25 25 27 30 34 33 31 30 29 30 29 27 26

GFSNGP_700_spd_009.txt.gz
Wind_Speed
17 11 11 10 12 15 20 21 18 16 13 13 13 13 12 15 15 19 26 30 34 38 40 41 42 43 40 42 39 39 37 33 36 36 34 36 38 38 40 41 41 41 39 32
17 14 18 15 16 17 18 19 21 21 21 18 15 15 14 15 20 20 24 27 30 32 36 39 41 40 40 39 36 40 38 33 35 32 34 36 35 38 39 41 41 38 30 27
10 10 10 15 25 22 21 20 18 21 20 15 12 15 16 15 19 19 22 24 27 29 31 33 37 38 38 37 39 44 35 37 29 31 35 34 36 38 39 39 39 32 25 24
6 3 1 11 12 15 16 19 21 20 18 16 15 15 19 21 18 20 20 21 22 26 30 35 37 39 37 39 42 43 43 37 29 31 34 34 36 38 38 35 30 27 24 24
5 10 11 12 12 9 8 11 8 8 10 11 15 15 17 21 18 18 18 24 26 26 29 33 36 38 39 42 46 44 43 25 28 32 33 35 36 37 35 33 28 25 23 24
8 4 4 4 8 8 9 9 4 11 6 9 19 18 17 16 19 22 28 26 23 23 25 30 34 38 42 47 47 47 30 25 27 33 35 35 36 35 34 32 30 26 26 28
11 8 7 9 13 12 6 3 10 12 17 15 17 14 19 23 26 26 28 27 28 27 29 31 38 40 45 45 41 30 23 22 27 33 34 35 35 34 31 30 30 30 29 27
7 6 7 9 5 2 7 14 19 22 17 18 25 26 26 28 28 28 28 30 33 33 33 35 41 46 50 51 38 23 19 18 26 30 33 34 33 31 30 30 30 28 27 23
7 4 10 10 15 13 21 23 22 23 22 22 23 23 25 22 31 30 29 31 34 38 41 42 42 48 49 42 22 18 16 20 25 30 32 31 30 29 28 28 28 27 24 23
12 5 9 11 17 18 18 17 18 20 22 24 25 26 27 26 34 32 33 36 38 39 39 41 44 46 34 21 15 13 18 21 26 30 30 28 27 27 26 25 25 24 23 22
14 16 13 11 10 12 18 21 23 23 24 26 28 29 31 33 34 32 35 35 38 38 39 40 42 33 21 14 13 15 19 24 27 29 29 28 25 23 23 23 24 23 22 22
10 11 16 12 17 25 24 25 26 26 27 31 32 32 32 33 33 34 33 36 34 39 38 30 26 22 16 14 15 19 23 25 27 28 27 27 26 24 23 23 23 23 22 22
17 21 21 22 28 26 26 26 28 29 33 34 34 31 31 31 33 33 33 36 32 25 20 18 15 19 18 16 20 23 25 26 28 28 27 27 27 27 27 26 26 25 23 22
24 23 22 23 26 25 26 28 31 32 34 30 30 31 29 27 31 29 26 20 15 15 17 22 19 14 16 21 23 25 26 27 28 27 27 28 28 28 28 30 29 28 26 24
25 25 25 26 25 27 29 29 29 31 31 32 28 30 25 22 20 15 15 17 20 22 18 15 15 18 23 23 25 27 28 28 28 29 30 29 28 29 29 30 31 29 28 27
28 28 28 28 27 25 23 25 27 28 29 24 20 18 16 15 15 17 17 15 14 15 18 20 20 22 25 25 27 29 30 31 30 30 30 31 30 31 32 32 32 32 30 27
26 24 23 23 22 23 23 23 20 16 16 15 15 15 16 16 17 17 16 17 17 19 20 23 25 25 26 27 28 31 33 31 33 36 36 35 35 35 34 33 33 33 32 29
21 22 20 19 17 15 15 15 14 15 15 16 16 16 17 18 17 18 20 21 21 22 23 25 27 28 29 30 32 35 37 38 40 40 40 41 41 41 39 37 36 34 32 31
11 9 9 11 12 13 14 15 15 16 16 16 17 17 18 20 21 22 22 22 23 26 27 29 31 33 35 36 38 40 42 43 44 43 42 42 41 38 38 37 35 34 33 30
7 9 10 11 12 13 14 15 16 17 18 18 18 19 20 22 23 25 26 27 28 33 35 36 38 39 42 43 45 46 46 46 43 39 39 37 35 34 35 33 33 32 30 28
9 10 12 13 14 15 16 18 18 18 19 20 20 21 22 24 27 29 32 34 36 39 41 45 47 49 50 50 50 48 46 44 41 42 46 36 40 34 33 30 31 28 27 26
11 13 15 15 16 17 18 18 19 20 21 22 23 25 27 30 32 35 37 41 44 47 50 52 54 55 54 52 51 49 45 42 40 38 37 37 32 33 30 28 29 28 28 28
14 15 16 17 18 20 20 21 21 21 23 24 26 29 33 36 39 43 46 50 53 55 56 56 56 53 50 47 44 41 38 37 34 31 33 35 36 29 28 28 34 38 36 36
16 16 18 20 22 22 22 22 23 24 25 29 33 37 39 42 45 49 52 53 53 52 51 51 49 48 46 42 37 34 30 33 33 34 36 39 36 27 26 25 28 34 38 38
17 20 21 22 22 22 22 23 24 27 31 35 39 42 45 48 51 51 51 50 49 47 46 46 45 44 41 36 32 30 30 30 30 27 34 31 25 23 24 23 26 32 33 32
21 22 22 23 23 24 25 26 29 34 38 42 45 48 51 51 49 48 46 45 44 44 45 45 43 41 37 32 28 27 25 23 20 20 21 22 23 23 24 26 27 30 33 32
22 23 24 25 25 26 28 32 36 40 44 46 49 50 49 46 45 44 43 43 43 43 43 42 40 37 34 31 29 28 26 25 25 25 25 24 25 26 27 29 30 30 32 31

GFSNGP_700_spd_012.txt.gz
Wind_Speed
19 19 8 11 9 12 18 19 20 18 16 15 13 7 9 8 14 14 14 25 25 31 35 40 46 45 42 41 42 42 40 39 42 43 44 35 32 33 32 35 37 37 38 36
15 15 16 17 17 17 17 17 20 21 21 15 15 15 14 16 13 18 17 16 26 31 35 41 47 45 39 39 41 41 37 40 45 45 44 40 37 31 30 34 36 38 37 34
12 11 13 15 22 23 21 19 19 19 17 15 15 12 10 12 12 17 21 21 21 28 32 34 35 36 36 38 40 41 37 42 44 50 46 32 27 27 30 34 37 38 36 34
7 5 1 14 9 10 12 13 16 18 18 13 14 13 16 19 15 14 18 20 21 22 23 28 31 35 36 37 41 42 40 41 51 49 39 36 26 28 31 34 34 33 33 32
6 9 12 16 9 5 4 5 6 8 10 8 12 13 9 16 13 17 18 21 21 25 28 26 26 30 33 36 40 42 45 47 48 35 28 20 24 25 30 34 34 33 31 32
7 3 4 4 9 6 5 5 3 7 6 10 13 17 15 17 19 21 18 20 20 22 24 26 27 28 34 39 43 45 39 37 40 25 19 19 22 28 32 35 34 31 32 32
11 7 6 8 11 13 5 5 10 10 14 19 18 15 20 24 25 25 24 23 25 23 24 25 30 34 37 42 44 50 50 53 34 25 19 20 26 30 34 34 30 28 30 28
11 6 8 11 9 4 8 9 14 20 18 22 20 22 21 21 20 21 30 25 23 29 33 34 37 40 45 47 52 52 50 35 25 19 17 22 26 32 33 29 28 29 29 28
8 2 8 8 10 10 13 16 20 19 16 15 16 18 20 22 22 26 30 32 34 34 34 35 38 42 45 50 53 41 35 25 18 17 19 24 30 31 29 28 27 27 27 26
13 7 6 8 11 12 12 9 8 15 19 17 21 24 23 24 28 34 34 36 36 33 32 32 33 38 43 47 38 29 19 17 17 17 23 28 29 27 27 27 28 27 26 26
10 11 11 9 12 12 16 19 21 22 24 26 25 26 28 33 35 34 32 31 32 34 36 35 33 32 29 25 21 17 18 15 19 24 26 28 30 28 25 26 28 27 25 25
12 13 16 16 21 21 25 27 26 25 26 25 27 31 33 31 31 30 29 27 30 29 30 26 22 20 19 17 18 15 17 22 25 27 28 29 30 28 28 27 27 27 27 26
19 20 20 24 27 28 28 27 25 25 26 31 33 31 28 29 29 30 27 28 24 20 16 14 14 20 20 15 16 21 24 26 28 29 30 31 31 31 31 29 29 28 26 25
19 20 26 26 29 26 25 26 26 30 32 29 30 29 30 27 24 21 20 19 18 17 17 16 15 15 19 22 23 25 26 28 30 31 31 32 32 32 34 34 31 30 28 27
25 25 26 26 26 27 28 29 30 27 26 28 29 26 22 20 19 19 18 17 18 18 20 20 19 21 25 26 26 27 29 31 32 33 33 33 33 33 33 34 35 34 31 28
29 28 27 28 29 28 27 24 24 25 25 21 18 18 18 18 18 18 18 18 19 20 22 24 24 26 26 27 28 30 32 34 35 37 38 36 38 38 38 37 36 36 35 32
28 28 27 25 23 22 22 22 19 17 17 17 18 18 18 18 19 20 20 20 21 23 24 26 27 28 30 31 33 35 37 39 40 39 39 42 43 43 41 41 40 39 34 32
26 25 23 22 21 18 14 14 15 16 17 17 18 18 19 19 19 19 21 22 23 25 28 30 31 33 34 35 37 40 42 44 45 45 44 46 46 42 41 38 37 33 32 30
22 19 15 12 11 12 13 14 14 15 16 17 18 19 20 21 22 23 24 25 27 30 32 33 35 37 40 42 44 48 50 51 51 51 48 45 41 39 36 35 34 34 33 30
15 11 10 10 11 11 12 14 16 16 17 18 19 21 22 23 24 26 27 29 32 36 39 41 44 47 50 51 52 52 52 53 52 51 48 43 43 41 39 34 36 37 29 27
10 9 10 10 11 13 15 17 18 19 20 21 22 23 25 26 28 31 33 36 39 42 44 48 51 53 51 52 51 50 48 46 44 42 41 40 39 35 37 42 38 28 24 24
10 10 11 13 14 16 17 18 20 21 23 24 25 26 27 29 32 35 38 42 45 48 50 52 53 51 50 49 47 45 44 41 39 35 29 31 31 29 29 34 30 21 24 28
11 13 14 16 17 18 20 21 22 23 24 26 26 28 31 34 38 42 45 48 50 51 51 50 48 47 46 45 44 44 42 39 34 32 30 29 28 32 29 33 38 30 25 27
13 15 16 18 20 21 22 22 23 24 24 27 30 33 37 41 44 47 48 49 48 47 46 46 44 43 43 43 43 41 38 34 30 28 26 27 28 32 35 34 26 25 23 25
16 17 18 21 22 22 23 23 25 27 28 31 34 38 42 45 47 48 48 47 45 44 43 43 42 41 42 41 40 37 34 30 26 24 22 22 22 24 24 24 22 22 22 23
18 19 21 22 22 23 24 25 26 29 33 36 40 44 47 48 47 45 45 44 43 42 41 40 41 41 39 37 35 34 32 30 28 26 25 25 24 23 23 22 22 22 23 25
20 21 22 22 23 24 26 28 30 33 38 41 45 47 48 46 45 43 42 41 40 39 38 38 38 37 35 34 32 32 31 30 29 27 28 28 27 27 27 27 27 27 28 29

GFSNGP_700_spd_015.txt.gz
Wind_Speed
17 15 14 14 10 12 16 16 18 18 15 11 9 2 11 5 3 5 10 8 17 28 30 32 35 38 38 40 43 46 45 42 41 42 45 47 42 42 40 38 26 25 27 29
15 19 18 13 13 18 13 13 12 15 19 15 13 11 10 11 10 9 10 15 19 18 25 30 33 36 40 41 42 43 41 39 39 43 46 47 47 47 41 37 21 24 25 29
15 15 17 18 22 21 21 19 17 18 16 15 13 10 9 11 13 13 16 17 17 18 25 31 35 37 37 37 38 39 40 40 42 44 47 53 54 45 34 33 24 23 28 33
7 9 0 10 6 9 7 3 8 8 10 10 9 12 11 11 17 18 19 20 22 22 20 26 29 31 31 31 34 39 42 44 47 49 51 54 53 35 34 21 22 26 31 33
6 12 11 13 8 9 8 4 7 9 9 12 10 9 12 15 20 20 20 23 23 22 26 25 27 28 29 31 35 39 44 47 51 51 55 55 41 34 26 21 23 28 34 36
11 5 6 5 7 7 7 8 10 12 14 13 15 16 23 26 23 22 23 27 27 28 30 28 30 30 30 35 39 41 45 49 53 55 57 41 26 25 19 22 26 32 34 32
14 8 6 8 10 12 9 8 12 13 13 15 20 21 21 22 24 26 24 24 23 24 26 27 29 33 34 37 39 44 52 54 57 56 41 31 23 15 17 23 32 32 30 27
14 7 8 12 13 12 12 15 13 12 18 21 22 22 22 20 21 25 27 29 28 28 28 25 26 31 35 40 44 50 51 55 51 37 36 23 17 15 25 31 31 28 28 26
7 3 5 6 10 9 13 13 18 22 24 21 19 20 22 21 23 27 30 31 30 27 25 21 23 27 31 35 40 42 49 40 36 32 21 19 18 25 28 29 30 28 28 27
9 6 9 5 7 14 16 20 24 19 19 20 21 22 24 25 25 29 31 28 27 26 26 24 26 27 28 34 36 38 37 32 25 22 14 20 26 28 29 26 28 29 29 29
12 12 15 14 16 19 18 21 24 21 23 25 23 24 26 27 30 29 27 30 32 31 26 30 28 25 24 22 21 21 21 22 18 19 24 26 27 29 30 29 27 28 30 31
17 16 20 22 22 22 22 23 26 26 26 24 23 25 29 31 26 26 28 28 26 25 25 21 18 18 18 17 19 21 20 20 24 26 27 28 30 30 30 32 32 30 29 30
18 18 20 21 22 23 24 25 27 25 24 26 26 30 29 26 27 25 23 20 18 18 18 19 19 20 21 22 23 23 25 26 28 29 30 32 32 33 34 34 33 32 32 33
20 21 22 23 23 24 24 25 26 27 27 27 30 24 24 22 18 17 17 17 18 19 20 20 20 23 25 26 26 26 27 27 29 30 33 35 36 36 37 38 36 37 35 34
20 22 25 25 24 24 25 26 27 28 27 25 22 19 15 16 17 18 17 18 20 21 22 22 23 25 26 27 28 30 31 32 34 35 37 38 40 41 41 40 39 41 40 38
21 23 25 25 25 25 26 27 25 22 21 19 15 15 16 17 17 18 18 18 19 21 22 24 26 27 27 29 31 33 35 37 39 41 43 44 44 45 43 45 45 45 43 39
26 26 25 25 25 25 24 22 20 17 14 14 14 15 15 15 16 17 18 20 23 24 26 26 28 29 31 33 35 38 40 43 45 46 48 49 50 50 48 48 48 45 39 36
27 26 25 23 22 21 19 16 13 13 13 14 15 15 16 16 18 19 20 22 24 26 28 29 31 34 37 40 43 46 48 50 52 52 52 52 52 51 46 49 43 39 37 35
27 24 21 18 14 11 9 9 11 13 14 14 15 16 17 19 20 22 23 26 27 28 31 34 37 40 43 47 49 50 51 51 50 49 47 46 46 44 43 40 35 35 39 36
20 17 12 10 10 10 9 10 12 12 13 14 16 18 20 21 23 24 27 30 32 35 39 43 45 47 50 50 49 49 48 48 45 44 43 41 39 38 35 32 33 36 36 34
13 10 10 8 7 8 9 11 12 13 14 16 18 20 22 24 26 29 31 34 37 40 44 47 48 49 49 49 49 48 46 45 44 42 40 38 34 29 25 28 27 25 30 26
8 7 8 8 9 10 11 13 15 17 18 19 21 23 25 27 29 32 35 39 42 45 47 49 47 47 48 47 46 44 43 42 40 38 36 33 29 27 27 28 27 31 30 27
9 9 10 11 12 12 15 17 19 20 22 22 24 26 28 30 33 36 40 43 45 47 47 47 47 45 44 43 42 41 40 38 37 35 33 30 27 26 25 26 26 23 20 24
10 10 13 13 14 16 18 20 19 21 24 26 27 29 31 33 37 41 43 45 45 44 44 44 43 42 40 39 38 37 36 36 33 32 31 29 27 26 24 25 29 31 28 27
12 14 16 17 18 19 20 21 22 23 25 25 28 32 35 38 41 43 43 43 43 43 42 41 41 40 37 36 35 34 33 33 32 31 31 30 28 29 28 25 23 22 23 22
17 19 20 20 21 21 21 22 24 26 27 28 31 36 40 41 41 40 41 42 41 40 40 40 39 37 35 34 33 32 32 32 31 30 30 29 28 27 27 28 28 27 26 25
21 20 21 21 21 22 23 23 25 28 30 33 37 40 40 40 40 40 40 40 40 39 39 37 36 34 33 31 31 30 30 30 30 29 28 27 26 25 24 24 25 26 27 28

GFSNGP_700_spd_018.txt.gz
Wind_Speed
14 15 15 12 12 10 11 12 15 16 20 16 15 13 10 13 11 11 12 14 16 21 25 28 32 34 34 37 38 37 37 37 36 36 38 41 45 47 52 54 53 52 42 40
22 23 20 17 15 16 19 15 11 8 8 15 13 12 10 15 17 17 14 12 11 17 21 22 25 34 34 36 35 32 32 34 33 36 39 45 50 53 58 60 58 42 37 32
17 17 16 16 27 23 21 23 21 22 15 12 15 16 15 13 13 13 13 15 16 19 24 27 26 22 23 27 26 29 31 33 35 40 44 47 52 56 62 58 43 37 33 22
13 14 1 13 14 12 17 18 16 11 10 11 16 15 12 9 9 12 14 16 18 21 22 24 26 25 26 28 29 32 34 37 40 45 48 50 55 59 61 41 35 31 19 21
8 14 11 11 10 12 13 8 8 8 12 13 11 7 7 9 14 16 16 19 22 24 24 24 24 24 26 30 34 37 38 40 44 50 51 53 61 57 41 34 31 16 18 24
11 5 7 14 20 17 16 14 14 10 10 9 9 11 15 18 22 22 21 21 21 19 17 18 20 22 25 29 32 37 41 44 47 54 48 54 51 40 38 35 19 18 23 30
19 12 10 13 11 11 15 12 17 16 14 14 15 18 23 26 26 24 21 19 20 22 24 26 24 22 20 26 32 38 44 43 51 48 54 46 42 41 27 19 20 25 29 28
18 11 11 15 19 20 16 13 14 14 13 15 21 23 22 21 20 20 21 22 24 27 29 30 28 25 20 23 28 33 35 38 42 47 41 37 41 29 21 22 27 29 30 28
13 8 9 8 14 13 12 11 11 12 18 19 16 16 18 20 21 22 24 26 29 31 29 28 26 26 26 28 33 35 34 36 39 40 42 40 28 23 25 28 30 31 31 29
12 12 10 10 12 15 15 15 16 16 18 16 18 21 22 23 24 26 28 31 30 28 27 28 26 27 28 31 32 33 34 32 30 31 31 30 27 28 31 31 31 31 31 31
17 13 15 16 17 18 18 18 18 18 20 20 22 26 25 25 26 28 31 27 27 28 27 24 23 23 23 22 22 24 25 26 27 28 30 29 31 32 33 33 34 34 32 32
22 19 18 19 20 20 21 19 19 20 22 25 28 26 25 25 29 30 27 26 25 23 21 20 19 19 20 21 21 23 24 27 29 31 31 32 34 35 34 35 37 36 35 36
15 16 16 17 19 21 22 23 24 26 28 28 25 26 26 29 27 26 24 21 20 20 19 19 20 21 22 23 24 26 28 30 31 32 34 35 36 38 39 38 37 39 37 37
15 15 18 18 19 21 22 24 26 27 26 26 26 27 28 26 23 18 18 19 20 19 20 21 22 24 25 26 28 29 31 32 33 34 36 38 39 41 43 45 47 46 42 37
17 18 22 21 22 24 24 26 27 27 27 27 27 26 23 18 17 17 18 19 20 20 21 22 23 25 27 28 30 31 34 36 38 40 42 44 46 48 49 50 51 52 51 48
19 23 24 24 25 25 26 26 27 27 26 25 23 20 17 17 17 17 18 19 20 21 22 23 25 27 29 30 32 35 37 39 42 44 47 49 51 53 54 55 55 56 54 47
23 24 25 26 26 25 25 26 25 23 22 19 16 15 16 16 16 17 18 20 21 23 24 26 27 30 32 35 38 40 43 45 48 49 50 51 51 51 51 50 49 48 48 44
26 26 26 27 25 24 23 22 21 17 14 12 13 14 13 14 16 17 19 21 24 25 28 29 32 34 37 40 43 46 48 49 50 51 51 50 49 47 46 44 44 43 41 38
29 26 26 25 22 20 18 17 14 13 12 12 12 13 14 15 17 19 21 23 24 26 29 32 35 39 42 45 47 48 49 49 49 49 47 45 44 43 42 41 38 36 34 32
27 25 22 19 16 14 14 13 12 10 10 12 13 14 15 17 20 22 24 26 28 31 35 38 40 43 46 47 48 48 49 48 47 46 44 42 41 40 38 36 34 31 29 29
24 21 15 11 11 12 11 9 8 10 11 12 14 16 18 20 22 24 27 30 32 35 38 42 44 45 46 47 47 47 47 46 45 43 42 41 39 37 35 31 29 27 26 26
12 14 13 10 9 8 8 9 10 11 13 14 16 18 20 23 26 28 30 33 36 39 42 43 43 44 45 46 46 45 44 43 41 40 39 38 36 34 33 30 28 26 25 20
10 12 10 9 8 9 10 11 13 14 15 16 19 21 24 26 28 30 34 38 40 42 42 42 43 44 44 44 43 42 40 40 39 37 36 35 34 33 32 30 28 27 27 29
13 11 9 9 10 11 13 15 16 17 18 20 23 25 27 29 31 34 38 41 41 40 41 42 42 42 41 40 40 38 37 37 35 34 34 33 32 31 30 30 29 29 29 26
9 9 10 11 13 16 17 18 20 21 22 25 27 28 30 32 35 39 39 39 40 40 41 41 41 41 40 39 38 36 35 34 33 33 32 31 30 29 29 28 28 27 26 26
11 13 15 17 19 21 23 22 22 23 25 26 28 31 34 38 39 38 38 39 40 40 40 40 40 40 40 38 35 34 33 31 31 31 30 29 28 27 27 26 26 25 24 23
16 19 21 24 25 23 21 21 23 25 26 28 32 35 38 38 37 37 37 39 40 40 40 39 39 39 39 35 32 32 31 30 29 29 28 28 27 26 26 25 24 23 23 22

GFSNGP_700_spd_021.txt.gz
Wind_Speed
21 17 18 17 16 18 18 17 19 21 20 15 17 15 12 12 14 17 16 14 15 17 20 21 26 28 32 34 34 34 34 35 32 34 34 35 37 40 42 46 49 51 54 49
20 18 19 22 24 19 19 18 18 15 14 11 16 19 15 11 18 20 19 18 17 17 19 21 23 24 23 24 31 34 31 29 30 32 34 35 37 42 48 51 54 53 52 33
22 21 21 22 31 32 29 26 24 22 20 20 19 15 16 16 17 22 19 18 17 17 20 23 23 24 25 25 22 23 25 27 29 32 33 34 41 46 50 54 55 50 34 40
18 17 3 24 24 26 31 33 33 32 26 21 19 20 21 19 17 15 15 15 17 19 22 23 25 26 25 23 21 21 24 29 31 34 38 44 48 50 52 60 48 48 41 45
11 19 16 10 16 15 19 18 17 17 14 14 16 19 18 15 14 14 16 18 19 21 23 25 24 23 24 25 26 27 28 31 34 37 41 48 57 54 53 48 48 42 43 28
13 6 8 25 21 25 16 16 16 13 12 15 17 15 14 12 13 16 17 17 18 19 21 23 24 26 27 27 28 28 29 32 36 43 53 41 46 54 46 43 42 43 31 26
25 14 12 16 14 14 20 17 21 18 15 14 13 12 14 17 20 21 20 20 21 23 25 28 29 29 28 26 25 25 27 32 38 42 41 44 47 39 40 40 43 30 28 28
22 19 14 16 18 22 17 19 10 15 17 16 14 16 20 19 17 19 21 23 24 25 27 30 31 29 28 27 26 27 27 30 30 34 38 37 43 43 42 37 32 30 32 33
17 18 15 11 16 21 22 17 12 10 12 12 16 18 17 17 19 22 23 24 26 28 31 30 29 29 30 28 28 28 30 32 31 33 36 37 35 35 36 36 35 36 37 37
17 17 14 15 13 15 15 14 12 11 13 16 18 17 19 21 23 24 25 26 28 31 29 28 29 29 26 27 27 28 30 28 28 29 32 34 37 39 40 38 39 40 40 40
22 19 17 18 17 16 15 14 14 16 17 18 20 21 23 26 28 26 27 29 32 30 29 28 26 23 22 22 22 23 26 28 30 32 34 36 38 39 39 40 41 42 42 41
24 20 18 13 14 16 18 19 20 21 21 22 23 24 26 29 27 28 29 33 30 29 26 23 21 21 21 22 23 24 26 29 31 33 34 36 37 39 38 40 41 43 44 46
17 15 15 17 17 19 21 22 23 23 23 24 25 27 27 26 28 29 31 29 27 22 21 21 22 22 23 23 24 26 28 30 32 33 35 37 39 42 45 43 45 46 48 49
18 17 19 20 20 19 20 21 22 24 26 27 28 26 26 28 29 29 27 23 21 20 20 21 21 22 23 25 27 29 31 33 35 37 39 42 44 47 50 52 53 52 53 55
22 21 21 21 21 22 23 24 25 27 28 28 27 27 27 27 26 23 21 20 19 19 20 21 22 24 26 27 29 31 33 36 38 41 44 47 49 51 53 54 55 56 55 54
24 24 25 25 26 27 27 27 27 27 27 27 27 24 24 23 20 18 19 19 19 19 20 22 24 26 28 29 32 34 37 40 43 46 48 49 50 52 52 53 52 51 49 47
27 26 25 29 28 28 28 27 26 26 26 26 25 25 22 18 18 19 18 18 19 20 22 24 26 29 31 33 36 39 42 44 46 48 50 51 52 52 51 50 49 47 44 42
31 28 28 29 26 26 25 24 25 25 26 26 25 22 19 16 16 17 17 19 21 23 25 27 29 32 34 37 40 42 44 46 49 50 52 52 50 49 47 46 45 44 43 40
29 26 25 26 26 23 23 23 23 24 23 20 18 16 13 14 15 17 19 22 24 26 27 30 32 35 38 41 43 45 47 49 50 50 49 48 46 44 43 42 42 40 39 38
26 28 26 24 23 21 18 17 16 15 15 13 11 12 14 15 17 19 21 23 25 28 30 33 36 39 41 42 44 46 48 50 50 49 48 45 43 42 40 39 38 37 36 34
23 22 22 21 19 16 14 14 13 12 11 10 13 15 16 18 20 22 24 26 28 30 33 36 39 40 41 43 46 48 49 49 48 47 45 42 41 39 38 37 36 35 34 32
20 19 18 15 14 13 11 10 9 9 11 14 16 18 19 20 22 24 26 29 31 34 37 39 39 40 43 45 46 47 47 47 45 43 41 40 38 37 37 36 34 33 32 31
13 10 9 10 10 10 9 8 9 11 14 16 18 20 21 22 24 27 29 32 34 38 39 39 41 42 44 45 45 46 45 44 42 40 38 37 37 36 35 33 32 32 31 30
9 10 11 10 8 8 9 11 13 16 17 19 19 21 22 25 28 30 32 36 39 40 40 41 42 43 44 43 43 44 43 41 38 36 35 35 34 33 32 31 30 29 29 29
10 10 9 8 9 12 15 17 19 21 21 21 21 24 26 29 31 34 37 41 41 40 40 41 42 42 42 42 41 42 41 38 35 34 33 32 32 31 30 30 30 28 28 27
9 8 10 12 14 16 19 22 25 25 24 24 25 27 29 32 35 38 41 41 41 41 40 41 41 41 41 41 40 40 38 35 33 32 32 32 30 30 30 30 29 29 28 28
12 13 16 19 21 23 24 26 27 26 26 27 28 30 33 36 39 40 40 40 40 39 39 40 40 40 40 39 39 37 34 32 31 30 31 30 30 30 31 31 31 31 30 30

GFSNGP_700_spd_024.txt.gz
Wind_Speed
28 30 27 24 21 21 23 25 22 24 23 19 19 19 18 15 14 13 15 15 15 16 19 19 19 22 24 26 28 30 33 33 34 31 29 27 29 32 35 37 44 39 45 51
30 25 21 21 20 21 22 22 24 21 22 19 16 15 19 17 18 15 16 20 20 19 19 20 21 22 24 27 28 31 29 29 30 26 28 28 30 34 37 39 41 45 50 55
22 19 20 23 25 25 29 31 30 28 27 22 22 21 19 17 17 20 21 20 20 20 18 20 23 24 27 31 33 32 28 26 26 27 27 29 33 37 46 51 50 52 62 49
20 18 3 26 27 26 28 31 31 33 34 31 31 25 21 21 19 18 17 15 15 16 20 24 27 29 29 28 25 25 26 26 26 27 29 31 36 41 45 43 47 45 48 44
15 20 23 21 23 21 17 20 20 23 26 26 27 24 19 19 17 14 13 15 19 24 27 27 25 24 24 24 26 27 29 29 28 28 29 33 39 41 46 54 45 42 40 40
14 8 8 26 21 25 22 28 24 16 11 12 17 18 16 13 11 14 17 21 23 23 22 22 22 23 26 28 29 28 27 27 27 25 28 31 41 45 38 36 37 38 38 39
25 17 19 22 19 15 19 28 19 20 15 13 15 15 15 13 15 18 21 22 21 20 21 23 26 28 30 31 28 27 26 25 27 28 31 32 32 33 34 37 41 40 37 34
26 16 16 23 22 26 27 19 17 13 14 17 17 16 15 16 19 21 21 20 21 23 25 27 29 32 32 31 31 29 26 25 26 28 29 31 32 34 36 36 36 37 38 38
27 27 27 18 14 21 22 21 11 9 11 16 17 16 16 18 19 17 18 22 24 25 27 29 33 32 30 31 28 27 28 29 28 28 29 29 30 33 34 36 39 40 41 41
28 29 28 25 21 18 16 17 16 11 12 15 15 17 19 17 18 20 23 26 26 28 30 32 32 30 30 25 24 24 25 25 26 27 28 31 32 35 37 38 39 40 41 43
34 30 23 19 18 17 15 15 15 14 14 15 17 18 18 20 22 25 27 29 28 30 32 33 31 28 23 22 23 24 25 26 27 29 31 33 34 36 38 39 41 43 45 47
32 23 22 16 13 16 18 16 16 15 16 18 20 20 22 24 26 28 30 28 29 31 33 31 26 22 22 23 23 25 26 27 29 31 33 35 37 37 38 41 43 45 48 51
19 18 16 16 19 17 17 17 18 20 22 23 24 25 26 27 28 28 27 27 29 30 28 23 22 22 23 23 24 25 26 28 30 32 34 37 39 42 44 45 48 50 52 54
22 21 21 20 19 19 20 20 21 24 26 27 28 27 27 27 27 26 27 29 28 24 22 21 22 22 22 23 24 26 29 31 33 35 38 41 44 47 49 51 52 53 53 55
25 24 22 19 19 20 22 24 23 24 26 28 28 28 28 27 26 28 29 26 22 20 21 22 21 21 23 24 26 28 31 33 36 39 42 44 46 49 51 53 54 55 54 51
24 24 24 23 24 25 25 25 26 27 29 29 28 28 27 27 29 29 26 21 20 20 20 20 21 23 25 27 29 31 34 37 39 41 43 46 48 51 53 54 54 53 50 48
21 23 26 29 30 30 27 27 29 30 29 29 27 26 27 27 27 23 21 19 17 19 20 21 24 26 28 30 32 34 36 38 40 42 45 49 51 53 54 53 51 48 46 44
24 28 31 29 28 26 25 26 29 29 28 27 26 27 29 26 19 18 15 15 18 20 22 24 26 28 30 32 35 37 38 39 42 45 49 51 52 53 52 49 47 44 43 41
32 32 31 29 27 25 24 26 26 25 25 27 29 25 19 17 14 12 16 18 20 22 24 26 28 30 32 35 37 38 40 42 45 48 50 51 51 50 47 44 43 42 41 40
29 29 29 28 25 24 22 22 23 26 26 22 18 15 12 11 13 17 19 20 22 24 26 28 31 33 36 38 39 40 42 44 47 49 51 50 48 45 43 41 40 39 38 36
25 23 18 18 19 19 20 22 21 19 16 12 9 8 10 14 17 19 21 23 25 27 29 31 34 37 39 39 40 42 44 46 48 49 49 47 45 42 40 39 37 36 34 34
14 15 16 17 17 16 16 15 12 10 8 7 8 11 14 18 20 22 24 26 28 29 32 34 37 39 39 40 41 43 45 46 47 47 46 44 41 38 37 36 34 33 32 32
12 12 11 10 9 10 11 12 9 7 8 10 12 16 19 21 23 25 26 28 30 32 34 37 39 39 39 41 42 43 45 47 47 45 43 40 38 36 35 34 32 32 32 31
6 7 8 10 11 10 7 5 6 8 11 14 17 21 23 25 26 27 28 30 32 35 38 40 40 40 41 41 42 44 45 45 44 41 40 37 36 34 34 33 31 31 32 31
4 7 9 8 5 4 7 9 12 14 18 20 23 24 26 27 28 30 31 33 36 39 41 41 41 41 41 42 42 43 43 42 40 39 36 35 33 32 31 31 32 33 33 33
5 5 4 5 8 10 14 17 20 23 24 26 27 28 28 30 31 32 35 38 41 41 41 41 40 41 41 41 41 41 40 39 38 37 34 33 31 31 31 32 33 34 33 32
6 8 10 13 16 19 21 23 24 26 27 29 30 31 31 32 34 36 39 41 41 41 40 40 40 40 40 40 39 39 38 38 37 34 32 30 30 30 31 31 32 32 30 29

GFSNGP_700_spd_027.txt.gz
Wind_Speed
24 28 28 27 27 22 24 24 23 23 27 20 17 14 16 17 17 15 13 14 17 15 17 17 18 20 23 23 23 25 28 31 33 35 38 39 36 34 28 26 30 34 38 45
24 24 29 27 27 27 24 23 24 26 28 22 20 18 16 16 17 18 16 17 19 21 21 21 21 22 24 24 25 27 30 33 35 31 30 31 30 27 26 29 34 37 43 42
21 21 24 26 30 25 26 26 26 30 31 26 24 21 21 21 18 17 18 21 23 23 21 20 20 21 22 25 29 31 30 27 25 25 25 26 25 26 27 32 38 45 50 45
18 19 7 22 23 22 24 27 30 35 33 28 27 26 27 25 23 22 22 21 19 18 17 17 19 22 26 29 28 26 25 25 26 28 28 28 27 27 30 36 46 43 46 38
15 23 22 18 21 25 23 34 28 24 17 22 26 27 25 25 23 20 18 16 16 16 18 20 23 26 26 24 24 26 27 27 27 27 27 28 29 28 30 27 30 26 31 31
15 11 10 23 23 24 22 38 32 25 23 20 17 20 21 21 18 18 16 16 17 19 22 23 22 21 21 23 25 26 25 24 24 25 27 27 29 32 34 33 31 31 31 31
29 17 19 18 18 19 19 37 22 11 17 18 16 13 13 18 17 16 16 17 19 20 19 19 20 21 23 25 26 25 26 24 21 21 22 23 24 24 26 26 27 28 30 32
28 19 16 24 24 28 28 24 19 19 14 14 15 17 18 17 16 15 16 17 16 16 18 20 21 24 26 28 28 28 26 23 22 23 24 25 25 25 26 28 29 31 34 35
28 29 30 24 26 27 24 19 21 16 13 16 17 19 19 17 15 16 15 14 16 18 20 21 23 26 29 29 29 25 23 22 22 23 24 25 26 27 28 31 33 35 37 39
31 32 32 31 29 29 24 19 15 13 12 15 21 21 19 17 16 15 15 17 19 21 23 24 27 29 30 29 26 23 22 22 23 24 25 26 28 29 31 33 35 38 40 43
34 33 33 33 32 30 21 18 17 15 16 18 21 21 18 18 17 17 18 20 22 25 25 27 29 30 29 26 23 22 22 22 23 24 25 27 29 31 33 35 39 42 45 47
31 27 27 25 23 20 20 19 18 16 17 20 21 21 20 20 20 20 21 23 25 27 28 30 31 29 24 22 22 22 22 23 24 26 28 29 30 31 34 38 40 43 46 49
24 29 27 20 18 21 19 19 20 18 18 19 21 23 24 24 23 23 25 27 29 29 30 30 28 24 21 21 22 22 23 25 27 29 30 31 33 36 38 39 41 44 47 51
26 26 28 22 24 22 22 21 21 21 22 24 25 27 27 27 27 28 29 29 28 30 31 28 23 21 22 21 22 24 26 28 30 31 32 34 36 38 40 43 47 51 54 56
29 27 29 27 25 22 22 22 22 23 24 27 28 30 31 31 30 30 30 29 30 30 28 23 22 20 20 22 24 26 28 30 31 32 35 37 38 40 43 47 51 55 57 55
28 25 30 32 27 25 24 24 24 26 27 29 32 33 33 32 30 30 30 32 32 27 22 19 17 19 22 25 27 28 29 30 32 35 36 38 40 43 47 51 54 56 55 52
25 32 27 30 29 28 27 28 29 30 31 33 34 34 33 32 31 31 33 33 25 19 16 15 18 22 25 26 27 29 31 33 35 36 38 40 42 46 50 52 53 52 49 45
29 28 22 16 15 18 23 29 32 32 33 35 36 36 30 28 31 32 28 21 17 13 14 19 22 24 26 28 29 30 33 35 37 38 39 42 45 48 50 51 50 47 44 41
20 25 33 25 29 35 33 29 29 31 33 31 28 27 29 31 26 20 16 12 10 14 18 22 25 26 27 29 31 33 35 37 38 39 41 43 46 48 48 48 45 42 40 39
24 36 34 27 27 26 27 27 29 31 29 28 27 24 21 17 14 10 8 10 15 19 22 24 25 27 29 31 33 35 37 38 39 40 41 43 45 46 46 44 41 39 38 37
23 23 20 21 22 23 22 20 22 25 24 24 20 16 15 11 8 8 12 16 20 22 24 25 27 29 31 33 36 37 38 39 39 40 42 43 44 45 43 40 38 37 36 34
14 14 14 14 14 16 18 19 19 19 16 15 13 8 6 8 11 14 18 21 23 24 26 28 30 31 34 36 38 38 39 39 40 41 42 43 43 42 40 37 36 34 34 33
9 9 10 9 9 9 11 12 13 14 11 6 6 8 11 14 17 20 23 25 27 28 30 31 32 35 37 38 39 39 39 39 40 40 41 41 41 39 37 35 34 33 32 32
5 6 5 6 7 7 7 8 8 6 6 8 11 15 18 20 22 25 27 29 30 31 32 33 36 38 40 40 40 39 39 39 40 40 40 39 38 37 35 34 33 32 33 32
2 1 2 3 4 6 5 6 8 10 13 16 19 22 24 26 28 29 30 31 32 33 34 37 39 40 41 40 40 39 39 39 40 39 38 37 36 35 33 32 31 31 31 32
1 2 3 4 6 8 10 12 15 18 20 22 23 25 27 29 30 31 33 33 34 36 38 39 41 41 41 40 39 38 39 38 38 37 36 35 34 33 31 30 29 30 30 30
3 5 8 9 12 14 16 18 20 22 24 25 27 29 30 31 32 33 35 36 38 40 40 41 41 40 40 39 39 38 38 37 36 35 34 33 32 30 29 28 28 28 28 27

GFSNGP_700_spd_030.txt.gz
Wind_Speed
26 23 23 26 23 25 27 25 23 23 20 18 18 17 17 18 17 17 21 18 16 18 18 18 17 19 20 22 21 22 24 26 28 31 33 34 36 36 35 36 37 34 30 36
25 24 26 25 25 26 26 26 26 23 24 20 17 18 19 19 17 16 18 19 17 17 21 20 22 23 24 23 25 25 25 28 31 34 36 35 32 32 33 34 32 32 33 37
23 22 22 16 27 24 25 25 26 26 24 18 21 25 23 23 22 22 18 16 19 21 23 23 22 20 20 20 21 24 28 31 33 31 29 30 31 32 32 32 30 31 34 34
18 19 8 20 19 19 23 26 24 24 24 25 25 25 24 25 25 24 23 20 22 22 21 19 18 18 19 21 25 28 29 28 27 28 30 31 33 33 34 35 32 34 36 34
13 17 19 17 22 20 23 24 22 26 24 26 26 20 24 27 28 28 27 24 22 20 19 18 18 20 22 25 25 25 24 25 26 27 28 29 30 31 31 32 31 33 34 30
18 12 9 19 20 20 19 27 20 22 22 26 24 25 24 23 25 25 24 21 20 18 17 18 19 21 22 22 22 22 23 24 24 25 25 25 25 25 25 24 24 25 25 26
24 12 15 17 16 16 16 29 15 21 17 12 19 22 22 15 21 24 23 20 18 17 18 19 21 21 20 20 21 22 23 23 23 22 22 21 21 22 22 23 24 24 25 26
19 14 15 19 20 22 27 22 20 22 16 16 20 19 18 17 21 23 21 19 18 18 19 19 19 19 19 21 23 24 23 23 22 22 22 22 23 24 24 24 25 26 28 29
26 24 28 23 20 20 19 24 23 21 18 18 18 19 20 20 23 23 20 18 19 19 18 18 18 19 21 23 24 24 23 22 22 22 22 22 22 23 24 26 27 29 30 33
26 29 29 26 24 26 28 27 25 21 19 17 20 21 22 24 24 22 19 19 19 18 18 19 21 22 23 26 25 25 23 23 22 22 22 23 23 24 27 28 30 31 34 36
33 30 26 26 27 26 27 26 26 21 19 20 20 23 26 26 24 22 21 21 20 20 21 22 24 26 29 28 26 24 23 23 22 22 23 24 26 27 29 30 31 33 36 38
37 29 29 23 23 24 24 24 22 21 22 22 24 25 27 27 26 24 24 23 23 24 25 26 27 29 31 30 25 23 23 23 22 22 24 26 28 31 29 31 34 36 38 41
31 29 26 24 23 22 21 21 20 21 21 21 24 28 30 30 29 27 27 27 27 28 28 27 30 31 32 28 24 24 22 21 22 25 27 28 29 30 32 35 36 37 39 43
23 22 26 25 23 24 19 22 22 23 25 25 26 27 29 31 31 32 32 32 31 30 30 31 31 30 29 24 23 21 21 23 25 27 29 30 31 33 35 36 38 40 43 47
24 24 25 24 26 25 22 23 25 26 27 29 30 32 34 35 36 36 35 35 33 32 33 31 32 29 25 22 20 20 23 25 27 28 29 31 33 35 37 38 40 43 46 49
30 32 30 27 26 30 28 25 28 30 30 31 32 34 37 39 39 39 39 37 35 35 32 32 32 24 20 18 20 24 25 27 28 29 31 33 35 36 38 40 42 44 47 50
37 37 35 33 34 31 30 31 31 31 33 35 37 40 41 42 43 42 40 38 36 33 29 24 23 17 15 19 23 25 27 28 29 31 33 35 36 38 40 41 43 45 47 49
26 30 33 30 30 32 31 30 29 30 34 36 35 40 41 43 41 39 34 28 20 18 19 14 13 13 16 22 25 27 28 29 31 32 35 36 38 39 41 42 43 45 46 46
29 32 33 32 28 33 37 29 24 26 28 33 40 38 37 34 35 31 26 23 19 15 11 11 13 17 22 25 27 28 29 31 32 35 37 38 39 40 41 42 43 44 43 42
32 34 28 29 27 26 36 41 43 30 30 30 30 32 32 27 21 17 15 15 13 11 12 15 19 22 26 27 29 30 32 34 36 37 38 39 40 40 41 42 42 41 41 39
19 20 20 21 25 32 28 27 19 22 25 25 23 20 18 17 16 17 14 11 12 15 18 21 24 27 28 30 31 33 35 36 38 39 40 40 41 41 41 40 40 39 38 36
8 11 12 10 13 14 15 13 13 14 15 15 14 14 13 13 12 11 13 16 19 21 24 27 29 30 32 33 35 36 37 39 40 40 41 41 41 40 40 39 38 37 35 34
6 5 6 6 5 4 5 8 10 11 12 12 11 11 10 12 14 16 19 22 24 27 30 32 33 34 35 37 38 38 39 40 41 41 41 40 40 40 39 38 37 35 33 32
5 5 3 3 2 3 4 5 5 6 7 8 11 13 15 17 20 23 25 28 30 32 34 35 37 38 39 39 39 40 40 41 41 41 40 40 39 39 38 37 35 34 32 31
5 3 1 1 1 1 2 4 6 9 12 14 15 17 20 22 25 27 30 32 34 36 38 39 40 40 40 41 41 41 41 41 40 40 39 39 39 38 36 35 33 32 30 29
1 0 1 2 4 5 8 11 13 14 16 18 20 22 24 27 29 31 33 35 36 38 40 41 42 43 43 43 42 42 41 40 40 39 39 38 37 36 34 33 32 30 28 27
2 4 6 7 9 10 12 14 15 17 19 22 24 26 28 30 32 33 35 37 40 42 44 45 46 45 44 42 41 41 40 40 40 39 38 37 36 34 33 31 29 28 26 25

GFSNGP_700_spd_033.txt.gz
Wind_Speed
34 27 26 28 29 29 28 28 28 26 24 21 18 17 15 12 15 16 20 19 21 21 20 22 23 21 21 20 22 22 22 22 25 28 30 31 34 36 38 39 35 34 31 32
33 31 29 27 25 26 29 30 30 29 29 23 20 16 15 15 19 21 19 15 19 23 22 24 27 28 26 26 24 24 27 29 30 31 31 33 36 37 35 34 34 33 31 31
30 28 28 32 28 27 27 30 26 29 30 23 23 20 19 18 20 24 23 22 19 21 24 25 28 29 30 28 28 27 27 27 28 31 33 34 33 33 34 35 36 36 35 36
22 19 15 23 21 25 28 27 26 27 25 22 20 21 19 19 22 26 26 25 24 21 21 24 25 25 24 22 22 22 24 27 30 32 31 31 32 33 34 34 34 34 33 33
22 21 20 22 21 20 21 24 22 24 24 21 21 23 29 27 26 27 28 29 28 26 23 23 23 22 21 21 22 25 27 28 28 28 29 30 30 31 31 31 31 30 30 29
16 21 19 23 22 17 18 25 18 18 18 18 21 27 25 25 24 25 26 28 27 27 25 23 22 21 22 23 24 25 26 26 26 27 26 27 27 28 28 28 27 26 26 27
26 16 19 17 16 19 19 24 11 13 14 17 21 22 19 22 25 23 23 25 26 26 24 22 21 22 22 23 24 24 23 24 24 25 25 26 26 26 26 26 26 26 26 27
22 23 20 15 19 21 24 18 15 17 15 18 19 28 22 22 22 21 21 24 26 25 23 22 22 23 24 24 23 23 23 23 24 24 23 24 25 26 26 26 26 27 27 27
18 20 25 21 23 22 17 18 19 17 17 23 24 27 25 23 23 23 23 26 26 25 24 23 24 25 24 23 23 23 24 24 24 23 23 24 24 25 25 25 26 27 28 29
15 17 18 17 19 17 20 19 21 25 24 25 24 24 24 24 24 25 26 27 27 26 26 26 26 26 25 24 24 26 26 24 24 24 24 24 24 24 25 25 27 29 29 30
31 29 26 20 22 20 22 22 23 22 24 25 24 24 24 25 25 26 28 30 28 28 27 27 28 27 27 27 28 28 27 25 25 25 25 24 23 25 27 27 28 30 31 33
32 28 25 20 20 20 24 22 22 24 26 26 25 24 23 25 27 29 31 31 30 28 29 30 30 31 31 31 31 30 28 27 25 25 25 24 26 26 27 29 30 30 32 34
29 21 22 25 30 23 24 23 26 25 26 24 24 25 28 29 30 32 33 33 32 32 32 33 34 35 34 34 33 32 29 26 26 24 24 25 26 28 32 29 29 31 33 36
29 33 31 28 27 30 26 22 24 21 24 26 25 27 29 33 35 36 36 36 37 37 37 38 38 38 36 34 31 27 26 25 23 23 24 26 27 28 29 31 34 37 39 38
27 28 28 28 27 27 27 28 23 21 23 27 29 31 32 34 39 41 42 43 43 42 43 43 42 41 38 34 29 25 21 20 22 24 26 27 28 29 31 32 34 36 38 40
28 27 31 30 29 27 26 25 25 25 27 27 31 34 37 39 43 44 45 47 48 48 47 44 44 39 35 28 21 19 20 21 22 25 27 29 30 31 33 34 36 38 39 42
28 31 33 34 34 32 30 34 26 31 35 33 35 38 43 45 45 46 48 51 49 46 46 45 43 32 22 21 19 18 17 20 24 27 30 31 32 33 35 36 38 40 42 44
24 20 24 34 39 40 41 41 37 38 35 36 40 40 41 42 41 43 44 47 46 41 34 29 25 22 18 16 16 18 21 25 28 30 32 33 34 35 36 38 40 42 43 44
39 33 32 26 26 26 28 29 30 30 34 35 34 33 33 36 37 36 34 32 29 25 22 20 20 18 16 17 21 24 27 29 31 32 34 35 36 37 39 40 42 43 44 44
39 40 37 36 31 25 25 26 25 25 27 26 26 28 29 28 29 25 21 18 17 18 18 17 15 17 20 24 27 29 31 32 33 35 36 37 38 39 41 42 42 43 43 43
30 30 31 30 26 26 22 21 21 20 20 16 13 15 15 17 16 15 15 14 13 14 16 18 21 24 27 29 31 33 35 36 37 38 40 40 41 42 42 43 43 43 42 41
11 11 11 10 11 12 10 7 5 6 7 7 8 8 9 10 10 10 10 12 16 18 21 23 27 29 31 33 35 38 39 40 42 42 43 42 43 43 44 44 43 42 41 40
6 7 8 9 8 7 7 5 3 2 2 4 5 5 4 6 9 13 16 18 20 23 25 27 30 32 35 38 40 42 43 44 44 44 44 44 44 44 44 43 42 41 40 39
12 11 8 7 7 6 5 4 3 2 1 0 3 6 10 14 17 19 21 23 26 28 31 33 35 38 40 41 43 44 45 45 46 46 46 45 45 44 43 42 41 40 39 37
6 5 4 4 3 1 1 1 1 4 7 10 13 16 18 20 22 24 26 29 31 34 36 37 39 40 42 44 46 47 47 47 46 45 44 43 43 42 42 41 40 39 37 35
4 3 2 1 2 3 5 7 10 13 15 17 19 21 23 25 27 29 31 33 34 36 39 42 44 45 47 48 48 47 46 45 44 43 43 42 42 41 40 39 37 36 34 32
3 5 6 7 8 10 12 14 15 17 19 21 23 25 27 29 31 33 36 38 40 43 44 46 46 48 48 47 47 47 47 45 44 43 42 41 40 38 37 35 34 32 31 29

GFSNGP_700_spd_036.txt.gz
Wind_Speed
39 32 31 29 28 28 32 32 29 25 27 26 24 25 12 5 9 15 18 16 14 17 23 21 18 20 23 23 21 18 20 23 23 20 23 26 29 31 33 33 35 37 35 33
41 33 34 35 31 34 30 33 32 29 29 23 21 18 14 19 13 20 15 19 18 17 24 25 24 25 26 25 23 24 24 23 24 26 30 31 34 33 35 36 34 32 33 33
35 36 26 38 39 31 29 30 30 32 31 26 25 23 22 18 18 22 20 24 24 23 23 25 26 26 25 29 30 28 27 28 30 33 32 30 32 35 36 35 34 33 33 33
22 20 22 26 31 29 29 28 26 27 30 23 22 23 21 19 16 22 25 26 26 30 28 25 23 24 25 29 30 30 32 27 25 26 29 31 32 31 31 32 33 33 32 32
25 26 25 29 22 27 24 30 27 28 27 25 24 23 25 22 22 26 27 30 26 27 29 27 23 22 24 26 27 25 25 25 26 28 30 30 28 29 29 29 30 30 30 30
18 24 18 22 23 18 25 29 23 21 24 24 24 23 19 18 26 31 30 25 27 28 30 28 25 25 25 25 25 24 25 26 29 29 28 26 27 28 28 28 29 29 28 28
28 15 18 19 20 23 29 24 20 22 23 22 22 19 19 27 30 29 25 24 25 26 27 27 26 26 25 24 24 25 27 27 27 27 25 26 27 28 28 29 28 28 28 28
21 22 18 10 25 29 28 35 24 15 17 15 18 20 24 26 25 24 24 26 25 25 26 27 27 27 26 25 26 26 26 26 26 26 26 27 28 29 30 28 29 28 27 27
8 18 17 19 25 16 23 18 17 18 20 18 21 23 22 22 23 25 27 25 25 25 26 28 28 28 27 27 27 27 27 27 26 27 29 29 29 29 29 28 28 27 27 27
19 17 10 19 27 27 22 19 20 17 18 22 23 24 22 24 24 27 28 26 26 27 29 30 30 30 29 28 28 29 29 29 29 29 29 30 29 30 28 28 27 27 26 27
20 19 18 19 11 12 21 21 22 23 22 22 23 25 24 24 23 25 25 27 28 29 32 32 33 31 29 31 32 32 32 32 31 30 29 30 29 29 27 26 27 27 27 29
29 27 21 24 22 15 19 20 19 24 20 22 26 26 25 23 21 24 27 29 31 34 35 35 34 34 34 35 36 35 35 34 32 31 31 31 29 29 26 25 25 27 28 30
27 22 24 24 17 25 30 28 16 23 19 22 25 26 25 23 24 26 30 33 35 36 37 38 39 39 38 39 40 39 36 36 35 33 30 29 28 26 25 24 25 27 28 30
26 26 29 34 27 23 25 24 26 26 21 23 24 25 25 27 27 32 35 35 38 39 41 43 44 43 43 42 41 39 40 42 39 32 28 24 21 22 25 27 28 30 31 33
19 18 22 29 26 26 24 26 31 27 23 26 26 27 28 30 30 33 36 39 41 44 46 47 46 47 46 44 44 44 43 38 32 25 20 22 22 22 24 27 30 32 36 39
32 29 27 26 30 29 28 26 24 27 22 25 27 29 32 33 35 38 41 43 44 47 50 51 49 48 46 47 45 45 42 29 26 24 21 21 22 25 27 30 32 35 37 38
20 22 23 25 31 33 31 29 29 26 25 25 28 29 33 40 40 42 45 45 46 49 49 46 46 49 50 42 29 22 23 23 21 21 22 23 27 30 31 33 34 37 38 40
26 28 27 22 21 25 30 33 35 36 37 37 39 40 39 41 39 41 44 45 45 44 43 42 36 28 23 23 23 22 20 19 21 24 26 28 32 33 34 35 38 39 40 41
34 32 32 32 27 29 30 27 25 26 29 30 32 34 33 35 37 36 36 35 33 28 22 19 18 20 20 19 18 19 22 24 26 28 31 33 35 37 38 40 41 41 41 42
40 38 38 38 38 37 35 32 30 28 27 27 27 28 28 28 27 24 20 16 14 14 14 15 15 16 16 19 22 25 27 29 31 33 34 36 38 40 41 42 42 42 42 43
29 28 29 31 31 30 31 29 27 25 19 19 15 12 11 10 9 7 7 8 8 10 11 13 16 20 22 24 26 28 30 32 34 36 38 40 41 42 42 43 43 43 44 44
3 3 5 6 6 7 7 4 3 3 4 5 4 3 1 1 3 4 6 7 9 12 15 19 22 24 27 29 31 33 35 37 38 39 41 42 43 43 44 44 44 44 43 43
13 13 14 14 13 12 11 10 9 8 6 4 3 1 1 2 3 6 10 13 17 20 23 25 27 29 31 33 35 36 38 39 41 42 44 45 45 45 45 44 42 41 41 40
12 11 10 11 10 9 6 7 6 4 3 2 1 3 6 9 13 16 18 21 23 26 27 29 30 32 34 36 39 41 42 44 46 46 46 46 45 44 43 41 41 40 39 38
8 8 8 7 5 4 4 3 2 2 4 7 10 12 15 17 19 21 23 25 28 31 31 34 36 38 41 43 44 45 45 46 46 46 45 44 42 41 40 40 39 38 37 35
6 5 4 4 4 5 6 7 9 11 13 15 17 18 20 22 24 27 29 32 33 35 39 41 42 42 43 43 43 44 44 45 44 43 42 40 38 37 36 35 34 33 32 31
5 6 7 8 9 10 12 13 14 16 18 20 22 24 26 28 30 31 33 35 37 38 39 39 41 42 42 42 42 41 40 39 38 37 35 33 32 31 30 29 28 27 27 27

GFSNGP_700_spd_039.txt.gz
Wind_Speed
46 38 28 26 38 33 34 33 33 33 30 29 26 28 26 25 22 22 20 23 23 23 22 19 17 20 21 24 28 29 29 26 20 19 18 18 19 20 22 26 30 31 33 36
30 43 43 38 29 30 40 31 28 30 30 25 23 22 29 25 18 22 22 22 27 24 23 25 25 22 24 23 23 25 23 22 23 21 20 22 23 26 30 31 30 33 34 31
34 25 35 35 47 33 32 36 27 36 32 27 24 29 28 20 22 25 28 32 30 31 27 28 30 22 24 25 23 25 29 30 26 24 25 27 30 30 27 30 33 32 30 29
29 32 9 40 40 41 29 36 36 27 24 20 18 22 25 23 21 21 26 27 26 27 28 29 30 29 24 25 28 27 30 30 28 29 30 30 27 29 32 32 29 28 29 30
14 29 19 32 21 22 34 35 30 27 27 25 22 17 23 28 22 22 25 26 27 28 32 32 30 30 26 24 25 26 28 29 30 29 26 28 30 31 31 29 28 29 30 31
14 15 17 26 27 24 16 32 29 22 21 21 22 29 27 30 29 24 24 26 28 30 29 28 29 29 28 25 24 25 26 26 25 26 26 28 30 29 28 28 29 30 31 32
25 12 17 14 20 22 22 17 18 23 21 21 24 28 25 27 25 21 23 28 31 27 26 26 28 28 29 26 26 26 26 26 25 26 28 29 28 28 28 29 30 30 31 32
10 15 11 10 20 28 30 23 23 17 18 14 17 11 17 22 23 21 24 28 25 24 26 28 27 26 27 27 27 27 25 25 27 28 29 29 29 30 30 31 31 31 33 33
14 12 9 17 16 21 24 23 12 20 36 31 24 25 23 19 20 23 25 25 25 26 27 27 25 25 28 28 27 26 27 27 29 30 30 30 31 32 32 31 31 32 34 34
14 17 21 17 18 27 25 22 15 18 17 21 23 27 23 23 24 24 26 25 24 29 28 28 27 27 29 29 30 30 30 31 32 32 33 32 32 31 31 33 34 33 33 34
24 20 13 14 21 23 27 27 18 20 18 18 20 23 22 23 22 25 26 25 26 28 28 29 29 30 31 33 33 34 34 34 34 35 36 35 34 33 34 35 34 33 31 30
27 20 19 23 29 24 20 36 22 19 21 21 16 22 22 20 22 26 25 25 27 28 30 31 33 34 36 37 38 38 37 37 38 39 39 37 36 37 37 35 32 30 28 25
19 17 21 27 20 18 19 18 13 22 23 25 23 15 21 23 24 26 25 26 27 29 32 35 37 39 41 42 42 41 41 41 42 41 39 38 38 34 31 29 27 25 26 27
26 27 26 29 24 25 25 25 24 22 20 22 35 20 26 26 27 27 28 28 30 32 34 37 39 42 45 46 46 45 45 43 40 39 41 43 41 34 29 27 32 35 31 30
26 27 29 30 25 27 28 23 25 22 20 19 22 23 26 29 31 32 33 32 31 34 38 41 43 45 47 48 46 44 42 40 41 44 45 38 31 31 31 30 30 30 31 32
28 34 30 26 24 26 26 26 25 23 23 21 22 25 30 29 33 35 34 33 34 38 42 44 46 46 46 47 45 42 41 45 41 31 26 25 26 26 26 28 29 31 33 36
20 20 21 22 26 25 26 29 29 26 23 23 23 26 29 29 30 33 40 42 43 43 44 43 45 43 41 41 42 37 27 24 26 26 23 21 22 25 27 30 32 35 37 38
19 20 23 21 22 21 19 16 16 17 18 22 25 28 31 33 34 38 41 45 41 41 38 36 33 30 27 23 22 22 23 22 20 20 22 25 27 29 31 34 36 37 39 40
29 27 24 25 28 28 26 25 22 24 25 26 23 25 28 31 34 36 36 34 31 27 26 24 19 16 15 15 16 16 17 19 22 25 28 30 32 34 36 38 39 40 41 42
33 36 35 33 35 34 32 32 32 26 22 23 21 20 20 23 24 23 21 20 19 15 10 9 10 10 12 13 15 19 22 25 28 31 33 35 37 38 40 41 42 43 43 43
11 14 14 16 17 19 20 19 18 18 16 14 11 11 11 13 14 11 7 5 4 5 6 7 10 13 16 20 23 26 29 31 34 37 38 40 40 41 42 43 43 44 44 44
9 8 8 9 8 5 8 10 9 8 8 8 8 8 6 4 2 1 2 3 4 7 10 14 17 21 24 28 30 33 35 37 38 39 40 42 43 44 45 45 44 43 43 42
17 17 16 15 14 15 13 11 11 10 8 7 5 4 3 2 3 5 8 10 14 17 19 22 25 28 30 32 34 36 37 39 41 42 43 44 44 44 43 43 43 42 41 40
14 13 12 14 14 12 9 9 8 7 5 4 4 4 6 9 11 14 16 18 20 22 24 27 29 31 33 36 37 39 40 41 42 43 43 43 42 42 41 41 41 40 38 37
9 9 10 10 8 7 7 6 5 6 7 8 9 11 13 15 16 18 21 23 25 27 29 31 33 34 36 38 39 40 41 41 41 40 39 38 38 37 36 35 35 34 32 31
6 5 5 4 5 6 6 7 8 10 11 13 15 17 18 20 23 24 26 28 31 33 34 35 36 36 35 35 35 34 35 35 35 35 34 33 32 31 29 28 27 27 26 26
5 7 8 8 9 10 11 13 14 16 17 18 20 21 23 25 26 28 30 30 30 30 30 30 31 31 31 32 32 32 32 31 31 30 28 27 26 25 24 24 23 22 22 22

GFSNGP_700_spd_042.txt.gz
Wind_Speed
30 34 30 40 24 30 40 40 30 30 29 28 26 24 26 25 23 19 20 23 28 27 25 25 22 21 21 23 24 22 24 24 23 23 21 17 16 19 18 18 19 22 25 27
34 25 36 39 44 34 37 36 37 33 31 28 30 29 32 32 30 28 29 29 28 31 29 31 29 26 27 23 24 25 23 23 26 25 23 20 21 20 20 22 24 26 27 28
17 20 26 27 54 43 35 35 37 35 35 30 29 30 27 29 27 35 29 27 30 33 31 31 32 28 24 25 25 26 25 24 25 27 27 25 23 24 25 25 28 27 30 32
30 39 9 40 32 42 43 41 33 27 32 25 27 32 27 29 30 28 28 33 29 30 31 31 29 29 32 30 27 27 26 28 27 27 28 28 29 28 28 25 27 29 30 30
11 21 29 30 27 26 25 40 43 37 30 29 27 24 23 19 22 23 23 25 26 31 30 29 28 28 33 28 27 27 28 29 30 30 30 31 28 24 25 27 28 30 29 28
14 8 7 14 30 30 18 28 26 51 42 28 29 33 31 30 24 25 25 26 23 30 32 27 29 29 27 26 27 28 28 29 28 27 28 27 25 26 28 30 30 30 29 29
21 14 21 27 13 16 29 27 11 13 24 31 31 31 29 31 29 24 21 21 24 27 25 25 26 26 26 28 29 31 31 30 28 27 26 26 28 29 31 32 31 31 31 30
12 10 15 22 5 7 17 19 24 24 17 14 15 24 26 24 22 21 20 18 18 21 23 26 26 25 29 31 30 29 29 29 28 27 28 29 30 31 32 31 32 32 33 33
20 22 23 21 25 11 8 26 19 20 24 29 22 23 19 17 17 18 15 15 18 21 23 26 26 27 29 29 27 26 28 29 29 30 30 31 32 32 31 32 33 34 34 35
26 24 14 20 27 18 15 15 18 22 19 28 22 13 20 22 25 23 21 22 22 22 24 26 26 27 29 28 27 28 30 32 33 33 33 33 33 33 34 35 36 35 36 37
31 27 25 18 24 26 15 18 24 17 14 25 18 18 18 21 21 21 20 20 22 23 25 27 27 27 28 29 29 32 34 35 35 36 36 37 37 37 37 37 37 37 38 38
27 18 23 18 14 18 19 23 30 34 18 23 21 25 21 15 24 22 20 22 23 24 26 27 28 28 29 30 32 35 37 39 40 41 40 40 40 40 40 39 39 38 35 32
21 20 15 14 17 19 16 18 17 33 24 30 16 16 17 13 18 21 22 24 26 27 28 29 28 28 30 33 36 39 40 42 44 44 44 44 42 40 40 39 38 35 29 28
22 21 24 24 21 19 21 21 22 18 19 20 21 18 18 26 19 21 22 25 27 29 29 31 32 33 35 37 39 41 43 44 44 44 44 44 43 42 43 45 41 38 40 38
22 26 28 28 27 24 22 20 22 19 21 19 21 22 24 23 26 25 28 31 30 29 31 33 34 35 37 39 41 42 43 43 44 43 42 43 44 42 35 33 32 31 32 34
26 26 26 25 26 22 20 20 19 18 18 19 21 22 21 23 25 26 26 28 31 31 34 34 37 39 40 42 43 41 39 39 39 39 38 33 30 31 30 28 28 30 32 34
24 21 21 21 19 19 21 21 21 20 14 14 15 16 19 25 27 27 31 34 30 31 34 37 39 37 34 32 31 32 32 31 29 27 25 26 26 25 26 27 31 33 36 38
14 21 22 21 19 17 17 16 16 18 16 14 14 16 20 26 29 32 34 34 36 37 36 33 29 26 26 27 28 26 23 21 20 21 21 22 24 26 29 32 35 38 40 42
22 26 27 21 20 19 21 21 21 23 20 16 15 20 21 23 29 33 33 32 29 25 22 21 22 22 19 16 15 14 15 16 18 20 24 27 30 33 36 38 40 42 44 44
25 27 29 29 29 27 26 26 26 22 20 21 18 17 16 20 23 22 21 19 18 18 17 14 12 12 12 12 13 15 17 21 24 27 31 34 37 39 41 42 44 45 45 46
7 6 7 9 11 10 10 10 7 8 10 10 7 8 10 11 10 9 10 11 10 8 8 9 10 11 13 16 19 23 26 29 32 35 37 39 41 42 43 44 45 46 47 48
14 13 14 14 12 11 13 12 10 9 7 6 4 4 3 2 2 2 3 4 5 7 10 13 16 19 22 25 27 30 33 35 37 39 40 42 44 45 46 47 48 48 48 47
16 15 15 14 14 13 12 11 10 9 8 7 6 4 3 1 3 5 8 10 13 15 18 20 23 26 28 31 33 35 37 39 40 41 42 43 44 44 44 44 44 44 43 42
12 11 11 11 12 10 7 8 8 6 4 3 1 3 6 8 11 13 15 17 19 21 23 25 27 30 32 34 36 37 37 37 37 37 38 38 39 40 40 40 39 39 38 37
9 9 9 9 7 6 6 6 5 6 7 8 9 11 13 14 16 18 19 21 23 25 27 28 29 31 32 32 32 33 33 34 34 35 35 35 35 34 34 33 32 31 30 29
7 7 7 7 7 8 8 9 9 10 11 13 14 16 18 19 21 23 24 26 27 28 28 28 27 27 27 28 28 29 29 30 30 30 30 30 30 30 29 28 27 27 26 26
7 8 9 10 11 12 12 13 14 15 16 17 19 20 21 22 23 24 24 23 22 22 23 23 24 25 25 26 26 27 28 28 28 28 28 28 27 26 25 25 25 25 24 24

GFSNGP_700_spd_045.txt.gz
Wind_Speed
21 17 19 25 32 33 31 37 38 33 38 39 33 29 26 19 25 23 25 22 24 25 23 20 22 19 21 16 13 19 23 25 22 23 24 23 22 23 20 20 20 22 22 23
33 25 20 28 31 41 42 36 37 34 41 34 27 21 24 24 27 31 25 25 28 24 26 24 25 23 23 23 21 18 22 26 25 22 23 22 22 22 22 22 23 24 25 26
18 18 19 25 23 23 41 44 38 38 34 31 35 34 28 27 30 29 36 31 29 28 32 29 28 25 26 27 27 27 28 25 24 25 25 27 26 27 26 25 27 28 29 31
15 17 3 36 33 25 30 36 45 43 38 27 31 27 28 26 30 29 29 28 28 34 26 29 30 30 29 29 30 32 31 26 24 24 26 26 28 30 29 30 31 32 33 29
7 5 20 42 34 30 25 34 21 44 45 37 33 34 37 29 24 28 30 29 32 30 27 29 31 30 32 30 28 33 31 26 26 25 26 29 30 31 33 34 34 32 28 29
11 4 7 48 35 23 36 48 18 20 31 38 35 46 44 30 26 28 23 23 23 24 28 27 28 29 30 30 35 32 26 25 25 26 26 28 29 32 34 34 30 28 28 30
20 10 19 25 23 23 15 19 22 26 21 16 38 54 46 36 29 31 31 31 27 26 30 29 28 28 29 33 32 28 27 27 28 30 31 28 27 28 27 27 28 28 28 29
14 9 14 10 16 13 22 11 11 23 22 26 18 21 28 31 30 30 27 30 26 29 28 25 26 29 30 29 26 26 29 31 31 31 29 27 26 26 27 29 29 29 29 30
17 16 19 22 28 30 27 31 5 12 20 28 22 17 17 20 11 22 24 24 24 23 21 23 24 24 26 26 26 28 31 32 31 29 28 28 29 31 32 32 32 32 33 33
32 34 24 28 17 23 22 29 5 11 14 22 26 29 26 27 17 16 18 19 18 18 18 19 19 22 24 26 28 30 31 31 30 29 30 32 33 34 35 35 35 36 36 36
38 39 32 25 27 21 18 20 21 13 13 19 20 24 24 25 25 23 18 16 17 19 18 19 20 21 24 27 29 31 31 31 31 32 34 35 37 37 38 39 38 39 38 38
26 23 25 23 22 18 17 17 19 11 11 14 19 22 26 29 30 26 24 23 21 21 20 22 22 23 25 27 30 30 30 30 32 35 37 38 39 40 41 41 42 41 40 41
32 32 25 27 20 19 20 21 20 18 16 16 19 23 28 25 32 26 23 23 25 25 24 24 26 27 28 28 29 30 30 32 35 37 39 40 41 42 43 43 44 44 46 46
25 29 26 24 25 23 24 21 22 22 24 22 18 23 25 28 28 26 33 28 24 27 25 24 27 28 29 30 30 31 31 32 35 37 40 42 44 45 44 43 43 43 41 37
29 28 30 24 26 24 28 28 25 22 18 17 18 19 19 21 21 13 24 21 21 24 26 28 27 30 29 30 32 31 32 34 35 36 36 36 36 36 37 37 36 36 36 36
30 30 23 24 25 26 27 25 24 22 21 21 19 18 17 19 20 20 23 26 31 27 26 31 34 35 34 34 32 30 30 31 29 28 30 32 33 33 33 32 31 31 31 32
32 35 27 27 26 22 20 20 19 19 22 19 19 18 19 16 17 21 24 28 31 32 27 32 35 34 33 31 27 24 24 26 28 30 31 30 29 28 27 27 27 28 31 34
23 24 23 24 23 22 23 20 21 21 21 15 15 15 14 13 16 22 29 30 31 34 34 34 31 27 22 21 22 24 27 27 27 25 24 22 22 23 25 28 31 34 37 40
16 21 16 24 26 26 21 21 24 19 14 15 18 19 18 17 21 25 27 29 29 26 22 19 17 17 20 23 23 22 21 20 19 19 20 22 25 28 31 34 37 40 42 45
19 19 17 24 26 24 23 22 21 19 19 20 20 19 20 22 21 18 16 14 14 14 14 15 16 15 15 14 14 14 16 18 21 24 27 30 32 35 38 40 43 45 46 48
8 9 7 6 6 7 8 7 4 4 5 3 1 2 3 4 4 5 6 8 8 8 8 8 9 10 12 15 18 21 24 26 29 31 34 37 39 41 42 44 46 47 47 48
13 13 13 11 10 10 12 11 9 8 7 5 4 3 3 1 1 2 3 4 5 7 10 13 16 18 21 24 26 28 31 33 35 37 38 40 41 41 41 41 41 41 42 42
17 16 15 14 13 13 12 11 10 9 7 6 5 4 3 4 5 7 10 12 14 16 19 21 23 25 27 29 31 32 34 35 36 35 35 35 35 36 37 38 38 38 38 38
12 12 11 11 11 10 8 7 6 5 4 5 6 8 10 11 13 15 16 18 20 21 23 25 27 29 30 31 31 31 30 30 30 31 32 33 34 34 35 35 34 34 33 32
8 7 6 6 5 5 5 6 7 7 9 10 11 13 14 16 17 19 20 22 23 25 26 27 27 27 26 26 27 28 29 29 29 30 30 31 31 31 30 30 29 28 27 26
3 4 4 5 6 7 8 9 10 11 12 13 14 16 17 19 20 21 23 24 24 24 23 23 23 23 24 25 25 26 26 26 26 27 27 28 28 28 28 27 26 25 25 25
6 7 8 9 10 11 12 13 14 15 16 17 18 18 19 20 20 20 19 18 18 19 20 21 21 22 22 22 23 23 23 24 25 25 26 26 27 26 26 25 25 24 24 24

GFSNGP_700_spd_048.txt.gz
Wind_Speed
15 15 15 18 19 21 23 29 27 31 31 23 23 26 26 29 25 22 19 22 21 23 24 22 20 13 16 14 11 13 12 11 11 18 22 23 26 28 26 29 25 25 23 25
12 14 22 27 26 25 27 24 32 34 38 31 24 19 23 23 24 22 19 21 26 24 23 25 25 22 18 18 17 15 18 20 19 22 22 25 24 26 26 25 25 24 23 24
5 6 8 17 29 24 26 28 28 33 35 30 33 28 23 23 24 24 24 25 29 26 24 27 28 25 24 19 20 21 21 23 26 28 27 25 26 26 27 27 26 25 27 28
9 7 3 19 13 15 23 31 30 35 41 34 37 35 35 27 25 26 26 27 27 29 32 32 31 30 24 22 22 24 25 27 28 31 30 25 25 27 27 28 29 31 31 32
8 8 20 35 24 17 27 36 33 36 40 25 25 37 45 37 30 25 23 25 27 25 24 27 27 29 26 27 28 29 29 28 26 30 29 27 26 27 30 31 34 35 35 35
7 2 5 19 14 16 12 30 19 23 26 23 14 28 41 41 37 33 27 23 20 19 25 28 30 30 30 29 31 30 30 29 29 32 29 28 28 29 31 33 35 36 37 38
17 10 17 21 14 16 5 15 23 24 28 30 23 19 22 27 42 44 36 33 24 23 24 25 26 30 31 31 28 27 28 31 32 32 30 29 31 33 33 33 34 35 36 36
16 10 13 1 11 10 21 26 33 26 24 29 32 25 21 16 21 32 42 36 30 25 28 31 34 34 33 30 26 27 30 32 34 33 32 32 32 31 29 30 32 34 34 35
17 15 12 17 23 21 23 28 30 30 22 25 20 15 20 18 14 16 21 28 28 33 33 35 36 33 24 24 26 28 33 34 34 32 31 30 29 27 30 32 32 34 36 37
27 32 30 31 30 30 30 27 25 24 31 19 9 10 15 18 22 20 19 21 24 24 18 15 14 16 20 24 28 31 32 33 33 31 31 30 29 31 32 33 34 36 36 37
31 33 29 26 29 35 32 24 32 25 26 18 10 9 15 18 18 20 23 21 20 17 19 18 21 24 26 28 28 27 29 31 31 31 30 28 28 29 31 33 34 36 37 38
33 28 28 26 24 24 24 26 28 22 23 19 16 17 12 17 19 22 26 26 26 23 21 22 25 27 26 25 24 27 28 29 29 28 27 27 28 30 31 33 34 36 38 40
40 38 37 38 37 29 28 27 21 21 19 21 22 20 22 21 19 24 26 34 32 32 26 28 31 31 29 26 25 27 27 27 27 26 25 27 28 30 33 35 35 36 37 38
37 35 32 27 26 25 27 29 27 25 24 26 23 21 22 23 24 23 25 26 30 31 35 32 34 30 26 25 27 27 28 26 25 25 26 26 27 28 28 28 28 30 32 34
27 25 22 23 26 27 24 30 27 26 25 24 22 20 19 21 22 21 20 20 19 20 23 29 34 31 28 28 27 29 27 26 25 24 23 23 23 24 25 28 30 33 35 36
32 35 31 29 29 28 26 27 25 24 23 25 26 25 24 22 21 21 24 22 23 21 20 27 27 29 25 30 28 26 24 25 25 22 22 23 25 28 30 30 31 32 31 30
29 31 34 33 32 33 36 26 23 23 24 23 25 25 23 22 20 18 20 23 26 27 29 28 28 24 27 29 30 26 21 19 19 21 24 25 26 26 26 25 25 25 26 28
25 24 21 23 24 26 28 23 22 24 22 23 27 20 20 18 18 18 17 18 20 24 22 21 18 18 16 15 14 16 19 20 21 21 21 21 21 20 21 22 25 27 30 34
26 22 19 21 18 20 23 24 25 25 24 25 27 22 16 18 20 21 18 17 19 18 17 14 12 12 13 15 16 17 17 17 17 16 17 19 21 24 26 29 32 34 37 40
13 14 17 19 20 21 20 20 19 20 18 17 17 16 15 15 11 6 4 5 7 7 8 10 12 13 13 13 13 13 15 17 20 22 25 27 30 32 34 36 38 39 40 42
7 6 7 6 5 5 3 2 3 3 4 3 4 2 2 2 1 2 3 4 5 5 6 6 8 9 12 15 18 20 22 25 28 30 32 33 35 36 37 37 37 37 37 38
8 8 9 9 8 7 10 11 10 10 9 7 5 5 6 5 5 5 5 7 9 11 13 15 17 19 21 23 25 26 28 29 31 32 32 32 32 32 33 33 34 35 35 35
15 14 14 13 13 13 11 10 9 8 7 5 5 6 6 7 9 11 12 14 16 17 19 20 22 23 25 27 28 29 29 28 28 28 28 29 30 30 31 32 32 32 32 32
11 10 9 9 9 8 6 5 5 5 6 7 8 9 11 12 14 16 17 18 19 21 22 23 24 25 25 25 25 25 25 26 26 27 27 27 28 28 29 29 29 30 30 30
6 4 3 3 4 4 6 7 9 10 12 13 14 15 16 18 19 20 21 22 23 24 23 23 22 22 22 22 23 24 25 25 25 26 26 27 27 28 28 29 29 29 28 28
1 3 5 7 9 10 11 13 13 14 15 16 17 19 20 21 22 23 23 23 22 20 19 20 20 21 22 22 23 23 24 25 25 25 25 25 26 26 27 27 27 26 25 24
7 9 10 11 12 13 13 14 15 15 16 18 19 20 20 21 20 19 17 17 17 18 18 19 19 19 20 21 21 22 23 23 23 24 24 24 25 25 25 25 25 25 25 24

GFSNGP_700_spd_051.txt.gz
Wind_Speed
8 9 10 10 8 10 13 12 10 11 18 17 19 20 19 18 20 21 23 19 20 22 20 21 21 26 24 24 19 18 23 23 20 15 14 15 22 25 28 31 32 31 37 37
8 9 12 16 15 15 16 20 25 22 26 20 19 21 25 17 20 18 19 23 20 19 21 21 20 23 23 22 22 20 19 22 19 21 19 16 18 22 30 31 29 31 32 36
5 8 8 14 19 20 21 21 24 26 28 26 26 25 22 29 23 21 18 21 22 20 25 27 25 24 27 26 21 22 24 21 21 23 23 24 22 22 27 31 29 29 29 32
5 4 5 9 12 16 15 19 23 29 26 26 30 30 29 25 34 30 27 24 26 25 28 29 28 29 28 32 26 24 25 27 25 24 26 27 29 27 25 30 32 31 32 34
4 8 15 22 13 14 14 19 17 18 17 21 22 27 23 25 36 39 32 27 25 23 24 29 32 33 37 36 35 30 28 28 28 28 29 31 35 31 28 29 33 34 35 35
8 4 5 6 9 6 7 14 7 22 23 25 24 24 22 18 26 41 42 37 33 28 22 20 27 29 33 33 33 35 31 32 32 33 32 35 34 33 32 32 33 34 37 38
12 9 12 12 3 4 1 5 19 18 25 24 28 26 26 23 18 27 35 42 38 33 31 24 25 28 26 33 34 37 36 32 33 36 36 34 33 34 33 33 34 35 36 37
17 10 12 4 7 4 9 15 17 22 25 26 28 28 27 23 27 23 24 27 33 44 37 34 30 30 30 32 35 36 37 36 35 36 36 34 34 35 34 35 36 38 35 33
18 13 9 6 8 16 22 25 26 25 25 28 34 33 30 22 25 32 26 17 20 26 40 40 38 34 31 34 37 36 36 35 32 31 31 34 34 34 35 34 30 26 32 33
24 28 25 25 28 30 32 35 36 27 27 30 34 36 36 18 18 24 25 18 17 15 24 34 37 40 46 43 34 27 26 28 29 31 33 34 36 34 32 29 27 33 36 33
30 29 26 25 29 26 17 19 23 25 24 28 35 40 25 19 9 8 13 17 16 13 16 19 20 20 21 22 21 21 25 27 29 31 30 33 33 31 28 28 33 35 34 35
29 28 29 29 28 27 26 28 31 29 26 30 36 27 25 29 19 8 9 10 15 14 11 12 18 20 21 23 23 23 26 28 29 31 32 30 28 26 26 27 29 30 33 34
27 29 31 36 36 38 35 33 27 28 30 31 32 24 26 34 22 17 21 19 15 15 19 27 21 16 17 22 22 26 30 30 30 30 27 24 22 20 20 22 24 26 28 29
27 25 22 28 32 30 29 23 24 27 27 29 25 25 28 24 35 18 20 19 19 18 21 24 23 29 38 38 37 33 28 26 22 18 18 17 19 19 21 21 22 23 23 25
27 31 31 30 29 27 23 25 23 26 27 27 22 24 28 25 26 26 21 18 20 17 20 24 21 20 21 23 26 23 20 20 19 18 18 19 20 19 18 18 21 23 25 28
31 29 29 29 26 31 33 31 32 31 29 24 22 23 26 26 23 24 24 22 22 20 21 24 23 22 24 20 20 16 17 18 17 18 18 17 18 19 22 24 25 26 26 27
22 24 25 30 32 29 30 29 30 30 29 28 25 28 27 26 29 22 20 20 18 17 18 17 15 15 15 11 15 14 13 13 13 15 17 19 21 21 22 23 22 22 22 23
27 21 16 18 20 24 25 24 23 24 25 23 19 19 19 16 16 8 5 7 10 13 12 10 9 9 11 11 11 12 13 14 15 16 17 17 17 17 17 19 21 24 26 29
22 22 22 25 24 22 20 20 18 17 19 21 19 14 13 9 7 7 7 5 8 9 9 7 5 6 7 9 10 10 11 11 11 12 13 15 18 20 23 25 28 30 31 33
14 13 13 14 14 13 12 12 11 11 11 5 1 1 1 1 3 3 2 2 3 3 3 4 5 6 7 8 9 11 14 15 17 19 20 22 23 25 26 27 28 28 29 30
3 3 2 1 1 2 5 8 8 6 7 7 7 5 6 6 7 6 6 6 6 6 6 7 9 12 14 16 17 18 19 20 21 22 23 24 24 24 25 26 27 28 29 30
12 12 12 13 12 12 14 14 13 13 11 9 7 7 8 6 6 6 6 8 10 11 12 14 15 16 17 18 19 20 21 22 22 22 21 22 23 23 23 24 25 26 26 27
15 14 14 14 13 12 11 9 8 7 5 5 6 8 9 11 13 13 13 14 14 15 16 18 19 19 20 19 19 19 19 19 19 20 20 20 21 21 22 23 23 24 25 26
10 9 7 6 7 7 6 6 7 8 9 9 10 11 12 13 14 15 15 16 17 18 19 19 18 18 18 17 18 18 18 18 18 19 19 20 21 21 22 22 23 24 25 26
4 3 3 4 5 6 8 9 9 10 11 12 13 14 15 16 16 17 18 18 18 18 17 17 16 17 17 17 17 17 18 19 20 21 21 22 22 22 23 23 23 24 25 25
4 6 7 8 9 10 10 11 12 13 14 15 16 17 18 18 19 18 18 17 16 15 15 16 16 16 17 18 19 19 20 21 22 23 23 23 23 23 23 23 23 23 23 23
8 9 10 11 12 12 13 14 14 15 16 17 17 18 17 17 15 13 12 13 14 14 15 16 17 18 19 19 20 21 22 22 23 23 23 23 22 22 22 22 22 22 22 22

GFSNGP_700_spd_054.txt.gz
Wind_Speed
4 3 4 8 11 9 10 10 10 13 13 13 13 13 19 22 23 26 28 24 21 18 19 20 21 23 29 28 29 30 30 30 32 32 32 33 32 29 30 33 34 35 37 39
7 6 8 10 11 12 14 14 16 19 22 17 16 14 15 15 22 22 22 27 25 26 24 21 21 24 20 26 30 34 31 27 26 26 29 29 28 25 23 28 32 36 40 41
12 10 8 12 19 18 16 15 14 15 14 15 17 17 20 18 20 26 29 28 28 28 28 25 23 28 25 24 29 30 28 29 28 29 29 28 28 27 26 26 27 29 37 40
7 7 7 8 11 14 14 13 11 12 14 12 13 16 22 20 26 27 32 34 32 31 31 31 29 30 29 32 31 35 32 27 31 32 34 32 32 32 30 31 32 29 31 37
8 18 12 13 11 12 9 8 7 1 6 10 14 20 13 15 21 27 29 36 41 37 37 37 35 36 34 37 35 32 37 33 32 37 37 37 37 39 37 34 33 30 30 35
9 10 6 6 14 11 13 4 6 8 9 13 16 14 13 18 23 32 31 29 35 42 43 39 38 37 41 40 42 42 40 38 39 37 41 43 43 44 40 37 33 30 30 33
21 11 7 14 9 9 7 5 6 9 12 16 17 16 24 21 24 28 32 32 26 29 46 45 40 39 31 33 38 42 42 44 43 45 41 41 44 47 45 38 34 32 33 35
19 11 8 9 15 9 9 8 13 17 18 23 23 26 30 33 29 28 34 36 34 30 29 44 51 47 40 33 30 37 41 43 43 41 45 44 45 48 42 35 36 37 36 39
14 12 7 9 8 14 13 19 24 29 29 31 30 30 32 35 37 37 35 39 37 31 32 32 42 54 52 42 37 34 34 35 39 45 44 46 43 41 40 43 41 40 39 41
12 14 12 15 18 24 25 26 25 20 19 21 24 27 29 33 37 41 35 37 30 21 26 28 31 43 53 49 41 43 46 43 40 41 39 37 36 39 39 41 40 36 39 35
19 19 18 19 27 27 25 25 22 23 26 31 29 28 33 32 36 39 31 25 13 11 15 18 17 27 37 44 44 45 42 41 38 34 33 34 39 39 38 35 32 33 32 30
17 18 19 18 24 27 28 30 32 32 32 30 27 26 30 28 25 33 32 34 22 12 12 17 12 12 17 21 22 24 26 29 34 38 40 35 34 33 32 33 32 30 30 30
25 22 23 23 23 26 27 27 28 28 27 25 25 25 28 30 29 30 32 39 29 21 17 16 11 11 11 13 20 21 25 25 26 27 28 34 37 33 26 28 29 29 30 30
24 18 22 29 25 24 26 26 23 20 20 21 23 26 32 27 26 28 27 33 33 25 15 17 9 13 15 20 22 26 22 25 26 24 23 22 20 19 21 22 22 22 23 23
28 27 27 28 31 32 25 18 19 23 28 28 28 29 32 28 23 27 28 30 29 27 14 16 10 13 12 12 15 18 18 16 16 14 15 17 17 18 18 18 18 19 21 23
27 28 29 30 32 30 25 28 28 30 32 30 29 28 32 29 26 28 26 26 28 25 19 17 14 15 14 15 14 14 14 13 12 12 12 13 13 15 17 19 21 23 24 25
28 32 31 32 28 26 28 29 29 22 22 23 24 25 26 28 23 16 15 17 14 11 10 12 7 4 5 7 6 7 9 10 11 11 13 15 17 19 20 20 20 20 19 20
28 26 26 28 28 25 24 22 21 23 22 19 19 18 16 17 14 10 6 5 2 2 6 7 4 3 4 5 6 7 8 10 11 12 14 14 14 14 14 16 18 20 22 25
21 20 21 21 24 24 23 20 18 16 15 15 12 10 8 7 5 3 2 2 3 4 4 0 0 1 3 4 5 6 6 7 8 10 11 13 15 17 19 21 23 24 26 27
14 14 11 9 9 10 9 9 7 6 6 3 2 2 2 2 2 2 4 5 4 4 3 4 5 5 6 7 8 10 12 13 14 15 16 18 19 20 21 22 22 23 24 24
5 3 1 2 4 5 6 7 8 7 8 9 8 6 5 5 5 5 3 3 4 6 8 9 11 12 12 13 13 14 15 16 16 17 17 17 18 18 18 19 20 20 21 22
8 9 10 11 10 10 11 12 11 10 9 8 5 4 4 4 5 6 8 10 11 11 11 11 12 13 14 15 15 16 16 16 16 15 15 16 16 17 18 18 19 20 20 21
14 13 13 12 11 9 9 7 5 4 3 4 6 8 9 9 10 10 11 12 13 14 14 14 15 15 15 15 15 15 15 14 14 14 15 15 16 17 18 18 19 20 20 21
9 8 6 5 4 4 3 5 6 6 7 7 8 9 10 12 13 13 14 14 15 14 14 13 13 14 13 13 13 13 13 14 14 15 16 17 18 19 20 21 21 21 22 22
3 2 2 4 5 5 6 7 8 9 10 11 12 13 14 14 15 15 15 15 14 14 13 13 13 13 14 14 14 15 16 17 18 19 20 20 21 22 22 22 22 22 22 22
3 5 7 8 8 9 11 12 13 13 14 15 15 15 16 15 15 14 12 11 11 11 12 12 13 13 14 15 16 17 18 19 20 21 21 22 23 23 23 23 23 22 22 22
9 10 11 12 12 13 14 14 14 15 15 16 16 16 15 14 12 11 11 11 12 12 13 14 16 17 18 19 20 21 22 22 23 23 24 24 24 24 24 23 23 22 22 22

GFSNGP_700_spd_057.txt.gz
Wind_Speed
17 9 8 12 19 14 16 18 15 17 14 14 12 12 14 14 16 23 18 17 18 11 11 11 21 20 20 23 32 27 30 31 28 29 31 33 33 33 34 32 33 35 36 36
8 8 7 9 13 17 17 17 18 19 19 18 17 14 12 15 16 19 23 26 26 25 24 21 12 22 24 25 28 36 35 34 32 34 32 34 37 39 40 40 36 37 37 37
6 8 8 12 19 18 17 17 15 17 12 6 7 10 13 17 18 18 21 26 31 30 29 27 27 19 23 25 29 29 32 38 40 39 34 33 32 36 37 37 35 32 33 34
8 6 4 7 3 9 17 16 15 13 10 7 8 10 13 12 11 16 28 31 33 39 39 34 31 32 32 29 31 35 32 33 38 39 35 35 35 36 34 35 34 34 35 35
11 12 11 8 5 11 10 8 9 7 5 4 5 8 5 7 17 20 23 30 36 37 43 46 41 35 34 34 33 33 37 34 36 39 39 41 40 39 39 40 41 41 41 41
9 14 11 11 8 11 8 10 10 5 3 4 6 5 9 17 18 16 20 26 35 39 41 37 48 47 43 38 36 34 35 38 39 42 44 42 40 43 45 48 50 49 46 44
20 14 11 13 10 4 14 8 7 2 2 6 7 10 15 17 20 24 25 28 31 34 41 44 39 44 49 49 43 40 37 34 43 45 45 47 47 45 46 50 53 52 51 50
24 16 16 8 13 10 9 4 1 3 9 17 15 15 15 21 25 28 31 33 29 32 38 44 45 41 41 51 57 52 44 40 39 44 50 52 53 52 50 46 48 54 54 48
18 19 5 5 11 11 14 11 14 18 20 22 17 13 16 18 22 27 33 35 39 41 35 39 43 43 44 41 48 57 53 51 46 42 43 46 47 52 53 50 55 56 48 43
13 16 15 10 4 15 15 19 22 25 24 23 24 23 25 25 26 28 30 33 36 35 41 38 41 39 41 43 40 48 57 55 54 48 43 39 43 47 48 49 47 43 47 49
13 11 9 5 11 23 22 25 27 27 27 29 29 29 31 29 27 27 29 31 31 34 41 41 37 35 31 35 37 42 45 46 54 46 43 36 37 35 36 40 42 46 46 45
9 14 15 9 15 21 22 25 26 29 31 33 35 33 31 29 29 29 34 32 31 33 36 33 30 29 24 24 26 25 32 34 35 47 38 34 39 39 41 41 42 40 39 36
18 14 13 19 26 25 23 27 25 26 27 28 29 25 23 23 26 31 34 31 30 32 32 30 35 30 23 26 23 18 23 28 30 40 42 39 37 42 38 40 40 35 35 35
22 22 24 20 24 24 28 27 29 32 29 26 23 25 26 29 31 33 33 31 33 34 30 26 34 32 23 13 18 7 17 22 24 28 26 29 14 20 21 17 17 16 17 17
21 20 27 28 26 26 27 28 31 31 28 27 25 29 33 34 33 31 30 27 33 35 26 21 24 24 17 9 4 6 7 5 5 8 12 14 18 14 14 15 16 15 15 17
23 24 26 29 30 27 29 30 29 26 28 31 32 29 28 28 27 28 25 26 23 22 19 15 14 13 12 9 6 6 11 12 11 8 8 9 10 10 12 13 15 17 19 21
24 26 27 30 33 32 31 27 25 24 24 27 25 25 24 23 24 20 16 14 14 9 8 6 6 4 5 6 7 5 4 5 7 7 8 10 13 14 14 16 17 18 19 20
27 27 27 26 26 23 24 25 23 22 22 23 25 22 18 16 14 11 8 6 6 6 7 8 7 6 6 6 6 7 7 8 8 9 10 11 11 13 14 15 16 18 20 22
17 18 20 20 19 19 20 20 20 20 19 17 15 11 10 8 6 5 4 2 5 6 8 7 6 6 6 7 7 8 8 9 11 12 13 14 15 16 17 18 20 21 23 24
14 15 16 14 13 12 14 12 9 8 7 7 3 2 1 2 3 2 2 2 4 4 5 5 5 7 9 10 11 12 12 13 14 14 15 16 17 18 19 19 20 21 22 23
8 8 7 4 2 2 2 3 4 4 4 5 4 3 2 1 2 2 4 5 8 10 12 12 12 12 13 14 14 15 15 15 15 16 16 16 16 17 17 17 18 18 19 20
3 3 5 7 7 7 8 8 8 7 6 5 2 1 4 6 8 9 10 10 11 12 13 15 16 16 17 17 17 17 16 16 16 16 16 16 16 16 16 17 17 19 20 20
10 10 10 10 8 7 5 4 3 3 4 6 7 9 10 10 11 12 13 14 15 15 16 16 16 16 16 16 15 15 15 15 15 15 15 15 16 17 18 19 20 21 21 22
8 6 5 3 2 2 4 6 7 8 9 10 11 13 14 14 15 16 16 17 17 17 16 15 15 14 13 13 13 13 14 14 15 16 17 18 19 20 20 21 21 22 22 23
3 1 2 5 7 8 9 10 12 13 14 16 16 17 18 18 18 18 18 17 16 15 14 13 13 13 13 13 14 15 16 17 18 18 19 20 20 21 21 22 22 22 23 23
4 6 8 10 11 13 14 15 16 17 18 18 18 18 18 18 18 17 15 14 13 12 12 11 12 13 14 15 16 17 19 20 20 21 22 22 23 23 24 24 24 24 24 24
10 12 13 15 16 17 18 18 19 19 18 18 18 18 17 15 14 12 11 11 11 11 12 13 14 15 17 18 20 21 23 24 25 26 26 27 27 27 27 27 27 26 25 24

GFSNGP_700_spd_060.txt.gz
Wind_Speed
19 17 16 17 23 21 22 24 16 19 19 17 11 3 8 7 5 7 7 9 17 16 16 14 10 12 14 25 24 20 26 34 31 29 27 28 28 28 29 31 33 33 33 33
12 9 8 11 10 21 18 21 11 12 15 7 10 15 9 7 10 11 10 14 21 19 23 23 25 22 17 16 26 32 27 29 33 37 35 33 34 35 36 35 36 37 37 37
5 6 9 12 15 15 13 11 10 14 10 7 4 3 4 6 12 9 16 22 25 25 26 25 23 20 27 28 28 21 33 29 30 37 41 39 38 40 39 38 40 42 44 44
9 7 5 7 4 12 16 12 15 15 11 5 6 3 3 7 8 15 20 24 26 27 28 31 33 33 27 26 29 29 25 34 32 32 34 40 46 46 42 40 39 39 41 44
6 8 8 5 7 4 7 11 14 10 10 7 3 2 1 1 11 14 17 22 24 24 25 28 35 37 37 34 34 32 34 29 34 37 37 36 41 46 42 43 42 40 41 43
10 5 3 7 6 12 8 4 11 11 10 6 3 5 0 5 10 16 17 20 19 23 27 29 32 36 39 39 38 37 39 40 36 34 42 40 39 39 43 47 47 46 45 46
24 14 8 10 6 10 8 6 12 10 8 8 9 5 10 11 14 19 22 20 22 23 24 27 30 34 39 42 41 41 37 37 41 40 42 44 41 43 44 50 49 48 49 52
21 16 15 9 6 7 11 15 14 8 5 11 5 6 8 9 14 26 24 25 25 26 28 28 29 32 36 41 43 43 42 41 39 42 45 46 45 42 49 50 50 52 52 49
16 21 4 7 12 13 13 14 6 3 5 8 10 13 14 14 21 21 24 25 26 28 29 31 33 35 36 39 44 43 39 41 44 39 46 47 49 47 44 45 52 50 52 50
16 12 15 10 10 15 14 12 12 14 16 17 18 20 23 25 26 27 26 26 28 29 32 33 35 38 41 42 41 44 42 39 44 46 43 48 48 49 47 49 49 46 47 48
11 12 12 23 9 14 9 9 12 18 20 22 24 27 30 31 29 26 25 27 29 32 36 36 34 37 41 43 39 40 43 39 40 40 39 42 45 47 49 47 41 43 51 52
6 7 8 7 6 1 9 12 16 20 22 23 24 27 29 29 27 26 25 27 29 33 35 36 36 37 40 37 34 32 36 29 33 31 31 32 38 44 47 47 45 42 47 48
8 4 7 15 16 12 18 20 23 26 26 26 29 33 32 30 28 28 29 32 34 36 36 34 33 34 35 32 28 30 32 21 23 26 28 33 36 39 41 44 45 50 33 41
10 11 19 24 24 19 19 22 26 26 26 26 30 34 33 30 31 34 36 37 36 36 34 35 33 30 28 27 23 18 20 13 11 9 12 7 6 11 14 18 17 11 4 3
17 19 19 19 20 24 24 23 27 28 28 31 31 31 33 29 31 34 31 29 29 29 28 26 24 22 19 15 12 10 9 7 3 4 1 2 3 3 2 3 1 3 2 6
17 23 24 22 23 25 25 26 30 33 32 30 28 27 28 29 28 29 27 26 24 21 19 17 15 13 8 8 7 8 7 6 5 6 5 4 4 3 4 5 7 8 7 8
23 24 24 23 23 25 25 26 27 27 27 27 26 24 22 21 22 22 21 18 15 14 12 11 11 10 8 7 7 7 8 8 8 8 9 9 10 12 13 13 13 13 14 15
26 24 23 23 24 22 24 24 22 22 23 22 21 20 17 15 14 13 11 9 8 9 9 11 11 9 8 8 8 9 9 9 10 11 12 13 13 14 15 16 18 20 20 20
20 18 16 17 19 19 19 19 18 15 13 12 12 9 8 7 7 7 7 7 7 7 8 8 8 8 9 10 12 13 13 13 14 15 15 16 17 17 17 18 18 19 20 21
13 14 15 15 14 13 11 10 7 6 5 4 3 2 2 3 4 5 5 5 5 6 8 10 12 14 15 15 15 16 17 17 17 17 18 18 19 19 19 19 20 20 20 21
9 10 8 6 4 3 3 3 4 5 4 4 3 3 3 4 4 6 8 10 12 14 15 15 15 17 17 18 19 19 19 19 19 19 18 18 19 19 18 18 18 18 18 19
3 1 2 5 7 7 7 7 7 5 4 4 4 6 8 10 12 13 14 14 15 16 18 18 19 20 20 20 19 19 19 18 18 17 16 16 15 15 16 17 18 19 20 20
6 8 8 7 6 5 4 3 4 6 7 9 10 11 12 14 15 16 17 18 19 19 19 19 19 19 19 19 18 17 16 15 15 15 15 16 17 18 18 19 20 20 21 21
7 5 4 3 4 5 7 8 9 10 12 14 15 17 17 18 19 20 20 20 20 19 19 18 17 15 14 13 13 13 13 14 15 16 17 18 19 20 20 21 22 22 23 23
2 2 4 6 8 10 11 13 14 15 17 18 19 20 21 21 21 21 20 19 18 17 15 14 13 13 12 13 13 14 15 17 18 19 20 21 22 22 23 24 24 25 25 25
5 7 10 12 13 15 16 18 19 20 21 21 21 21 21 21 21 20 19 18 16 15 14 13 13 13 13 14 16 18 19 21 22 23 24 25 26 26 26 26 26 26 26 25
10 12 14 15 17 19 21 21 22 21 21 22 21 20 20 19 18 16 15 14 13 13 12 12 12 14 16 18 20 22 23 25 25 26 27 27 27 27 27 27 27 26 26 25

GFSNGP_700_spd_063.txt.gz
Wind_Speed
19 18 13 14 12 18 22 25 17 14 21 10 25 8 9 11 8 11 14 19 18 14 11 10 14 16 17 19 21 20 19 17 20 24 27 28 29 28 29 30 30 31 31 32
18 14 13 11 13 17 21 17 31 17 13 11 12 25 14 9 15 16 14 10 13 19 20 21 18 15 15 14 22 26 28 25 23 21 26 29 32 35 35 35 35 37 36 36
4 10 11 11 12 17 16 21 15 20 8 4 9 10 10 9 10 11 14 19 21 19 19 18 21 23 25 24 18 17 24 31 31 26 28 28 32 36 37 39 42 43 43 43
11 15 3 8 4 17 20 15 8 13 8 13 16 14 13 6 4 12 18 20 17 18 18 17 20 21 24 24 25 28 26 25 30 37 33 30 34 35 37 42 45 46 46 46
7 6 18 17 7 3 15 10 10 13 11 17 17 14 9 5 10 16 17 17 19 21 20 20 17 17 18 20 24 27 28 33 34 37 39 39 41 41 37 38 42 45 47 48
9 5 4 5 7 7 1 7 10 14 18 15 15 12 8 4 15 18 19 15 20 25 25 25 23 22 20 21 21 21 24 28 31 35 39 42 45 47 47 41 41 42 45 47
27 11 8 11 11 8 8 8 9 18 19 17 16 11 11 14 13 17 15 17 19 23 26 27 26 26 26 27 27 26 28 28 30 34 38 41 42 44 46 47 46 47 47 46
26 14 14 12 14 9 11 15 19 19 20 20 17 14 16 17 16 17 19 21 22 23 24 25 26 28 30 31 33 35 37 36 35 33 37 42 43 42 48 50 50 48 46 44
21 25 7 13 19 15 20 19 24 23 17 17 15 14 15 15 16 20 23 24 26 27 28 28 29 31 33 35 35 35 36 37 39 42 39 39 43 43 42 52 51 52 51 48
16 14 22 16 20 18 22 23 21 17 10 12 13 14 15 18 21 23 25 26 27 28 29 29 30 33 34 34 35 36 38 40 40 42 42 44 41 42 46 47 51 49 52 53
16 12 16 16 15 21 20 15 13 8 6 7 10 13 16 18 22 24 25 26 26 27 28 29 29 30 31 30 31 33 35 37 37 36 40 36 34 38 42 47 49 49 47 52
8 2 25 16 9 7 2 3 5 9 10 12 15 17 19 21 23 26 27 27 28 30 32 34 34 34 33 32 32 31 31 32 26 27 28 30 30 31 31 33 39 42 46 53
7 11 4 4 10 16 11 11 11 14 15 16 18 20 23 26 26 27 28 28 27 29 31 31 31 31 30 28 26 25 23 24 24 22 19 20 15 16 21 26 34 42 45 39
5 8 3 11 9 11 14 13 16 17 18 19 21 23 26 27 28 27 26 26 27 27 27 26 25 23 23 21 19 17 17 17 16 14 14 13 12 11 8 6 6 5 4 5
14 15 15 14 17 17 18 19 19 20 22 24 26 28 28 27 25 24 23 22 21 21 21 20 19 19 18 14 12 12 12 11 11 11 10 9 8 8 7 7 6 4 2 0
15 13 14 20 21 16 17 20 19 21 22 23 23 23 23 23 22 19 18 17 16 16 16 16 16 14 13 12 11 11 12 11 11 11 11 11 10 9 9 9 9 8 7 6
19 21 22 24 23 20 20 21 21 22 24 23 21 21 19 18 17 15 14 13 13 12 12 12 13 12 12 10 9 9 9 9 9 9 10 11 12 12 12 12 12 13 12 13
20 22 20 20 19 16 16 17 20 22 21 20 18 16 14 13 11 10 9 9 9 9 9 9 9 8 8 8 9 9 11 13 14 14 15 15 15 15 16 16 16 15 14 13
15 16 17 17 17 17 17 17 17 16 14 11 9 7 5 4 4 5 6 6 7 6 6 7 8 9 11 13 14 15 15 15 16 17 17 18 18 19 18 18 18 18 18 16
15 15 14 14 13 12 10 9 8 6 4 3 2 2 3 4 4 4 4 5 6 9 11 13 14 15 16 16 17 17 18 17 17 18 19 19 18 18 18 18 18 18 17 16
10 9 7 3 3 2 2 2 3 5 5 4 5 5 5 4 5 7 10 11 13 14 16 17 17 18 19 19 19 19 18 18 17 16 16 16 17 17 16 15 16 17 17 18
2 2 2 4 5 7 7 7 6 5 5 6 7 8 9 10 12 13 14 15 17 18 19 20 20 20 20 20 19 19 18 17 16 14 13 13 14 15 16 17 18 19 19 19
5 7 8 8 6 4 4 4 5 7 8 10 11 12 14 15 16 17 18 19 20 20 20 20 20 20 19 18 17 17 16 15 15 15 16 16 16 17 17 17 18 19 20 21
7 6 4 2 2 4 6 8 10 11 13 15 16 18 18 18 19 21 21 20 21 20 20 19 18 17 16 15 14 14 13 14 15 16 17 18 19 19 21 22 23 24 24 24
2 1 3 5 8 10 12 14 14 16 17 18 19 21 22 21 21 21 21 20 18 19 18 16 15 14 13 12 12 12 14 15 17 18 19 21 22 23 24 25 25 26 26 26
5 8 10 12 14 15 17 18 19 20 20 19 19 20 21 21 20 20 20 19 18 16 15 14 13 12 11 12 14 15 17 19 21 22 23 24 25 24 25 25 25 25 25 25
11 13 14 16 18 20 20 22 21 21 24 22 21 21 21 21 20 19 18 16 15 15 14 13 12 13 14 15 17 19 21 22 23 24 24 24 24 23 23 22 22 22 22 22

GFSNGP_700_spd_066.txt.gz
Wind_Speed
13 17 20 16 19 20 26 30 16 17 24 17 12 13 15 9 8 4 8 14 15 14 12 13 15 16 17 18 17 17 18 18 17 15 14 14 17 23 26 28 29 29 30 31
11 5 10 19 15 17 17 22 28 28 27 23 21 14 8 13 13 16 7 10 7 6 8 8 9 11 14 17 21 23 21 23 24 23 24 25 25 24 22 24 30 35 36 36
5 11 17 12 18 17 18 20 23 18 21 20 10 26 12 15 12 13 11 8 9 7 6 13 16 14 15 18 19 22 25 26 29 32 32 31 30 32 33 31 30 33 36 41
8 16 3 4 6 14 18 11 12 23 21 17 10 14 23 8 11 12 9 9 14 14 11 12 10 11 14 18 17 20 23 25 28 31 33 35 38 39 37 35 37 37 37 38
6 9 17 26 8 10 5 9 13 10 16 20 29 26 18 15 12 10 8 8 11 10 10 12 12 11 11 10 13 16 18 21 27 31 34 37 39 43 43 42 42 41 41 43
8 4 4 4 5 9 7 3 10 13 29 27 30 29 21 13 10 9 8 11 11 14 14 14 14 15 14 14 14 16 16 19 22 23 27 36 41 45 43 43 44 45 46 45
23 12 12 16 17 17 4 5 21 23 37 39 32 21 19 16 11 9 12 17 18 17 18 19 18 19 20 19 20 21 22 24 25 25 26 29 30 37 46 51 51 46 47 50
20 10 11 16 8 9 5 14 14 23 25 25 24 20 15 10 9 12 13 16 20 22 22 22 23 24 25 27 28 30 30 30 29 30 32 32 31 32 35 40 48 54 55 55
11 11 9 9 19 18 13 11 19 16 17 12 12 11 11 12 12 12 14 17 21 23 25 25 25 26 27 29 30 31 33 34 35 35 36 37 38 38 37 36 40 48 54 56
15 16 15 19 11 19 20 22 21 16 13 14 15 14 14 15 18 20 19 21 23 24 24 25 25 26 28 30 31 31 31 33 34 35 36 37 38 40 41 40 38 44 49 49
14 17 16 20 18 21 25 22 21 18 12 11 15 14 13 14 16 18 21 21 22 23 24 25 26 28 29 30 32 33 33 33 34 35 37 38 38 36 36 37 33 32 33 39
12 15 8 18 16 13 5 17 14 9 3 4 8 10 13 15 17 19 20 21 22 22 23 23 25 25 25 25 26 27 28 29 30 30 31 31 29 25 24 24 26 30 32 32
13 17 9 7 8 7 6 6 6 6 4 7 11 13 16 18 18 19 21 22 22 22 23 24 24 24 23 23 23 23 24 23 21 21 20 21 22 25 21 18 19 18 14 11
5 3 4 9 8 9 6 5 7 10 12 12 14 16 18 20 21 21 21 21 22 22 22 22 21 21 21 20 20 19 18 19 18 17 17 17 15 15 17 15 13 10 7 6
4 6 6 4 6 9 11 12 15 14 15 16 17 17 18 19 18 18 18 19 19 19 19 18 18 18 18 17 15 16 16 15 15 14 13 12 12 13 12 12 12 11 9 7
11 9 8 11 15 15 15 15 15 15 17 18 17 17 17 16 16 16 16 16 16 16 15 14 14 15 14 14 13 13 13 12 12 12 12 11 11 11 11 11 11 11 12 12
15 16 14 15 18 17 15 14 14 15 15 16 15 14 14 14 13 12 11 12 12 12 12 12 12 11 11 10 10 10 11 12 13 14 15 15 15 15 16 16 16 17 18 18
13 17 17 14 14 14 13 12 13 13 12 11 10 10 10 8 7 7 7 7 8 8 8 8 8 8 8 10 11 12 14 15 16 17 18 18 18 19 19 19 18 16 16 16
13 15 16 17 16 14 13 10 9 7 6 5 4 3 2 3 3 4 4 5 5 5 6 7 10 12 14 15 16 16 18 18 19 20 20 21 21 20 20 20 19 18 17 16
16 16 15 14 12 9 7 5 4 3 2 2 4 3 2 2 2 3 4 6 8 10 12 14 15 17 18 18 19 20 20 20 20 20 20 20 20 20 19 17 16 16 16 16
11 9 7 5 3 2 1 2 4 7 7 6 4 2 3 6 8 10 12 13 14 16 17 18 19 20 21 21 21 21 20 20 20 19 19 18 18 17 17 17 16 16 16 17
3 3 3 4 5 6 6 6 5 3 1 3 5 8 10 12 13 15 16 18 19 20 20 21 21 21 22 21 21 20 19 17 16 16 15 14 15 16 17 18 19 20 21 21
4 6 7 7 6 4 1 1 3 6 8 9 11 13 15 17 18 19 20 22 22 22 22 22 22 21 20 19 18 17 16 15 14 14 14 15 16 17 18 20 21 22 23 25
7 6 4 2 2 4 5 7 10 12 14 15 17 17 19 20 21 22 22 22 22 22 22 21 20 19 18 17 16 15 14 14 14 15 17 18 20 23 24 25 25 26 27 27
3 3 4 6 8 10 12 14 15 16 18 19 21 22 23 23 23 23 21 21 22 21 20 19 19 18 18 15 15 15 16 17 18 20 21 23 24 25 26 26 26 26 27 27
6 8 10 12 14 15 17 18 19 19 20 20 21 21 21 22 21 21 21 21 20 19 19 18 16 15 15 15 15 16 18 20 22 23 24 25 25 25 25 24 23 22 21 21
12 14 16 18 20 22 22 23 23 23 22 20 20 21 21 21 21 21 20 19 18 17 16 17 16 16 16 16 18 19 21 23 24 25 24 24 22 22 21 20 19 18 18 17

GFSNGP_700_spd_069.txt.gz
Wind_Speed
12 13 16 19 20 18 14 16 9 19 18 22 23 23 9 8 9 8 16 14 19 26 26 27 26 23 22 20 17 16 18 17 16 16 17 16 18 19 21 21 22 24 25 25
15 11 9 17 16 19 18 15 22 30 26 14 14 6 14 12 8 8 6 10 16 12 9 11 10 10 10 13 16 18 18 21 21 22 22 22 23 25 24 24 26 28 30 31
6 10 22 15 3 9 17 22 20 23 27 25 23 22 15 19 16 14 11 7 8 9 1 3 3 5 9 15 19 22 25 26 28 28 28 28 28 29 29 29 32 33 34 36
8 15 3 6 12 11 12 13 17 15 16 17 13 18 17 21 17 10 4 4 8 8 7 5 6 12 16 19 16 18 21 23 25 28 29 29 31 33 34 34 34 34 35 39
5 8 15 21 6 10 13 12 15 16 18 20 23 23 23 21 15 12 7 4 2 0 1 3 7 11 11 12 13 14 16 19 21 22 24 28 32 34 35 36 37 39 39 39
7 4 4 3 10 11 20 19 14 19 7 20 24 33 27 18 14 12 10 1 2 2 4 4 5 8 11 12 14 16 16 18 20 21 23 24 27 29 31 36 40 43 45 46
24 11 12 21 19 12 10 11 13 17 18 16 19 18 26 20 13 11 7 8 6 6 8 10 11 11 13 15 16 17 19 20 21 22 24 26 28 29 30 32 36 39 40 44
12 9 11 19 16 14 13 15 11 10 23 33 23 26 25 19 12 8 7 8 10 12 15 16 17 18 18 17 18 19 20 21 22 24 25 26 27 29 31 33 35 37 39 42
9 7 11 7 3 8 14 11 10 20 29 27 31 24 20 14 7 7 9 10 13 17 20 20 21 20 20 21 21 23 24 26 27 27 28 29 30 31 32 33 35 37 39 42
9 14 13 14 16 11 13 14 14 14 13 5 8 10 3 1 6 11 16 19 22 21 20 19 19 21 22 22 23 24 25 27 28 29 30 31 32 32 33 33 34 36 40 42
7 10 10 10 10 11 18 18 19 14 8 5 5 6 8 8 10 12 15 17 20 19 18 19 19 18 20 21 21 21 22 23 25 26 27 28 28 28 29 31 31 32 34 38
9 9 12 11 14 15 17 23 20 16 11 6 7 8 10 12 13 15 16 17 18 19 19 18 18 19 18 18 19 19 20 22 23 24 25 26 27 27 27 28 28 27 23 25
9 14 10 7 7 11 8 3 2 7 5 5 7 12 11 11 15 16 17 17 17 17 17 18 18 18 17 18 18 19 21 21 21 21 22 22 23 23 23 22 20 19 19 17
7 6 5 5 3 6 2 3 6 7 8 11 13 13 13 15 17 19 19 18 18 18 18 17 17 17 17 17 17 18 18 19 18 18 18 19 19 19 18 17 16 15 15 13
1 4 4 3 2 4 7 7 9 12 15 15 17 16 15 16 17 17 17 16 16 16 17 16 16 16 16 16 16 16 17 17 17 16 16 15 15 16 16 15 15 16 16 16
7 10 10 9 11 12 12 13 13 12 15 16 17 17 16 16 16 17 18 17 15 15 14 14 14 14 15 14 14 14 14 13 14 14 15 16 17 17 17 17 17 17 18 18
14 14 12 13 15 16 17 15 14 12 13 15 15 16 17 16 15 16 14 13 13 12 11 11 11 11 11 11 11 11 12 13 15 16 17 19 19 20 21 21 21 21 21 21
17 16 16 16 15 15 16 16 15 15 14 13 13 12 12 12 12 12 11 10 10 9 9 10 10 10 10 12 13 15 16 18 19 20 21 22 22 22 23 23 23 23 22 21
9 10 12 14 15 15 14 13 14 12 10 8 7 7 7 7 7 6 5 5 6 7 9 10 12 14 16 18 19 20 21 22 23 23 24 24 23 23 23 23 22 22 21 20
10 10 10 10 10 9 9 8 7 6 5 4 5 5 3 3 3 3 5 7 10 12 15 16 18 19 20 21 23 24 24 24 24 24 24 23 23 22 22 21 20 19 19 19
9 8 5 3 2 2 2 2 4 6 6 5 4 3 4 5 7 10 12 14 15 17 19 21 22 23 24 24 25 25 24 23 23 23 22 22 21 20 19 18 19 20 20 20
4 3 2 1 2 4 5 6 5 3 2 4 6 9 10 11 13 15 17 19 20 22 23 24 24 25 25 25 25 24 23 23 22 21 20 19 18 17 18 18 19 21 22 23
3 3 4 4 4 3 2 3 4 6 8 11 13 15 17 18 20 21 23 23 24 24 25 25 24 25 25 25 24 23 21 20 19 18 17 17 18 19 20 21 23 24 25 25
6 5 4 2 3 6 7 9 10 13 15 17 18 20 21 22 23 24 24 24 24 25 25 24 24 24 24 23 22 21 20 19 18 18 18 20 22 23 24 25 26 26 26 26
2 2 4 7 9 11 13 15 16 18 20 21 22 23 24 24 24 24 24 25 25 24 24 23 23 22 21 21 21 20 19 18 18 19 21 23 24 26 26 26 26 26 25 24
5 7 10 13 15 17 17 18 19 20 20 21 22 23 23 24 24 23 23 22 22 21 21 20 19 19 18 18 18 18 18 19 20 22 23 25 26 26 26 25 24 22 22 22
11 14 16 18 19 20 21 21 21 22 22 22 22 22 22 22 21 20 20 20 20 19 20 21 20 20 19 18 18 18 20 22 23 25 26 26 26 26 25 23 22 21 20 20

GFSNGP_700_spd_072.txt.gz
Wind_Speed
7 7 10 10 12 15 17 19 10 5 8 14 13 21 12 6 13 15 13 13 14 19 22 33 31 30 25 19 15 15 16 14 12 11 13 12 13 14 15 16 16 18 19 19
8 7 10 18 17 18 18 20 24 18 24 20 12 12 10 10 15 7 16 20 19 16 14 10 11 11 19 23 15 20 15 15 14 13 14 16 17 17 18 19 20 20 19 20
2 10 18 12 2 12 12 14 18 22 20 19 17 23 22 20 18 15 11 13 17 19 16 11 8 4 3 3 6 8 11 14 17 19 20 19 20 20 21 22 24 26 28 29
3 10 1 5 9 13 15 15 14 14 17 6 9 18 18 14 16 22 18 14 13 15 16 9 9 4 3 7 9 11 15 17 19 21 23 24 26 28 29 29 28 29 30 31
2 4 13 19 2 6 10 16 15 13 16 18 19 13 21 16 18 15 11 10 15 13 9 8 4 1 5 9 10 11 12 14 15 17 18 19 21 22 24 27 30 33 35 37
5 2 4 4 5 9 15 21 9 10 16 20 19 21 24 24 24 18 11 13 15 13 8 1 3 3 6 9 11 13 15 15 16 17 18 19 21 22 22 24 25 27 30 33
19 9 11 22 23 21 10 10 19 17 13 14 22 22 23 13 18 18 12 11 9 6 2 2 6 8 10 12 15 16 17 18 19 21 22 23 24 24 25 26 25 26 28 31
11 7 10 12 9 10 12 19 19 11 8 13 17 14 28 25 23 18 12 11 5 4 4 5 8 11 14 14 15 15 17 18 19 20 21 21 23 25 26 28 29 30 31 32
10 7 11 8 3 2 8 15 18 11 12 26 20 19 27 23 19 15 11 4 3 5 8 12 13 13 13 14 15 15 16 17 18 18 19 20 21 23 24 25 27 28 29 30
9 20 19 17 12 8 9 15 13 13 6 5 13 6 2 1 4 5 4 5 10 10 10 13 14 14 15 14 14 14 15 15 16 16 17 18 20 21 21 22 22 24 26 27
4 3 8 9 8 8 9 12 11 7 11 15 5 9 9 7 5 4 7 10 11 11 12 13 15 16 16 16 16 16 17 17 17 17 17 17 17 18 19 21 21 22 23 23
7 9 9 8 7 8 8 7 6 10 7 5 3 5 4 4 4 9 11 10 11 11 13 15 16 16 17 17 17 17 18 18 18 18 17 17 18 18 19 20 20 20 21 20
11 11 9 9 6 5 4 2 1 4 5 7 5 4 6 8 10 14 13 12 12 14 15 16 16 16 16 15 15 15 16 16 17 17 18 18 18 18 19 19 18 18 18 18
12 10 5 3 2 2 2 1 4 7 7 8 9 9 11 12 12 14 14 13 12 15 16 16 16 16 16 16 15 16 16 16 16 15 15 15 15 16 17 18 18 18 19 19
2 3 2 3 5 5 6 8 8 10 14 14 15 16 14 16 15 14 14 14 14 15 15 15 15 15 14 14 14 14 14 14 14 14 14 14 15 16 16 17 17 19 19 20
6 6 8 9 10 12 14 14 14 13 13 15 16 16 15 15 16 16 15 16 16 15 15 14 13 13 13 12 12 12 11 11 12 12 14 15 17 18 18 20 21 21 22 22
11 13 14 14 13 14 16 17 17 15 14 12 13 15 14 13 15 15 14 14 13 13 12 11 11 11 11 11 10 11 12 14 16 17 18 20 21 22 23 24 24 24 25 24
19 20 20 19 18 18 16 15 15 14 14 13 13 14 13 12 12 12 11 11 11 9 8 8 8 9 10 12 13 15 17 19 20 22 23 24 25 25 26 26 26 26 25 24
14 12 13 12 13 14 15 15 14 14 14 12 11 11 10 10 8 8 7 7 6 6 8 10 11 13 15 17 18 20 21 22 24 24 25 26 26 26 26 26 26 25 24 23
14 14 14 14 14 15 14 13 13 12 10 9 8 8 7 6 5 5 6 8 10 13 15 16 17 19 21 22 23 24 25 25 26 26 26 26 26 26 25 25 24 23 21 21
12 12 12 11 10 9 9 9 9 8 8 7 5 5 5 6 9 11 13 15 17 19 20 21 22 23 24 24 24 25 25 25 25 25 25 25 24 23 23 22 21 21 21 22
5 5 5 5 6 6 6 7 7 7 7 7 8 10 12 14 15 17 19 20 22 22 23 23 24 24 25 24 24 25 25 25 24 24 23 22 21 20 20 20 20 22 23 24
2 3 3 4 4 3 3 4 6 8 9 11 13 14 16 18 20 20 22 22 23 23 24 24 24 24 24 24 24 24 23 23 22 22 21 20 19 19 20 21 23 24 25 26
4 4 3 3 3 4 7 9 11 13 15 17 18 20 21 21 22 23 23 24 24 24 24 24 24 23 23 23 23 22 21 21 21 20 20 20 20 21 23 24 25 25 25 25
1 2 5 7 9 11 14 15 17 18 19 21 22 23 24 25 25 26 25 25 25 25 24 24 23 23 22 22 21 20 20 19 19 19 20 21 23 24 25 25 25 25 24 24
6 8 11 13 15 17 18 19 19 20 21 22 23 23 24 24 24 24 24 24 23 22 21 21 20 19 18 18 18 18 18 19 20 21 22 24 25 26 26 25 24 23 23 23
12 14 16 18 19 19 20 20 20 21 22 22 23 23 22 22 21 20 20 20 20 20 20 20 20 20 20 19 18 18 19 21 22 23 24 25 26 26 25 25 24 23 23 22

GFSNGP_700_spd_075.txt.gz
Wind_Speed
7 4 4 4 8 9 13 16 11 13 17 11 14 16 12 5 14 13 14 10 8 13 20 24 29 35 36 32 25 18 17 16 13 12 12 11 11 11 12 11 12 12 14 13
4 2 3 9 9 9 8 7 18 19 21 12 13 17 15 9 5 4 15 21 21 19 16 18 20 27 28 28 24 22 20 17 14 16 14 12 12 13 13 12 13 14 16 17
1 2 8 8 8 6 9 7 11 15 16 17 21 11 15 17 15 9 11 22 22 20 21 22 22 20 19 22 24 23 26 22 19 14 12 12 12 14 15 16 17 18 19 22
3 4 3 3 5 8 7 8 12 14 14 15 13 18 20 14 12 13 17 16 15 22 19 16 15 15 14 11 10 11 13 13 11 11 13 14 16 18 20 22 23 23 24 25
1 3 12 11 3 1 6 11 13 10 10 13 17 14 14 16 18 21 22 26 25 21 12 18 17 12 8 9 7 6 5 5 7 8 11 12 12 13 16 18 19 21 23 26
4 2 4 3 6 3 11 13 2 13 18 14 16 19 20 17 20 17 15 21 25 24 21 14 10 9 8 4 6 6 8 9 10 12 13 15 15 16 17 18 19 21 23 25
14 7 8 13 15 18 9 10 15 15 15 12 13 17 22 28 28 19 18 19 19 17 16 13 11 5 1 3 6 8 10 11 13 14 16 17 18 20 20 21 21 22 23 25
8 7 7 5 3 3 7 12 15 15 17 10 12 16 18 21 18 21 22 19 16 11 8 7 7 7 4 7 9 10 11 13 15 15 16 18 19 20 21 22 22 22 23 24
7 5 10 9 4 5 9 8 9 11 13 17 17 16 19 21 20 20 18 18 11 9 7 6 6 7 7 9 11 12 12 13 14 15 15 16 18 19 20 21 22 23 24 25
13 19 27 18 15 9 7 9 10 10 9 11 6 8 5 4 5 10 14 10 5 5 5 6 7 9 9 10 11 12 13 13 14 15 15 16 17 18 19 19 20 21 22 23
4 2 4 8 5 4 5 7 7 4 7 6 5 8 9 7 6 6 5 3 5 8 7 8 9 10 10 10 11 11 13 15 16 16 17 18 19 19 19 20 19 19 20 20
6 6 5 4 4 3 1 2 4 1 4 5 3 4 5 6 7 8 6 4 7 8 9 10 10 11 11 11 12 12 13 15 15 15 15 16 16 17 17 18 18 17 18 18
3 4 4 7 6 5 3 3 2 1 1 2 4 5 6 6 5 3 5 8 12 12 12 12 12 12 12 13 13 13 14 14 15 16 16 16 15 15 15 15 15 15 16 16
11 10 5 4 2 1 1 1 3 5 6 7 6 6 7 9 9 9 11 13 13 14 13 12 12 12 13 13 14 14 15 15 16 16 16 15 15 15 15 15 15 15 16 17
4 1 3 3 2 4 5 6 7 9 10 11 12 11 11 12 13 13 12 11 10 12 13 13 13 13 13 14 14 14 13 14 14 14 14 14 14 14 15 16 16 17 18 19
3 4 6 7 8 9 12 12 13 14 13 11 11 10 11 11 11 11 12 12 11 11 11 12 12 12 12 12 12 12 12 12 12 12 13 14 15 17 18 19 20 21 22 22
9 12 13 14 17 16 16 16 15 14 12 12 12 11 10 9 9 8 8 9 10 10 10 10 10 10 10 9 10 10 11 12 13 14 16 18 19 21 22 22 23 23 23 23
16 17 17 16 16 16 16 16 14 13 12 11 11 11 10 10 10 9 9 8 8 7 7 7 7 8 9 10 11 13 14 16 17 19 20 21 22 22 23 23 23 23 23 22
14 14 13 12 12 13 13 14 13 13 12 10 8 7 7 7 7 7 7 7 7 7 7 8 10 12 14 16 17 18 19 20 20 21 21 22 22 23 23 23 23 22 21 20
12 14 15 16 16 15 14 12 10 8 7 6 5 4 4 4 4 4 5 7 8 10 12 13 15 17 19 20 20 21 21 21 22 22 22 23 23 23 22 22 21 20 20 19
13 13 12 11 10 9 8 7 7 6 5 4 4 4 4 6 7 9 11 13 14 16 18 19 20 21 21 22 22 22 22 23 23 23 22 22 22 21 21 21 20 20 20 20
8 8 8 7 6 5 4 4 4 4 5 6 7 9 11 12 14 16 18 19 20 21 22 22 22 23 23 23 23 23 23 23 23 22 22 21 21 20 20 20 20 21 22 23
3 2 3 2 2 2 2 4 5 7 9 11 13 15 16 18 20 21 21 22 22 23 23 24 24 24 24 24 23 23 22 22 21 21 20 20 19 19 19 20 21 22 24 24
1 2 1 1 3 5 7 8 10 12 14 16 17 19 20 20 21 21 21 22 22 23 23 23 23 23 22 22 21 21 21 20 20 19 19 18 18 19 20 21 23 24 24 25
2 1 3 5 7 9 12 14 15 16 17 18 19 19 19 20 20 21 21 21 21 21 21 20 20 20 20 20 20 19 19 19 18 18 18 18 19 20 22 23 24 24 25 24
3 6 9 11 13 15 16 17 17 17 18 18 19 19 19 19 19 19 18 18 18 18 17 17 17 17 17 18 18 18 17 17 18 18 19 20 21 22 23 23 24 24 24 24
10 13 15 16 16 17 17 17 18 19 19 19 19 19 18 17 16 16 15 15 15 15 16 16 16 16 17 17 17 17 17 18 19 20 21 22 23 24 24 25 24 24 24 24

GFSNGP_700_spd_078.txt.gz
Wind_Speed
12 10 6 7 9 9 10 11 10 11 15 17 17 17 18 14 12 4 11 12 11 17 22 19 24 35 41 42 38 28 23 20 18 18 18 18 18 17 17 17 17 17 18 19
10 10 12 11 10 9 8 6 10 13 15 12 13 15 16 12 9 13 7 19 17 14 16 22 25 32 32 36 33 28 25 23 19 18 18 17 16 16 16 16 16 16 18 21
8 9 7 12 12 7 5 5 6 9 12 13 13 18 15 15 15 12 10 17 25 27 25 23 22 25 26 27 26 24 24 25 23 19 17 19 19 19 19 18 18 18 19 19
6 3 6 5 1 3 3 3 5 8 10 11 12 14 16 14 11 11 9 8 16 25 25 27 27 29 26 26 27 28 30 27 28 30 27 19 18 17 18 18 18 19 20 22
2 5 5 3 1 1 1 3 7 2 10 12 12 17 8 12 12 18 15 12 13 22 26 22 19 20 21 21 20 21 20 21 27 28 19 18 17 16 16 17 18 19 19 20
3 1 1 3 7 5 5 6 8 5 11 14 12 17 18 20 15 20 23 24 16 18 19 22 28 24 20 20 18 17 15 11 13 13 12 13 13 13 14 15 16 18 19 20
8 4 4 10 11 12 8 5 9 15 15 14 11 16 20 22 22 21 18 18 22 26 23 18 13 9 11 8 6 7 4 7 8 9 14 16 15 16 16 17 19 20 21 22
6 4 3 4 2 3 5 9 10 11 9 11 8 12 16 16 19 16 17 20 19 19 17 13 11 12 12 10 9 6 6 7 8 11 14 15 16 17 17 18 19 20 22 23
2 2 7 8 6 7 10 8 8 9 9 8 7 8 10 13 16 16 19 18 14 11 10 9 8 9 10 10 11 11 12 14 13 13 14 14 15 15 16 16 17 18 18 19
6 12 16 20 20 17 12 5 6 5 1 11 3 4 2 5 7 8 10 17 8 6 4 5 6 6 6 7 8 9 9 10 10 11 11 11 12 15 16 16 17 18 19 19
8 7 4 6 5 4 4 3 3 3 4 5 6 8 9 8 8 9 11 17 14 10 3 5 5 6 7 7 8 9 11 11 11 12 13 13 14 15 16 17 18 19 20 20
8 10 6 1 1 3 3 3 5 4 1 0 1 2 3 3 4 5 9 11 5 4 6 6 7 8 8 9 10 10 12 13 13 14 15 15 16 17 18 19 19 19 20 20
8 8 3 3 4 4 4 3 2 1 0 1 2 3 4 5 6 7 6 8 9 7 9 8 8 9 9 10 11 11 12 13 14 15 15 16 16 17 17 17 17 17 18 19
10 10 7 5 4 2 1 1 1 2 4 5 7 7 7 7 7 8 8 8 10 12 13 11 11 12 12 12 12 12 13 13 13 13 14 14 15 15 16 16 16 16 17 17
6 5 3 1 2 3 4 4 5 6 7 8 8 10 11 11 12 12 12 12 13 14 14 12 12 13 13 13 14 13 13 13 14 14 13 14 14 14 15 15 16 17 18 19
3 0 3 6 7 8 9 10 11 11 11 10 9 9 9 10 11 12 13 14 14 14 14 13 14 13 13 13 13 13 13 14 14 14 14 14 15 16 17 18 20 21 22 23
5 7 10 12 13 15 16 14 13 13 11 10 10 9 9 9 10 11 12 12 13 13 14 14 14 13 13 12 12 12 12 12 13 14 15 17 18 20 21 22 23 23 24 24
12 13 15 15 15 14 12 11 10 10 10 9 9 10 9 9 9 10 11 11 12 12 12 13 13 12 12 12 13 13 14 16 17 19 20 21 22 23 23 24 24 25 25 26
12 12 12 12 12 13 14 14 13 11 10 9 8 7 7 7 7 7 7 8 8 9 9 9 10 11 13 14 16 17 19 20 21 21 22 23 23 24 24 25 25 26 26 25
10 11 12 13 13 13 12 11 9 8 7 6 6 6 6 6 6 6 7 7 8 9 10 12 14 16 17 19 20 20 21 22 22 23 23 24 25 25 25 25 25 25 24 24
10 10 9 8 7 7 6 6 5 4 3 3 3 4 5 6 7 9 10 11 13 14 16 18 19 19 20 20 21 21 22 23 23 24 24 25 25 25 24 24 24 23 23 23
7 6 5 5 4 3 2 2 2 2 3 4 6 8 9 10 12 13 15 16 17 18 19 19 20 20 21 22 22 23 23 24 24 25 25 24 24 24 23 22 22 22 22 23
5 4 3 2 2 3 3 5 6 8 10 11 13 14 16 17 18 19 19 19 20 20 21 21 21 22 23 23 23 23 24 24 24 24 24 23 23 22 22 22 22 23 23 24
1 0 1 2 3 5 7 9 11 13 15 17 18 19 19 20 20 20 21 21 22 22 23 22 23 22 22 22 22 22 22 22 23 23 22 22 22 22 22 22 23 24 25 25
0 2 4 6 8 11 13 16 17 18 18 19 19 20 21 21 22 22 22 22 22 22 21 20 20 20 20 20 20 20 20 21 21 21 21 21 21 22 22 23 24 25 26 26
5 7 10 12 14 16 17 18 19 19 20 20 21 22 22 22 22 21 21 20 20 19 19 19 19 18 19 19 19 20 20 20 21 21 21 22 22 23 24 25 26 26 26 26
10 12 14 15 15 16 17 18 19 20 20 21 22 21 21 20 19 18 17 17 17 17 17 17 18 18 18 18 18 19 19 19 20 21 21 22 24 25 25 26 26 26 26 25

GFSNGP_700_spd_081.txt.gz
Wind_Speed
24 28 13 12 15 22 19 13 11 13 15 15 11 10 14 18 14 14 14 12 16 16 20 24 29 30 31 35 39 40 38 32 24 21 20 19 19 17 17 16 16 16 18 19
27 23 18 12 8 10 11 11 12 11 10 6 10 14 15 15 12 12 13 11 17 20 20 21 22 27 28 31 35 37 37 30 25 22 19 18 19 19 19 19 19 19 19 19
21 21 12 8 17 15 10 7 7 9 11 11 10 11 15 19 14 17 14 14 16 22 25 25 24 23 29 32 35 34 30 28 26 24 22 20 18 17 19 19 20 21 22 22
27 23 11 8 4 7 6 5 1 4 9 11 11 9 12 17 12 14 17 14 12 18 25 28 30 30 30 31 32 36 35 31 29 27 26 24 19 20 22 21 20 20 21 21
10 17 10 11 7 5 2 6 2 4 7 15 13 13 13 6 9 13 14 13 10 10 16 25 32 32 35 36 35 34 34 34 33 31 32 30 29 33 21 21 24 25 25 25
17 4 5 12 4 0 2 7 9 8 7 11 16 16 15 15 16 20 16 14 13 13 12 12 17 25 24 24 21 22 31 29 20 28 33 33 32 35 18 20 19 20 20 20
11 4 8 5 8 4 6 3 11 11 15 14 13 14 16 16 20 15 14 14 12 14 14 14 11 12 13 18 21 17 12 8 8 20 13 12 17 18 16 15 17 18 19 19
7 3 2 4 3 1 2 6 11 12 13 12 12 10 12 16 14 10 10 9 12 14 12 11 8 4 4 3 10 10 9 5 3 4 6 10 11 14 15 15 17 17 18 18
3 6 2 4 8 7 7 12 12 12 12 7 2 3 4 4 5 9 11 9 11 15 10 3 3 4 3 3 1 2 2 2 5 6 7 8 8 10 12 16 19 20 19 19
3 5 9 11 13 10 13 13 9 8 6 4 8 6 3 4 5 7 9 9 8 4 1 2 3 4 5 7 7 7 8 9 10 9 9 9 10 12 14 14 15 16 16 16
8 8 7 10 7 4 2 6 4 1 3 5 6 4 5 4 3 4 6 9 12 7 4 2 4 4 4 5 5 6 6 7 7 7 8 9 10 11 12 12 13 14 15 16
6 6 9 6 4 2 3 3 4 2 2 3 2 1 2 2 2 2 3 6 11 13 5 5 5 5 5 6 7 8 8 8 9 10 10 10 11 13 14 15 16 17 17 18
6 7 6 4 4 3 2 0 2 2 2 3 4 5 5 5 5 6 4 5 6 6 6 6 7 9 8 8 9 10 10 11 11 12 13 13 14 15 15 16 16 17 18 19
5 8 7 5 4 2 1 0 2 3 5 5 6 7 8 8 8 9 9 9 8 7 7 9 10 10 10 10 10 12 13 13 14 14 14 14 15 15 16 16 17 17 18 19
4 3 5 3 3 3 4 5 6 7 8 9 9 9 9 10 12 12 12 12 11 10 10 10 11 11 12 11 12 12 13 13 14 14 15 15 15 16 16 17 18 19 19 20
2 2 1 2 4 6 7 9 10 10 10 11 11 11 11 10 11 12 12 12 12 13 12 12 12 12 13 13 14 14 13 13 13 13 14 14 15 15 16 17 19 20 21 23
6 5 6 8 9 10 11 11 11 11 11 11 11 11 12 13 13 13 13 13 13 14 14 14 13 13 13 14 13 13 13 13 14 14 15 15 17 18 20 21 22 23 24 25
9 10 11 12 13 12 11 11 11 11 11 11 12 13 13 13 14 14 14 15 15 14 14 14 14 14 14 13 13 13 14 15 16 17 18 20 21 22 23 24 25 25 26 27
9 9 9 9 10 11 12 13 13 13 12 12 12 11 12 12 12 13 13 14 14 14 14 14 14 13 14 15 16 17 18 20 21 22 23 24 24 25 26 26 27 28 29 30
8 9 11 12 13 13 13 12 11 10 9 9 9 9 9 10 10 11 11 11 12 13 13 14 16 17 18 20 22 23 24 24 25 25 25 26 26 27 28 29 30 30 31 31
10 10 11 11 10 9 8 8 7 7 6 6 6 7 8 9 10 11 12 13 15 16 17 19 20 22 23 24 25 25 26 26 26 27 27 28 29 29 30 30 30 30 30 30
9 9 8 7 6 5 4 4 4 5 6 6 8 9 11 13 14 15 17 18 19 20 22 22 23 24 24 25 26 26 27 27 28 28 29 29 29 29 29 29 29 29 28 28
7 6 5 4 4 4 4 5 6 8 10 11 13 15 16 18 19 20 21 21 21 22 23 23 24 24 25 26 26 26 27 27 27 27 27 27 27 27 27 27 27 27 26 26
2 2 2 3 5 7 8 11 13 15 17 18 19 20 20 21 22 22 23 23 23 24 25 25 25 25 25 25 25 25 24 24 24 24 24 24 24 24 24 25 25 25 25 26
1 3 5 8 10 12 15 17 18 18 19 20 21 22 23 24 25 25 25 25 25 24 24 23 23 23 22 22 22 22 22 22 21 22 22 22 22 23 23 24 24 25 26 27
5 8 11 13 16 18 19 20 21 23 23 24 24 24 25 25 25 25 24 24 24 23 22 21 21 20 21 21 21 21 21 21 21 22 22 23 23 24 25 26 26 27 28 29
11 14 16 17 18 19 21 22 23 24 23 23 25 25 25 24 24 23 22 22 22 22 22 22 22 22 22 22 22 22 22 22 22 23 23 24 25 26 26 27 28 28 29 29

GFSNGP_700_spd_084.txt.gz
Wind_Speed
28 31 22 24 28 18 22 21 15 11 10 8 9 5 8 12 19 13 10 11 10 11 15 18 20 20 25 24 26 29 35 38 36 33 26 22 22 18 17 16 15 12 11 11
30 25 22 28 25 12 16 20 10 13 7 9 4 2 12 14 15 12 13 14 13 11 15 17 20 24 25 29 28 28 30 36 37 32 27 25 23 20 19 20 19 17 16 15
22 19 21 18 23 15 11 9 11 5 2 5 10 10 14 13 15 9 11 16 13 11 13 20 23 22 24 31 29 29 28 29 33 31 30 27 25 24 19 20 20 20 20 20
14 13 7 18 12 14 11 5 4 10 8 8 8 9 9 10 8 10 13 14 16 16 11 19 26 29 29 30 30 31 30 32 31 30 28 25 24 22 18 18 18 19 21 22
6 10 25 21 13 11 9 7 2 7 5 12 10 13 11 12 10 11 16 16 14 14 10 13 19 26 30 33 34 32 35 36 33 32 33 31 30 28 26 19 25 25 21 20
10 3 4 7 8 3 6 7 8 10 10 10 15 15 12 12 13 13 14 12 13 12 11 7 6 2 17 25 29 33 35 36 42 36 41 39 35 33 33 33 35 32 21 22
20 14 6 12 9 9 2 4 10 12 13 13 15 16 13 11 12 12 12 8 7 11 11 9 8 12 4 9 5 9 17 17 23 17 31 16 22 23 30 32 33 31 14 15
13 9 6 13 7 8 6 3 10 15 16 17 12 10 9 9 8 6 6 9 9 7 7 7 6 7 9 7 9 4 2 1 5 5 4 14 4 7 7 6 9 12 16 18
10 7 10 15 11 6 4 9 14 14 12 12 7 3 1 1 0 2 3 3 5 8 9 4 2 2 2 3 4 5 4 4 3 0 4 7 6 4 4 4 7 9 10 13
8 9 11 15 14 8 6 8 9 9 7 7 7 7 6 3 0 2 4 4 5 6 6 5 4 4 5 5 4 4 3 1 2 2 1 1 3 3 5 6 8 12 13 16
5 6 8 11 12 7 5 3 4 5 7 8 8 9 9 7 4 2 0 1 3 4 5 3 1 2 0 2 3 3 3 3 3 3 3 2 4 6 9 10 12 13 14 15
4 6 7 7 8 5 4 6 5 5 6 5 5 6 6 5 5 5 4 2 2 3 4 4 1 2 3 3 3 4 4 5 6 6 7 8 8 9 9 10 11 12 13 14
6 3 3 3 2 1 2 4 4 4 4 5 5 5 5 5 4 4 4 4 3 2 2 2 1 3 3 4 4 5 6 6 7 8 8 9 10 10 11 12 12 12 13 14
4 3 4 3 2 1 2 4 4 5 6 7 8 7 7 7 7 7 7 6 5 5 6 6 6 6 6 7 8 7 8 9 10 10 11 11 11 12 12 12 13 14 15 15
3 2 4 4 3 3 4 4 5 7 8 8 8 9 10 10 10 10 10 9 8 7 7 8 8 8 9 10 10 11 11 11 11 11 11 12 12 13 13 14 14 15 16 17
2 2 2 1 2 4 6 7 8 8 9 10 11 11 10 10 11 12 11 11 10 10 9 9 10 10 11 11 12 12 12 13 12 12 13 13 14 14 15 15 15 16 18 19
6 5 6 7 8 10 10 10 9 8 8 9 10 11 11 12 12 12 13 13 13 12 12 11 11 11 12 12 12 13 12 12 12 13 14 15 16 17 18 19 19 20 22 23
9 9 10 11 11 9 9 9 10 10 11 11 12 13 13 13 13 14 14 14 14 13 13 13 13 12 12 12 12 12 13 13 14 15 16 18 19 20 22 22 23 22 23 24
7 8 9 9 10 10 11 12 13 13 12 12 12 12 13 13 13 14 14 14 14 15 14 14 13 13 14 14 14 15 15 17 18 19 22 22 23 23 24 24 25 26 26 26
6 7 8 9 10 11 11 12 11 11 10 10 10 11 11 12 12 13 13 13 14 14 15 15 16 16 18 19 20 21 22 22 23 23 24 24 24 24 25 26 27 28 28 29
7 7 8 9 10 9 9 10 10 9 9 9 9 10 10 11 12 14 15 13 17 18 19 19 22 22 24 25 26 26 26 26 27 26 26 26 27 27 27 27 28 28 28 29
8 8 8 7 7 7 7 7 7 7 8 10 11 13 14 16 17 19 20 22 20 24 24 23 25 25 27 27 27 28 28 28 29 29 29 29 29 29 28 28 27 27 27 26
8 7 6 6 6 6 6 7 9 10 12 14 16 17 19 20 21 23 23 22 23 25 25 25 25 26 27 28 28 28 28 28 28 28 28 27 27 26 26 25 24 25 24 24
5 4 4 4 6 8 10 13 14 16 18 19 20 20 21 22 23 22 24 25 26 26 26 26 26 26 26 26 25 25 25 25 25 24 24 24 24 23 23 23 22 22 22 22
3 4 7 9 11 13 15 17 19 18 20 21 21 22 23 23 24 26 25 24 24 25 24 23 24 23 23 23 23 23 22 22 22 22 22 21 21 21 21 21 22 22 23 24
7 9 12 14 17 19 21 22 22 25 24 24 25 23 21 23 23 24 23 23 23 21 22 21 20 21 21 22 22 22 21 22 21 21 21 22 22 22 23 23 24 24 25 26
11 14 16 18 18 20 23 24 25 25 26 25 25 28 26 24 24 23 23 23 22 21 21 21 22 21 21 22 22 23 23 23 23 23 23 23 24 24 25 25 26 26 26 27

GFSNGP_700_spd_090.txt.gz
Wind_Speed
18 23 26 30 30 30 22 21 19 19 23 23 12 7 3 4 14 14 9 8 9 8 11 13 12 12 11 12 11 16 21 33 22 25 23 22 27 26 21 17 15 13 12 9
27 26 22 24 33 29 25 26 27 29 20 12 7 7 5 10 14 11 7 6 8 8 6 11 12 10 9 9 12 16 19 23 17 19 21 24 27 26 24 20 18 16 15 12
23 15 22 21 19 18 17 19 22 23 17 10 8 9 7 5 5 6 9 10 10 8 9 8 12 14 12 8 11 17 18 21 22 22 22 21 27 30 30 27 22 19 18 17
16 18 4 2 7 7 8 9 5 16 12 9 5 0 6 5 4 8 11 12 14 10 12 14 5 11 16 12 17 16 24 24 21 23 25 25 26 24 29 32 27 24 22 21
6 8 21 19 9 17 4 6 4 4 6 4 4 3 2 4 6 6 10 11 12 10 10 12 14 9 6 16 21 21 28 26 25 31 35 29 26 25 26 27 30 28 26 24
6 4 4 9 24 21 7 6 7 2 2 1 2 4 5 6 7 4 8 10 11 7 6 7 9 11 10 8 11 19 24 24 31 37 32 34 35 32 30 35 33 31 33 28
20 10 7 16 18 1 8 3 6 8 5 5 3 4 2 1 2 4 6 9 9 6 5 4 7 10 5 7 6 4 8 15 18 23 24 29 32 30 40 44 38 39 34 33
13 4 4 11 17 14 10 4 6 10 10 11 12 10 8 6 4 3 4 6 7 7 5 5 4 4 2 1 1 3 3 4 4 2 9 9 16 17 16 21 17 28 27 29
4 4 5 6 9 8 6 4 8 11 11 12 12 11 10 8 6 5 5 5 6 4 2 1 2 2 1 2 5 4 4 4 5 7 7 4 5 6 6 8 12 15 15 16
2 6 11 9 7 8 8 10 13 12 13 14 13 12 12 10 9 7 6 5 4 3 3 3 3 3 3 5 6 5 4 5 4 5 6 7 7 3 6 4 3 3 3 4
4 6 5 6 7 10 11 12 11 10 9 9 10 10 10 9 9 8 7 5 4 3 3 4 3 2 1 2 3 3 2 1 1 1 1 2 3 5 4 3 4 5 4 5
2 1 3 4 6 9 10 9 9 10 9 9 9 9 9 8 8 8 8 7 6 4 3 4 4 3 2 3 3 1 1 2 3 3 2 3 3 3 3 5 7 8 10 11
5 4 5 5 6 5 7 8 8 8 8 7 6 6 5 4 4 5 5 6 6 6 4 4 4 4 4 5 6 7 6 6 6 6 6 6 6 7 8 9 10 11 12 12
3 3 2 4 4 5 6 6 6 4 4 4 4 5 6 4 6 6 6 7 7 8 7 7 7 7 7 7 8 9 10 9 9 10 10 10 10 10 10 11 12 12 11 11
4 1 4 3 3 4 3 4 6 6 7 8 8 8 9 7 7 7 7 8 8 9 9 8 9 9 10 10 10 11 12 12 12 11 11 12 13 13 13 13 13 12 12 13
2 2 2 1 1 2 4 7 7 7 8 8 8 8 9 9 9 9 9 9 9 9 11 11 11 11 12 12 12 12 13 13 13 13 13 13 13 13 14 14 14 14 14 15
3 3 2 4 6 8 8 8 7 7 8 9 10 9 10 10 10 11 11 11 11 10 11 11 12 12 13 13 13 13 12 13 14 13 13 13 13 14 14 15 15 16 16 17
3 4 5 5 6 6 5 7 7 8 8 8 9 9 9 10 10 11 11 11 11 11 12 13 13 13 12 12 13 13 13 14 14 14 14 15 15 16 17 19 20 21 21 20
4 4 4 4 5 6 7 6 6 7 7 7 8 8 8 8 9 9 10 10 10 12 13 14 15 15 14 14 16 16 16 17 19 18 19 19 19 20 20 21 22 23 23 23
1 3 3 3 4 5 6 6 5 6 6 6 6 7 7 8 9 10 12 13 14 15 17 18 19 19 19 19 20 22 22 22 23 23 23 24 24 23 22 22 22 22 23 23
2 2 3 3 3 3 2 4 5 5 6 8 10 11 12 13 14 16 18 19 19 21 23 22 23 23 23 23 23 23 23 23 24 24 25 24 24 24 24 24 24 24 24 24
2 2 2 2 3 3 3 5 7 9 11 13 15 16 18 19 20 21 22 22 23 23 23 24 24 25 25 24 24 24 25 25 24 24 25 25 25 25 26 26 26 25 25 25
2 1 2 2 2 4 7 8 10 12 13 15 17 19 20 21 23 23 24 25 25 25 25 25 25 25 25 24 24 24 24 24 23 23 23 23 23 23 23 24 24 24 24 25
4 3 2 3 5 7 8 10 12 15 17 20 21 22 23 23 24 24 25 26 26 26 25 24 24 23 23 22 22 22 22 21 21 21 21 21 21 21 21 21 21 21 21 22
3 1 3 5 7 10 12 14 17 18 19 20 20 20 22 24 25 26 26 26 25 24 24 24 23 23 23 22 22 21 22 21 21 21 21 21 21 21 21 20 21 21 21 21
0 2 5 7 10 13 16 18 19 21 22 21 21 21 21 21 22 23 24 24 25 25 24 24 24 23 24 24 24 23 22 22 22 22 22 22 23 22 22 22 22 22 22 23
2 6 8 12 16 19 21 23 24 25 25 26 27 27 26 25 24 25 25 25 25 25 25 25 24 24 23 23 23 23 23 23 23 23 23 23 23 23 24 24 24 24 24 24

GFSNGP_700_spd_093.txt.gz
Wind_Speed
15 16 19 22 26 26 28 27 28 30 27 27 24 18 23 12 14 15 11 11 13 13 11 7 2 8 8 11 13 10 17 27 29 37 27 27 26 25 23 20 20 20 17 17
22 20 22 27 32 31 29 29 30 29 34 29 16 10 13 12 17 14 7 9 12 13 14 7 3 3 4 8 14 11 17 19 5 28 19 21 22 24 16 13 17 20 19 18
14 14 17 23 15 22 27 29 25 27 25 25 19 18 11 9 17 15 10 9 11 10 11 14 3 6 8 6 10 12 14 15 16 13 24 19 21 21 20 20 22 22 22 21
10 10 5 11 14 26 6 12 17 21 25 22 18 14 9 8 7 10 11 11 11 11 10 11 12 3 8 8 11 14 16 24 18 27 27 20 23 24 23 28 26 28 27 24
5 9 19 24 7 22 13 5 9 11 14 14 12 10 10 6 5 7 7 12 12 11 9 9 12 13 7 9 11 14 15 15 24 20 19 23 23 23 22 28 28 27 27 26
9 4 4 6 16 27 11 4 3 7 7 7 9 10 10 8 7 5 7 10 11 11 10 9 10 9 9 9 3 12 10 16 21 23 29 30 28 26 28 29 27 25 27 26
18 7 10 18 23 3 7 0 3 9 6 8 4 8 6 1 2 4 6 8 9 8 7 8 10 9 7 7 7 4 3 4 8 12 17 20 25 33 37 34 34 33 33 31
11 9 4 12 7 7 7 6 4 5 8 9 7 7 7 5 4 3 3 4 6 7 7 8 9 10 8 5 5 5 4 4 2 2 3 7 11 19 25 26 24 26 28 31
2 3 5 7 6 7 8 6 7 7 10 13 10 9 8 6 6 4 4 5 5 6 6 7 8 8 7 4 4 3 1 2 1 1 1 1 4 7 8 11 14 16 19 22
2 1 6 7 5 8 10 9 12 13 13 12 12 11 11 10 9 8 7 6 6 6 6 7 7 8 7 6 2 1 1 1 1 0 2 3 4 3 1 2 4 5 7 9
1 3 4 6 6 8 9 10 11 10 10 11 10 9 9 9 10 10 10 9 8 7 7 7 7 6 6 6 5 3 3 2 1 2 2 1 1 2 0 0 1 0 3 4
2 3 2 3 5 7 7 8 8 8 9 9 8 8 8 8 8 8 8 8 8 8 7 8 8 7 6 5 6 6 4 5 4 4 3 3 3 3 3 3 4 5 6 6
3 4 5 4 5 5 5 6 6 7 7 6 7 7 7 7 6 7 8 8 7 8 8 7 8 8 8 8 7 7 7 8 9 9 8 9 8 8 8 9 10 11 11 12
2 2 4 4 5 5 4 3 5 6 6 8 8 9 9 10 11 10 10 10 11 10 11 11 11 11 11 11 10 10 11 11 11 11 12 12 11 11 11 12 11 11 12 12
1 2 3 4 5 3 2 4 5 5 6 7 7 8 8 8 9 10 9 10 10 11 11 12 12 13 13 14 14 14 14 14 14 14 14 14 13 13 13 13 13 13 14 14
1 3 3 2 2 1 3 7 7 6 5 6 7 8 9 9 10 10 10 11 12 12 12 13 14 14 14 14 15 15 15 16 16 15 15 14 14 14 14 14 14 15 15 16
2 2 4 3 4 4 7 6 6 7 7 8 9 10 11 12 12 12 12 13 13 13 13 13 14 15 16 17 17 17 17 16 16 16 17 17 17 16 16 16 17 17 18 18
4 5 3 4 5 6 6 6 6 7 8 9 9 9 10 11 12 12 13 14 15 15 16 16 16 16 15 16 17 18 18 19 19 18 18 18 19 19 19 20 20 21 21 22
5 4 4 4 4 5 6 6 7 7 7 7 7 8 9 10 11 12 13 14 17 18 19 20 20 20 20 20 21 21 21 22 22 22 22 23 23 24 24 25 25 26 26 26
5 3 2 2 2 4 4 5 5 4 4 5 6 7 8 10 12 14 16 19 21 22 23 24 25 25 26 26 27 27 27 27 27 27 27 27 27 28 28 28 28 29 29 29
3 2 3 3 2 2 1 1 2 4 5 7 9 11 13 15 17 18 20 22 24 25 26 27 27 28 28 28 29 29 29 29 29 28 28 28 28 28 28 28 28 28 28 28
3 2 2 2 2 2 2 4 6 8 10 13 14 16 18 20 21 22 23 24 25 26 27 28 28 28 29 29 29 29 29 29 29 29 29 29 29 29 28 28 28 28 27 27
4 5 5 3 2 3 5 7 9 12 14 16 18 19 20 21 22 23 24 25 26 27 27 28 28 28 28 28 27 27 27 27 27 27 27 27 27 27 27 27 27 27 27 26
7 6 4 1 2 4 6 9 11 14 16 19 20 22 23 24 25 26 27 27 27 27 27 27 26 26 25 25 25 25 25 25 25 24 24 24 24 24 24 24 24 25 25 25
7 5 3 3 5 6 8 11 14 17 19 21 23 23 24 25 26 27 28 28 28 28 29 29 29 28 27 27 26 25 25 25 25 25 25 25 25 25 24 24 24 24 25 25
6 4 4 6 7 8 11 15 17 20 21 22 23 24 25 27 28 28 29 30 30 29 29 29 29 28 28 28 28 28 27 26 26 26 26 26 26 26 26 26 25 25 26 26
6 6 7 8 9 12 15 18 20 22 24 25 26 26 26 27 28 29 29 29 30 30 30 30 29 28 28 28 27 28 27 27 27 27 27 27 27 27 27 27 27 27 27 27

GFSNGP_700_spd_096.txt.gz
Wind_Speed
8 10 13 14 14 14 20 27 20 38 36 33 29 27 26 21 16 20 20 17 17 16 14 11 10 12 11 6 13 17 12 13 25 34 42 30 39 31 30 33 30 26 19 16
14 15 15 19 21 23 22 20 28 37 40 28 28 26 23 17 16 14 16 16 15 16 14 13 8 6 8 8 9 11 14 14 13 24 24 33 44 34 33 28 23 19 16 14
3 3 12 16 16 13 16 26 31 34 29 28 29 24 21 21 15 13 15 13 11 12 11 12 10 6 6 9 7 11 14 12 18 17 9 28 37 32 28 23 21 20 17 16
5 8 1 5 6 17 22 29 17 19 23 17 23 20 20 15 17 10 10 9 10 9 9 9 13 12 7 6 10 11 15 10 11 8 8 26 36 23 20 21 21 19 17 17
3 2 13 19 16 12 21 25 14 12 15 22 21 20 16 12 9 11 6 8 9 7 7 7 10 12 12 8 8 7 8 14 14 20 22 25 26 25 20 16 15 16 16 17
5 2 4 7 9 21 25 14 9 8 10 14 10 5 6 8 11 6 4 5 9 8 9 10 10 9 10 11 11 7 6 9 9 12 13 16 18 23 23 21 18 18 19 23
14 5 7 12 19 18 3 6 8 3 3 6 6 6 7 5 2 1 2 5 6 8 9 10 11 12 11 11 12 12 11 8 7 7 12 17 15 18 19 23 27 24 25 27
5 5 5 12 10 2 3 8 6 6 9 5 5 6 5 4 3 4 5 6 6 7 8 10 11 12 11 11 10 11 10 9 8 7 4 7 14 13 18 26 19 22 25 30
3 2 7 8 7 6 5 6 5 7 7 8 8 8 7 8 7 7 6 7 8 8 9 10 10 10 11 10 8 7 8 9 9 8 6 4 4 8 9 11 11 11 13 15
1 2 5 6 5 5 6 9 10 11 10 12 12 10 10 11 10 9 8 8 7 8 10 10 11 10 10 9 9 7 7 7 7 7 7 6 5 3 1 1 3 4 5 6
2 4 4 5 5 6 7 7 8 9 8 8 9 10 10 11 10 10 10 11 11 10 9 8 9 10 10 9 8 8 7 6 5 5 5 4 4 3 2 2 2 1 1 2
4 3 2 3 4 6 7 7 7 6 5 6 7 7 8 8 8 8 8 9 10 11 12 12 11 10 10 9 9 9 8 7 6 6 6 6 6 6 4 3 3 3 2 2
4 3 1 2 3 5 6 5 4 4 6 6 7 8 9 10 10 10 11 11 11 10 10 12 13 13 12 13 12 11 11 10 10 9 9 8 9 9 9 9 9 10 10 10
4 3 4 3 3 4 4 5 5 6 6 5 6 7 8 9 9 10 11 11 11 12 12 12 13 13 13 14 14 14 14 14 14 13 13 13 11 11 12 12 12 12 13 14
2 3 5 5 5 3 3 5 6 6 5 6 7 8 9 10 11 11 12 12 13 14 15 15 15 16 16 17 17 17 18 17 16 15 15 15 16 15 14 14 15 15 15 15
0 4 7 5 3 1 3 5 6 6 7 8 10 11 12 13 13 13 14 13 14 14 15 15 16 16 17 18 18 19 20 20 20 19 18 17 17 17 17 16 16 16 16 16
3 4 6 4 2 1 3 4 5 6 7 7 8 10 10 10 10 10 11 12 13 14 15 15 16 17 18 19 20 20 20 21 21 21 21 21 20 19 19 18 18 18 18 18
7 8 8 5 3 4 2 3 4 4 6 6 7 7 8 8 9 11 13 14 15 16 17 18 19 20 21 22 23 23 24 24 23 23 23 23 23 23 22 22 22 21 22 22
11 10 7 5 3 2 1 3 4 4 5 5 6 7 9 10 12 14 16 18 19 20 21 22 23 24 25 26 26 27 27 28 28 28 28 28 28 28 28 27 27 27 27 26
7 7 5 3 3 2 1 2 3 4 5 6 8 10 12 15 17 20 22 23 24 24 25 25 26 27 28 29 30 30 30 29 29 30 30 30 30 30 30 30 30 29 29 29
6 5 4 3 2 1 1 1 1 3 5 9 12 14 16 18 20 22 23 24 25 26 27 28 29 30 31 31 31 31 31 31 31 30 30 30 30 30 30 30 29 29 30 30
6 5 5 6 6 5 2 1 4 6 9 11 13 16 19 21 22 24 25 26 28 29 30 31 31 32 32 31 31 30 29 29 29 29 28 28 28 27 28 28 29 29 29 29
8 8 8 7 5 2 1 4 6 9 11 14 16 19 20 22 24 25 27 28 29 30 31 31 31 31 31 31 30 30 29 29 28 27 27 26 26 26 25 25 25 26 26 26
9 10 8 5 2 2 4 7 9 11 14 18 20 22 24 25 26 27 28 29 30 31 31 31 31 31 30 31 30 30 29 29 29 28 28 27 27 26 26 26 25 25 25 25
11 9 5 3 4 6 8 10 12 14 18 21 23 25 26 27 28 30 29 29 30 31 32 32 31 31 30 30 30 30 29 29 28 28 28 28 28 28 27 27 26 26 25 25
10 8 7 7 7 8 11 13 16 18 21 24 25 27 28 29 30 31 32 32 32 32 32 32 32 31 30 30 30 30 30 30 30 29 29 29 28 28 28 28 27 27 26 26
10 10 10 9 9 11 13 16 19 21 23 25 26 27 28 29 30 31 32 33 33 33 32 32 32 31 31 30 29 29 29 29 30 29 29 29 29 28 28 28 28 28 27 27

GFSNGP_700_spd_099.txt.gz
Wind_Speed
11 11 12 13 15 14 13 13 13 18 26 33 32 33 34 24 23 25 20 19 17 20 21 20 18 13 14 15 13 14 15 25 28 25 23 34 38 37 39 37 38 35 32 30
9 9 12 16 15 16 17 20 24 24 32 32 32 26 25 26 20 18 18 16 18 18 16 16 16 12 12 13 14 16 12 12 18 22 23 22 32 31 31 35 33 32 31 28
3 3 4 10 10 10 10 9 16 22 26 18 19 22 23 23 17 19 15 17 15 16 12 11 12 14 11 12 8 11 10 9 14 19 17 18 21 31 33 31 31 28 29 27
2 3 3 2 4 5 11 10 16 23 21 18 19 17 16 18 15 9 9 12 11 11 8 9 11 14 13 12 11 9 11 17 12 8 10 12 14 28 43 37 30 27 26 26
1 2 6 7 11 8 14 18 22 16 16 12 14 15 16 13 8 6 6 8 9 8 7 8 11 11 12 14 14 12 6 4 7 10 13 14 10 25 30 34 27 27 25 22
4 2 2 5 5 15 16 11 8 13 12 9 12 7 8 5 2 2 1 4 7 5 8 11 11 12 14 14 16 14 9 9 7 5 5 6 10 18 28 25 25 25 18 18
6 3 5 8 14 15 2 7 15 13 8 11 13 8 4 3 4 3 3 2 3 7 9 10 12 13 14 16 13 15 15 16 14 10 8 3 5 9 16 18 22 27 23 23
3 4 3 10 10 3 5 9 9 4 6 5 7 6 6 4 5 6 6 5 5 7 8 10 11 12 13 13 15 16 16 17 17 14 11 9 5 1 3 6 13 16 16 22
5 3 3 8 7 7 5 5 4 7 9 10 9 8 8 8 10 10 9 8 8 8 9 10 11 12 13 13 14 14 15 15 15 15 14 13 12 9 6 4 4 5 8 13
3 0 4 6 6 6 7 8 11 11 11 12 11 11 12 12 12 13 13 13 12 12 12 12 11 12 12 13 13 13 13 13 13 13 13 12 10 10 9 7 5 3 2 5
4 1 3 4 5 7 8 10 12 12 12 11 11 11 11 11 12 12 12 13 13 13 12 12 12 13 13 13 13 13 13 13 12 11 10 10 9 8 6 5 5 4 3 1
5 3 3 4 5 6 8 9 10 11 10 10 8 8 9 9 9 10 11 11 11 11 12 13 13 12 12 11 11 11 12 12 12 13 12 11 10 9 8 7 5 4 4 4
4 6 6 5 6 7 8 9 9 8 7 6 5 6 6 7 9 9 10 10 11 12 11 11 12 12 13 13 13 12 12 12 12 11 12 13 13 14 14 12 12 11 11 10
1 4 5 6 7 7 7 7 6 4 3 4 4 5 6 7 8 8 8 9 10 11 12 12 12 13 13 14 14 14 14 14 14 14 13 14 14 14 14 14 15 15 15 15
2 2 4 5 6 5 4 4 3 3 3 4 6 6 5 6 8 9 10 10 11 11 11 12 13 14 15 15 15 16 16 17 16 16 16 15 15 15 16 16 17 17 16 17
1 5 6 7 6 3 1 2 2 3 4 5 5 5 5 6 8 8 9 10 10 10 11 12 13 14 15 16 18 18 18 18 19 20 19 18 18 17 17 17 18 18 19 19
5 7 8 7 5 3 0 1 1 2 3 4 5 4 6 9 11 11 11 12 13 14 16 18 19 20 21 21 21 21 22 22 22 22 22 23 23 22 21 20 20 20 20 20
7 8 10 9 7 4 2 1 1 2 2 3 5 8 9 10 11 12 14 16 18 19 21 22 23 24 25 25 25 25 25 25 25 25 25 25 26 26 27 26 25 24 24 23
9 9 9 8 7 5 4 3 0 1 3 5 6 7 9 11 13 15 17 19 21 22 24 25 26 26 27 28 28 28 28 29 29 28 27 27 27 27 27 27 28 27 27 26
6 9 9 8 7 6 4 2 2 2 1 3 6 9 12 14 16 19 21 22 23 24 25 26 27 28 28 29 30 30 30 29 29 28 28 28 28 27 27 27 27 27 27 27
9 10 10 9 8 6 6 6 4 1 4 7 10 12 15 17 19 21 22 23 24 25 27 28 29 30 31 31 31 31 30 30 29 29 28 27 27 26 26 26 26 26 26 26
8 8 8 8 7 7 6 3 1 4 7 10 12 15 17 19 22 24 25 26 28 29 30 31 31 31 31 31 31 30 30 30 29 29 28 28 27 26 26 25 25 25 25 25
7 8 9 10 9 6 3 1 3 6 9 12 14 17 20 22 24 26 28 29 30 31 31 32 32 32 31 30 30 30 30 29 28 28 28 27 27 27 26 26 25 24 24 24
8 10 10 9 7 4 1 3 6 9 11 14 17 20 22 25 27 27 29 30 31 32 32 32 32 31 31 31 30 30 29 29 29 28 27 27 26 25 25 25 25 25 24 24
11 12 11 9 6 3 4 7 9 12 15 18 20 23 26 27 28 30 30 31 32 32 33 32 31 30 30 30 29 29 29 29 29 29 28 28 27 27 26 25 25 25 24 24
14 13 11 8 5 6 8 10 12 15 18 21 23 26 27 28 29 31 32 33 33 32 32 32 31 30 30 30 30 30 30 30 29 29 29 29 29 28 27 27 26 25 25 24
14 14 11 8 7 9 11 13 15 17 20 23 25 27 29 30 31 32 32 33 32 32 32 32 33 33 33 32 32 32 32 32 31 31 30 29 30 29 28 27 26 27 26 25

GFSNGP_700_spd_102.txt.gz
Wind_Speed
5 7 7 6 8 10 13 14 10 13 14 19 23 24 25 31 27 22 22 21 20 21 20 21 24 25 26 20 15 19 17 16 19 26 28 13 20 20 22 26 26 26 26 34
7 7 7 11 12 13 16 17 19 19 21 15 22 23 22 23 21 19 18 19 20 21 21 18 20 18 19 17 15 10 7 10 14 26 27 24 19 19 31 28 27 31 35 41
3 2 2 8 8 13 13 11 11 16 16 23 20 22 21 21 19 16 15 18 17 16 15 13 14 13 14 14 11 11 9 14 9 6 11 23 27 27 30 32 38 45 47 42
4 3 4 2 4 5 8 11 18 18 24 25 16 19 20 20 16 14 14 12 10 12 10 10 10 10 11 14 16 13 9 8 8 7 5 10 10 15 21 27 28 33 43 41
4 7 1 5 7 10 10 13 22 22 18 16 13 13 17 15 12 10 8 6 7 5 6 7 8 9 11 14 17 15 11 8 7 6 6 9 11 14 15 25 31 40 39 38
4 3 4 7 7 10 12 12 16 14 17 14 6 5 8 8 8 5 2 1 2 7 9 9 9 11 14 15 15 13 16 16 15 12 10 7 7 6 9 24 32 35 36 32
7 4 3 5 7 10 5 5 13 15 11 10 17 6 7 5 4 3 3 4 7 9 8 9 11 12 12 13 12 16 19 20 19 18 15 12 11 7 4 8 15 16 26 27
5 4 2 5 7 4 8 9 10 6 4 5 8 6 4 3 4 6 6 7 8 9 9 11 12 12 13 12 15 17 19 18 18 18 18 17 15 13 9 6 2 9 8 12
5 3 4 5 3 2 3 3 3 5 7 7 6 7 8 10 10 9 8 8 8 9 11 12 12 13 14 15 16 17 18 17 17 18 17 17 17 16 15 12 8 4 2 4
4 4 2 2 4 6 7 8 9 11 12 13 13 14 14 14 13 12 11 10 10 12 12 12 12 13 13 15 16 16 16 16 16 16 16 15 15 14 13 13 12 9 7 6
6 4 1 3 6 7 8 10 13 14 13 13 14 13 12 11 10 9 9 9 10 10 10 10 11 12 13 14 14 15 15 15 15 15 14 14 14 13 13 12 11 9 8 5
9 6 4 5 7 9 9 10 11 12 12 11 10 9 7 8 8 8 9 9 10 11 11 11 11 12 12 13 13 13 14 14 15 15 15 14 13 12 11 11 10 10 9 8
6 8 6 6 8 9 9 9 9 10 9 7 6 6 6 6 7 8 8 9 9 9 9 10 12 13 13 12 13 13 14 14 14 14 14 15 15 13 12 13 12 12 11 10
7 8 9 9 9 9 9 8 7 6 5 6 5 5 5 5 5 5 6 6 6 5 7 8 8 9 11 13 14 14 14 14 15 15 15 15 15 16 16 15 14 13 14 15
9 8 10 11 10 8 7 5 5 4 3 3 3 3 4 4 4 4 5 6 8 9 10 11 11 12 13 13 14 16 18 18 19 18 18 17 17 17 17 18 19 19 18 17
8 10 11 11 9 7 4 3 4 4 4 3 3 3 3 2 3 5 5 6 8 11 13 14 16 18 19 19 19 19 20 20 21 22 23 23 23 23 22 21 20 20 21 21
8 9 10 9 7 6 5 4 4 4 4 3 3 4 5 4 3 5 8 10 12 15 18 19 20 21 22 23 24 24 25 24 24 24 25 26 26 27 27 27 26 25 24 24
9 10 11 11 8 6 5 5 4 3 2 3 5 4 3 4 7 10 13 16 18 19 20 22 23 24 25 26 27 28 29 29 28 28 28 27 27 27 28 29 29 29 28 27
11 10 11 10 8 6 6 6 5 5 5 4 3 3 4 6 10 13 15 17 19 21 23 24 26 27 28 29 30 30 31 31 31 31 30 28 27 27 27 27 28 28 29 29
12 13 12 11 9 7 6 6 6 7 4 2 1 3 7 11 13 15 18 20 22 23 25 26 28 29 31 31 32 32 32 32 31 31 29 29 27 27 26 25 25 25 27 28
12 13 12 11 9 8 8 7 7 4 2 1 4 8 11 13 16 18 20 22 24 26 27 28 30 32 33 33 33 33 32 31 30 30 29 29 28 27 26 26 25 25 25 25
8 9 9 9 10 10 9 8 5 3 1 4 7 10 13 16 19 21 23 25 27 29 31 32 33 33 34 34 33 32 31 31 30 30 29 28 27 27 27 26 26 25 25 25
7 8 9 10 10 10 9 7 5 1 4 7 10 14 16 20 22 25 27 28 30 31 32 33 33 33 32 31 31 30 30 29 29 29 29 28 28 27 26 26 26 26 26 26
8 9 10 11 11 10 9 6 2 3 7 10 14 17 20 23 25 27 29 30 32 33 33 33 32 32 31 30 30 30 30 30 30 30 29 29 28 28 27 27 26 26 26 26
8 10 12 13 12 9 7 5 5 7 10 14 17 20 23 26 28 30 31 32 32 33 33 32 31 31 31 31 31 31 32 32 32 31 31 31 30 30 29 28 27 26 26 25
10 12 14 12 10 9 8 8 9 11 14 16 19 22 25 27 29 30 32 32 32 32 31 32 32 32 32 33 33 33 33 33 33 33 32 32 32 31 30 29 29 28 27 26
11 14 14 13 12 11 10 10 12 14 16 19 21 24 27 28 30 31 31 31 31 31 32 32 33 34 34 34 34 34 34 34 34 33 33 32 33 33 32 31 30 30 29 28

GFSNGP_700_spd_105.txt.gz
Wind_Speed
6 2 2 5 8 10 11 12 10 13 14 11 12 12 16 18 24 27 25 22 22 21 22 24 25 23 23 23 23 22 21 16 21 14 22 26 27 23 33 33 39 49 39 37
11 8 8 10 12 14 15 15 17 17 15 9 10 12 21 29 23 23 21 20 19 19 22 23 20 18 18 18 19 17 15 13 13 14 18 18 31 20 24 24 18 36 38 36
9 4 6 11 10 12 14 13 13 13 8 14 21 26 26 22 23 23 21 17 16 17 18 17 13 11 11 13 16 16 13 12 11 12 10 6 18 23 27 18 22 29 32 37
3 4 5 3 1 2 5 5 10 11 14 21 24 21 17 19 21 21 15 13 12 12 14 9 6 8 9 13 14 15 14 12 8 7 9 9 7 9 20 22 26 34 42 34
5 10 3 1 4 6 10 6 18 18 18 18 15 15 13 15 17 16 12 8 7 7 2 4 8 8 12 13 13 13 13 14 15 16 12 9 9 6 10 17 17 17 35 42
7 4 4 8 1 5 11 9 17 14 12 17 14 2 16 14 11 8 6 4 1 1 4 7 8 9 12 11 11 13 16 18 21 20 18 17 15 14 10 8 8 17 23 25
9 7 2 5 8 11 5 4 10 15 15 12 14 14 10 11 7 5 3 2 3 5 8 10 10 11 11 11 11 15 19 20 20 20 21 20 21 20 19 14 6 3 9 23
8 6 4 5 9 6 10 13 14 8 4 3 9 12 7 4 1 3 4 5 6 8 10 10 10 11 11 11 14 16 17 18 19 20 22 22 22 21 19 19 17 14 8 0
6 5 3 5 6 6 6 4 1 2 3 5 4 5 3 4 5 6 6 7 9 10 10 9 10 11 11 13 14 15 16 16 17 19 20 20 20 20 19 19 17 15 15 13
6 6 3 3 2 2 3 5 6 8 10 10 9 8 8 8 9 10 9 9 9 9 9 9 9 11 12 14 14 15 15 16 16 16 16 16 17 17 17 17 17 16 15 14
9 7 3 4 4 6 7 8 11 12 13 13 12 11 10 10 9 8 7 7 7 8 8 9 10 11 11 12 12 13 14 15 15 15 16 16 15 14 14 13 13 13 13 12
7 7 5 6 7 8 9 10 11 11 12 10 10 9 8 7 6 5 5 5 6 6 7 7 9 10 11 13 13 14 15 14 15 16 16 15 15 15 15 14 14 12 12 12
10 9 8 8 8 9 9 9 10 10 10 9 9 8 6 6 5 5 5 7 9 10 11 13 14 14 15 14 15 15 15 16 17 17 17 18 18 18 16 15 15 15 14 12
10 11 11 11 10 10 10 9 8 8 8 8 8 6 4 4 4 5 7 8 9 10 11 11 13 16 18 19 22 23 24 24 23 23 23 22 20 19 19 19 19 18 17 17
12 13 12 12 11 10 8 7 7 7 7 7 5 3 2 4 5 6 6 6 7 8 10 13 14 16 17 18 19 21 23 25 26 27 28 29 28 28 26 25 24 22 21 21
12 13 13 13 12 9 7 6 7 7 5 4 3 3 4 5 6 5 5 6 8 10 13 15 17 18 20 21 22 23 24 24 25 26 27 29 30 31 33 33 32 31 28 26
12 14 16 15 12 9 7 6 6 5 4 3 3 4 4 3 3 4 6 8 10 13 15 16 18 20 22 24 25 27 28 28 28 29 29 29 30 32 32 33 34 35 35 31
14 15 16 15 12 8 5 5 5 5 5 5 5 4 2 1 3 4 7 11 13 15 18 20 23 25 26 28 29 30 31 31 32 32 32 32 31 32 32 32 32 32 33 33
12 13 14 13 10 7 6 5 6 5 6 7 5 3 2 2 4 8 12 14 16 19 21 23 26 27 29 30 32 33 34 34 34 34 32 32 31 30 29 29 29 29 30 31
12 12 12 13 11 8 7 7 7 8 8 7 4 3 2 4 8 11 15 18 21 22 24 26 28 30 32 34 35 36 36 36 35 34 33 31 30 29 28 28 27 28 28 28
13 15 14 12 11 10 9 10 10 10 8 5 4 2 4 7 12 16 18 21 23 25 27 29 32 34 36 37 37 36 35 33 32 31 30 29 29 28 28 28 28 28 28 27
14 14 14 12 11 11 11 11 11 8 7 5 3 4 8 12 15 19 21 24 27 29 31 33 35 35 35 35 35 34 33 33 32 32 31 30 30 29 28 28 27 27 27 28
13 13 13 12 12 12 12 11 9 7 5 5 6 8 11 15 19 22 26 27 30 31 33 34 35 35 34 34 33 33 32 32 32 32 32 32 31 31 30 30 29 28 28 28
10 10 10 11 12 13 12 9 8 7 8 7 8 11 15 18 21 24 27 29 32 33 34 34 34 34 33 33 33 33 33 33 33 33 33 34 34 34 33 32 31 30 29 29
7 9 11 12 13 12 10 10 10 10 8 9 12 15 18 21 24 27 30 32 33 34 35 35 33 33 33 33 34 34 34 34 34 33 33 33 33 32 33 34 32 31 30 29
10 11 12 14 14 13 12 11 10 10 11 13 16 18 20 23 25 28 30 32 33 33 33 34 34 33 34 35 35 35 35 35 35 34 34 34 34 33 33 32 33 32 31 29
11 12 14 15 15 14 12 12 13 13 15 17 19 20 22 25 27 30 31 32 32 32 32 33 34 34 34 34 35 35 36 36 36 36 35 34 33 33 32 31 32 32 32 30

GFSNGP_700_spd_108.txt.gz
Wind_Speed
11 6 2 3 7 9 12 13 13 12 10 5 7 5 10 18 24 28 27 27 26 24 23 23 24 23 22 22 22 21 21 21 20 20 22 20 22 27 30 33 29 32 35 37
13 12 9 9 9 10 12 14 15 13 11 8 13 18 20 23 28 30 26 24 23 19 19 20 20 19 18 17 17 17 18 20 20 20 18 18 20 24 25 32 35 23 39 50
12 11 5 9 12 11 11 10 11 13 6 8 17 21 23 25 25 23 20 21 18 14 14 16 14 12 11 11 13 16 18 19 19 17 15 13 13 13 18 25 27 25 38 49
3 5 4 5 8 8 11 7 9 11 10 20 23 23 21 18 16 16 16 16 14 11 12 11 6 5 6 9 12 14 17 17 16 16 14 11 9 10 9 14 17 25 18 18
6 11 6 6 5 7 8 12 15 15 19 22 22 18 13 9 11 12 12 11 10 8 6 3 2 4 8 10 12 16 14 16 17 20 20 21 19 17 15 15 9 15 16 25
9 6 6 10 4 5 5 6 15 10 10 12 17 10 12 11 12 12 10 8 5 3 2 2 3 7 10 10 13 12 15 18 19 22 23 24 26 26 25 20 16 12 8 10
11 8 3 7 7 7 4 7 8 14 17 16 15 15 12 12 11 9 5 2 2 3 3 5 7 11 10 11 11 15 16 17 19 21 23 23 25 25 25 25 24 21 18 12
11 12 6 8 7 6 11 13 16 14 9 4 5 10 10 8 5 1 1 1 2 3 4 7 10 10 10 10 13 14 15 17 18 20 21 21 22 22 23 23 22 21 21 19
7 6 5 5 8 8 9 8 4 2 1 1 4 6 6 3 3 4 3 3 4 7 10 11 11 10 11 12 13 14 15 16 17 19 20 20 20 20 20 20 20 20 19 18
7 8 6 6 5 3 2 2 4 5 7 7 8 7 7 7 7 7 8 8 8 9 10 10 9 9 10 12 13 14 15 16 17 18 19 19 19 19 19 19 19 20 20 18
14 8 7 5 4 4 5 6 8 9 11 11 12 11 10 9 8 8 9 9 9 9 9 9 10 12 13 13 15 15 16 17 18 18 18 19 20 20 20 21 20 18 17 18
7 6 6 7 6 7 8 9 9 8 9 10 11 10 9 9 9 10 9 7 7 7 8 9 10 11 12 13 14 14 15 16 17 18 19 20 20 21 22 22 22 22 21 19
13 9 8 8 8 9 9 9 8 7 8 9 9 8 8 8 8 7 5 5 6 7 9 9 10 12 14 15 17 19 21 22 23 24 24 25 25 25 24 22 22 23 23 22
11 11 11 11 10 10 9 9 7 7 6 7 7 8 7 6 5 6 7 8 9 9 10 12 14 16 17 19 21 23 25 24 24 25 26 27 27 27 27 27 26 23 23 23
11 15 13 11 13 12 10 9 8 8 7 8 8 6 6 6 6 7 7 7 7 9 11 13 17 20 23 24 26 26 26 28 29 29 29 30 30 30 30 30 30 28 28 28
12 14 15 14 13 12 10 8 9 9 9 7 6 5 5 6 6 5 5 6 9 11 14 17 19 21 22 24 26 28 29 29 30 31 32 32 34 34 33 34 33 32 28 29
12 14 16 16 14 12 10 9 9 8 8 6 5 6 6 5 3 3 5 7 9 13 16 17 19 21 24 25 27 28 30 32 33 33 34 34 34 35 35 35 35 34 35 30
12 13 15 16 13 11 9 8 8 8 7 6 7 7 5 3 2 5 7 9 12 15 17 19 22 24 27 29 30 32 33 34 36 36 37 37 35 34 32 31 30 30 31 31
11 12 15 15 13 10 9 8 8 8 7 8 7 5 2 1 4 6 8 11 14 17 19 22 24 27 29 31 33 34 35 36 36 36 34 33 32 30 30 30 29 28 29 29
11 12 13 13 13 11 9 9 9 8 9 8 5 2 0 2 5 7 11 14 17 20 23 26 28 30 33 34 34 35 35 35 34 33 32 31 31 30 30 30 29 29 29 29
9 11 12 14 13 11 10 10 10 10 9 7 4 3 2 4 7 11 13 15 20 24 26 27 30 32 34 35 35 35 34 33 32 32 32 32 31 30 30 29 29 29 28 28
10 10 13 13 12 10 10 11 11 11 9 6 5 4 5 8 10 13 17 20 23 26 28 30 33 33 34 35 34 34 34 33 34 34 34 33 33 32 31 31 30 29 29 29
11 11 13 14 13 11 11 12 12 10 8 7 6 6 8 10 13 17 19 24 26 28 31 33 34 35 34 33 33 33 34 34 34 34 34 34 35 36 36 35 33 31 30 29
11 13 13 12 13 13 13 14 12 11 10 8 8 10 12 13 16 19 22 24 28 31 32 33 32 33 34 34 33 34 34 34 34 34 34 34 34 33 32 33 35 35 33 31
11 11 12 13 14 15 15 14 13 12 10 9 11 12 13 16 20 23 25 28 29 32 34 33 31 31 33 33 34 35 35 35 36 36 35 35 34 34 34 32 29 30 33 34
13 13 14 15 15 16 16 15 13 11 10 11 13 13 16 19 21 24 25 28 30 31 32 34 34 33 33 33 34 35 35 36 36 36 35 35 34 34 33 31 29 29 30 33
12 13 14 15 17 18 16 13 11 12 13 13 13 16 18 21 23 25 27 29 31 32 31 32 33 33 34 34 34 35 35 36 35 35 34 33 33 33 31 30 29 29 29 29

GFSNGP_700_spd_111.txt.gz
Wind_Speed
10 9 3 9 4 15 16 13 9 8 11 14 16 14 13 16 18 19 23 27 26 26 25 24 25 24 24 24 23 22 21 20 21 22 23 23 24 23 24 29 32 27 32 29
20 12 10 9 9 7 8 7 8 8 9 8 9 12 14 16 20 25 26 23 21 21 22 21 20 20 20 19 17 16 17 18 19 20 20 21 23 22 22 23 20 24 29 28
6 15 10 8 13 13 11 8 10 15 11 14 14 13 16 21 25 27 24 22 21 21 18 15 16 15 13 11 11 12 14 16 16 17 18 17 16 16 16 18 18 20 22 24
4 13 5 7 14 14 16 11 9 13 15 16 17 19 22 26 24 22 19 17 17 16 14 13 11 7 5 6 8 9 11 14 17 18 19 21 20 18 14 15 14 14 17 22
5 10 7 6 10 10 11 15 16 16 19 22 23 24 21 18 16 14 13 13 12 12 12 9 6 4 4 4 7 8 11 15 18 19 20 22 24 27 28 27 24 20 10 7
11 3 5 10 12 7 5 13 11 13 14 15 16 18 14 10 10 11 11 8 7 6 4 2 2 2 3 4 7 11 14 17 20 20 21 22 25 26 28 28 29 29 29 24
15 8 4 15 15 11 6 9 7 10 13 17 19 17 11 8 8 5 3 3 3 2 2 3 3 5 6 8 12 13 15 17 16 19 21 22 24 24 26 26 25 24 25 25
14 7 6 13 8 7 8 11 14 15 12 8 6 7 8 5 3 2 2 2 3 4 5 5 6 9 11 10 12 15 16 18 19 20 20 22 23 23 24 24 24 24 25 24
11 12 7 8 7 9 9 7 5 4 2 3 5 7 7 2 3 5 5 6 6 6 8 7 7 10 13 13 14 15 17 17 18 19 20 21 22 22 22 23 23 24 24 23
11 10 7 5 6 5 4 2 2 4 5 7 8 8 8 9 10 10 9 8 8 8 8 10 12 13 13 14 14 16 16 17 18 19 20 20 21 21 22 22 23 23 24 23
15 11 8 8 6 6 5 6 7 9 11 12 14 14 13 12 11 10 9 9 9 10 11 11 12 12 13 13 14 15 17 17 17 18 18 18 20 20 21 22 22 23 22 22
10 7 9 6 8 8 8 9 9 9 9 11 12 12 12 11 11 10 10 11 11 11 11 10 9 10 12 14 15 16 16 16 18 19 21 22 23 23 23 23 24 24 24 23
6 6 7 8 10 10 10 10 9 8 8 8 10 12 12 11 10 10 10 10 10 8 7 7 9 10 11 12 13 15 17 19 21 22 23 24 24 25 26 25 26 25 24 25
9 9 11 11 10 12 11 11 10 8 8 9 10 11 11 9 9 10 9 8 7 6 6 7 7 9 12 16 17 19 20 21 22 24 25 25 26 27 28 27 26 27 28 27
10 12 14 13 14 13 12 11 10 9 8 9 10 9 9 8 9 9 7 6 5 5 5 7 10 13 16 18 21 23 24 25 26 26 27 29 30 31 32 32 30 29 28 30
10 12 16 15 14 14 13 11 10 9 10 9 9 9 8 9 8 6 5 5 5 6 8 12 15 18 21 24 27 28 29 30 31 33 34 34 33 33 32 32 31 28 28 27
11 12 16 17 17 15 13 11 10 10 10 9 9 10 10 9 6 5 4 6 7 10 12 15 16 19 22 25 28 29 30 31 31 32 32 32 32 32 31 30 30 30 28 26
12 12 13 15 16 15 14 11 10 10 10 11 11 11 9 6 5 4 4 5 7 10 14 17 20 23 25 26 28 29 30 31 31 31 31 31 30 31 31 31 31 31 31 29
12 11 13 15 16 14 12 12 11 12 12 12 13 11 8 6 4 2 3 6 9 14 17 18 20 23 25 26 28 29 30 30 30 30 29 29 29 30 31 31 31 31 31 32
10 10 11 12 12 11 12 12 13 13 13 13 11 9 7 5 2 2 5 9 13 15 18 20 22 24 26 28 29 29 29 29 29 29 29 30 30 31 31 31 32 32 32 32
8 7 10 11 11 9 9 11 12 13 13 13 11 9 7 4 2 4 9 12 14 17 19 22 24 26 28 29 30 31 31 31 31 31 31 31 32 31 31 32 32 32 32 31
8 11 11 11 11 10 9 11 12 13 14 12 10 8 6 5 5 8 10 14 18 20 22 23 26 28 29 30 31 31 31 31 32 33 33 33 34 35 35 35 35 33 32 30
10 12 13 13 12 12 12 13 14 15 14 12 10 9 7 6 7 11 14 17 21 22 23 26 27 29 30 30 30 30 31 32 32 32 33 34 35 35 34 33 33 34 33 34
12 13 13 13 14 14 14 15 16 15 14 12 10 9 9 9 10 14 17 20 23 24 25 26 28 29 29 31 32 32 33 33 32 33 34 34 33 34 33 31 31 30 31 32
11 11 12 14 14 14 15 16 16 15 13 11 11 11 11 12 14 17 18 21 24 25 26 27 28 28 29 30 31 33 33 33 34 35 34 33 33 33 32 32 31 30 29 30
9 10 12 13 14 14 15 16 16 14 13 12 13 12 12 15 16 18 20 22 24 27 29 29 29 28 29 30 31 31 32 33 34 34 32 32 32 32 32 31 31 30 29 29
12 13 13 13 14 16 18 17 16 14 12 12 12 13 14 16 17 19 21 23 25 28 29 30 29 29 30 31 31 31 33 34 34 33 32 32 32 32 32 31 31 30 29 28

GFSNGP_700_spd_114.txt.gz
Wind_Speed
12 7 9 15 9 18 24 25 19 17 17 18 20 18 15 14 14 16 21 24 27 27 25 24 23 21 22 22 20 18 18 18 18 19 20 22 24 26 26 24 24 25 24 29
26 12 9 12 15 8 14 14 16 19 16 17 21 19 18 16 15 17 20 24 25 22 21 20 19 17 16 15 14 13 14 13 15 16 16 18 20 21 21 23 24 24 21 22
12 19 13 11 16 20 16 15 14 17 17 18 19 17 17 18 18 19 20 19 18 15 14 13 13 13 10 8 8 8 9 10 11 13 16 19 20 20 18 17 18 17 18 20
7 12 4 9 16 18 20 23 24 24 19 16 17 17 18 18 19 20 17 15 14 13 12 11 10 9 7 6 6 6 7 8 11 14 17 19 21 24 25 26 27 27 23 16
6 10 5 8 13 14 15 17 19 17 16 17 18 20 18 16 15 15 14 14 12 11 10 9 8 7 6 5 5 6 7 11 14 18 19 21 23 26 27 25 25 27 28 30
12 5 6 8 13 11 11 16 15 19 19 18 19 16 12 13 11 10 9 7 7 7 7 7 6 6 7 5 5 7 13 14 14 15 17 19 21 21 21 23 26 26 25 25
19 7 7 12 12 13 9 9 7 11 12 16 18 16 15 12 8 7 5 3 4 5 5 5 5 6 7 9 8 11 14 13 16 17 18 20 21 21 22 23 24 23 24 24
18 10 7 13 13 12 9 9 11 12 15 17 17 14 11 8 5 4 3 4 5 4 6 7 8 9 9 8 10 13 14 16 16 16 18 19 19 20 20 21 22 22 23 23
15 16 9 12 17 9 9 11 9 8 7 6 6 9 11 8 7 8 9 9 8 8 9 8 9 9 9 9 11 13 15 14 15 16 17 17 17 18 19 20 21 22 22 23
15 16 14 11 11 10 8 6 5 3 4 7 8 10 9 10 11 12 12 11 10 9 9 9 8 8 8 11 13 14 13 13 14 15 16 17 18 18 18 18 19 20 21 22
19 13 15 13 11 8 7 8 6 5 9 10 10 11 14 13 12 12 12 11 10 9 9 8 7 9 11 11 11 13 14 16 17 17 18 18 19 21 23 25 25 26 26 26
17 18 15 10 10 10 10 10 10 9 9 13 14 13 13 13 12 11 11 10 10 10 8 7 8 9 10 11 13 14 15 16 17 18 19 21 23 25 26 27 28 28 29 28
8 10 12 10 11 12 12 13 12 11 11 10 12 13 12 12 12 11 11 11 9 7 6 6 7 10 12 13 13 14 16 18 20 21 22 23 24 24 25 28 31 32 31 32
9 9 11 9 9 12 14 15 14 12 11 11 10 11 13 13 13 12 11 9 7 5 6 7 8 9 10 12 14 15 17 19 22 24 25 26 27 28 28 27 25 26 27 28
8 11 11 11 13 15 15 15 14 13 11 12 13 13 14 13 13 12 9 7 5 5 6 6 6 7 9 11 15 18 20 22 22 24 26 27 26 26 26 27 27 26 26 26
9 9 13 14 14 16 15 16 15 13 12 13 14 13 14 15 14 11 8 6 5 4 2 3 5 8 11 15 20 22 23 25 27 28 29 28 29 29 29 29 29 29 27 26
10 10 13 17 16 16 15 15 14 13 14 14 14 15 16 14 11 9 7 5 2 1 3 5 9 12 17 21 24 26 27 28 29 29 29 30 30 31 32 32 32 32 31 30
12 10 12 14 14 16 16 15 14 15 15 15 15 15 15 12 11 9 7 5 3 4 7 11 13 17 20 23 26 27 28 28 28 29 30 30 31 32 33 34 35 35 35 34
12 12 15 16 16 16 16 16 16 16 16 15 14 15 13 11 10 8 6 4 3 7 11 14 17 20 23 25 27 28 29 29 29 29 29 30 31 32 32 33 34 35 36 36
10 10 13 15 15 13 14 18 19 17 16 15 16 15 13 12 10 7 5 3 6 10 13 17 20 23 25 26 27 28 28 28 28 29 30 30 31 32 32 33 34 35 36 36
7 9 11 13 14 13 14 16 17 17 16 17 17 16 14 12 10 8 6 5 9 13 17 20 23 25 26 27 28 27 27 27 28 30 30 31 31 32 33 35 36 36 36 36
8 9 11 13 13 12 12 14 17 18 18 18 16 15 13 12 10 8 7 9 11 15 18 22 24 26 26 27 27 27 27 28 29 30 31 32 33 34 35 35 35 35 35 35
9 9 10 11 12 12 12 13 16 17 17 17 16 15 14 11 9 10 10 12 14 17 20 22 25 26 27 27 27 28 28 29 30 31 32 33 35 34 34 33 33 34 35 35
11 10 11 11 13 12 12 12 15 15 17 18 16 14 13 11 11 11 13 15 17 19 21 23 25 26 26 27 28 28 29 30 30 31 32 34 34 33 33 33 33 33 34 35
11 12 13 14 15 14 13 13 15 15 17 16 15 13 13 12 12 13 15 17 19 20 22 23 24 25 25 26 27 28 29 30 30 32 33 32 32 32 33 33 34 34 33 33
9 10 12 13 13 13 12 13 14 16 16 15 14 14 13 13 14 16 18 19 20 21 22 23 24 24 25 27 28 28 29 29 31 32 32 31 32 32 33 33 34 33 33 32
10 9 9 9 10 12 13 14 14 15 14 14 13 13 14 14 15 18 19 19 20 21 23 23 24 24 25 26 27 28 29 29 30 30 30 32 32 33 33 32 32 32 31 30

GFSNGP_700_spd_117.txt.gz
Wind_Speed
29 30 20 22 25 29 32 34 21 22 25 20 19 21 22 20 18 16 18 20 22 25 24 21 19 18 17 16 14 13 13 12 12 13 14 15 16 16 17 19 21 22 24 25
27 26 19 18 17 19 23 36 34 30 21 22 22 23 23 23 21 19 20 21 23 22 19 16 15 13 12 11 10 9 9 9 10 11 12 15 17 17 17 18 19 20 19 19
22 20 22 19 25 24 21 26 28 26 27 22 24 23 24 21 19 18 19 18 16 15 14 13 11 9 8 8 8 8 7 6 7 9 11 13 16 19 21 23 26 28 28 21
7 9 7 13 19 27 28 25 20 19 17 17 19 20 20 21 18 19 17 13 11 9 8 8 6 7 8 9 9 8 7 7 8 10 12 14 16 18 21 24 25 27 28 28
6 9 12 11 17 23 23 21 25 26 25 22 19 21 20 18 18 15 13 11 9 7 5 4 6 6 7 8 7 5 5 9 13 12 11 13 15 16 18 20 21 21 23 23
9 4 6 8 15 16 15 18 20 20 20 19 20 22 17 15 13 12 10 6 3 2 3 5 6 6 7 6 6 9 9 8 11 12 14 15 16 18 19 21 22 22 22 23
15 8 7 14 12 15 12 8 8 13 16 18 19 16 15 15 13 9 6 3 1 3 5 6 6 7 9 9 8 7 9 11 12 13 14 16 18 19 19 21 21 21 21 21
17 8 10 11 16 17 11 8 8 10 13 17 18 18 17 14 9 5 5 5 5 7 8 7 7 7 8 7 6 8 10 11 13 15 17 18 19 19 20 20 19 20 21 21
17 14 13 7 17 15 16 11 11 13 14 14 14 12 10 9 7 9 8 8 8 9 8 7 7 7 8 6 7 8 10 12 13 15 16 17 18 19 19 19 20 20 20 20
19 19 17 23 14 16 12 12 11 9 8 9 10 9 11 9 10 10 10 11 10 9 8 8 7 6 6 6 8 9 11 13 14 15 16 16 17 18 19 20 21 22 23 23
23 20 15 19 18 15 13 12 9 7 8 9 11 12 12 12 13 13 13 12 11 10 9 7 5 5 5 6 9 12 13 15 16 17 18 20 21 23 24 25 25 27 28 29
19 19 16 11 14 13 12 12 10 7 7 12 14 14 14 15 14 14 13 13 12 11 8 5 4 4 6 8 11 13 15 17 18 20 22 24 25 27 28 29 30 30 29 28
17 18 15 18 15 14 14 13 12 11 13 11 14 16 15 15 15 14 13 12 11 8 6 5 3 2 5 10 12 14 17 20 21 22 23 24 25 26 28 29 29 29 29 29
11 10 11 13 12 15 16 16 16 15 15 15 14 14 15 15 14 13 13 12 9 7 5 3 0 3 8 11 14 17 19 21 23 26 27 27 28 27 26 24 24 25 27 28
11 11 11 11 14 15 16 17 16 14 13 14 15 15 14 14 14 14 13 11 9 7 5 2 3 7 10 13 16 19 21 23 25 27 28 29 29 28 27 27 27 27 25 26
9 9 11 12 12 14 16 17 16 14 14 15 16 16 14 14 16 15 13 10 9 7 3 1 6 9 13 15 18 20 22 24 26 28 28 29 28 28 28 30 30 31 31 31
8 10 10 12 14 15 16 16 16 16 14 16 17 15 15 16 15 13 11 10 8 5 1 4 7 10 14 18 20 22 23 25 27 29 29 29 30 29 30 31 33 34 36 35
10 11 12 12 14 16 17 17 17 17 17 17 17 17 16 17 16 14 12 10 7 3 1 5 10 13 15 19 22 24 25 27 29 30 31 31 31 32 33 34 35 35 36 37
11 12 12 16 18 18 18 18 19 19 20 19 18 18 19 18 16 14 12 9 6 3 5 9 12 14 18 22 23 25 26 29 30 31 31 31 32 32 33 34 35 37 37 37
8 11 13 15 18 19 18 19 21 22 21 20 19 19 19 17 15 14 11 8 6 5 9 12 15 17 20 23 25 26 27 29 30 31 31 32 32 33 34 35 36 37 37 37
8 9 11 13 14 16 18 18 20 23 22 20 20 20 19 17 15 13 10 8 7 9 12 15 18 20 23 25 26 27 28 30 30 30 31 31 32 32 34 35 35 36 36 36
7 7 10 12 14 15 16 17 18 20 21 22 21 20 17 15 14 12 9 10 11 13 15 18 20 22 24 26 27 27 28 29 29 30 31 31 31 32 33 34 34 35 35 36
10 8 8 9 11 11 12 14 16 19 20 20 19 17 16 15 13 12 11 12 13 15 18 19 22 24 25 26 27 27 28 29 29 30 30 31 32 32 32 33 34 35 36 36
10 7 8 9 10 12 11 11 15 18 20 21 19 18 15 14 13 12 12 14 15 18 19 21 23 25 26 27 27 27 28 29 29 30 30 31 32 32 33 34 35 35 34 35
11 10 10 10 11 12 12 12 14 17 18 18 18 17 15 13 13 12 13 15 17 18 20 22 24 25 26 26 26 27 28 28 28 29 29 30 31 32 33 34 34 33 33 33
12 11 11 11 11 11 12 11 12 15 18 16 15 14 13 13 12 13 15 17 18 19 20 23 24 25 25 25 26 27 27 27 28 28 29 30 30 31 32 33 33 33 33 32
9 9 8 8 9 10 11 11 11 13 13 14 13 12 13 13 14 15 16 17 18 19 21 22 23 23 24 25 26 26 26 26 26 27 28 29 30 31 31 32 32 32 32 32

GFSNGP_700_spd_120.txt.gz
Wind_Speed
32 32 27 28 34 29 29 39 25 21 26 33 29 25 17 17 19 19 18 17 21 23 26 23 17 15 15 15 14 11 10 8 8 8 7 8 11 14 16 18 21 21 21 20
28 27 25 28 31 29 28 33 32 27 30 27 26 21 22 22 21 20 21 21 22 23 23 19 15 12 10 9 8 9 9 9 7 5 4 6 10 12 15 18 20 21 23 28
21 24 21 19 36 31 34 30 26 30 35 36 34 27 25 25 21 21 22 21 21 20 17 15 13 11 8 6 6 7 8 6 5 4 6 10 10 13 13 14 17 17 19 22
15 13 11 17 22 21 26 36 33 25 27 26 27 26 24 23 21 21 20 19 17 15 14 12 8 4 3 4 6 6 5 4 7 12 10 9 12 13 13 15 17 18 19 20
7 12 16 25 19 16 24 30 32 28 28 24 20 23 24 25 19 19 19 15 13 10 8 6 3 1 1 3 4 3 6 11 10 7 9 10 11 12 14 16 17 19 20 20
12 5 6 11 13 20 21 29 24 24 26 24 25 25 23 18 18 18 14 12 9 7 6 5 3 2 3 4 6 7 5 6 8 10 11 12 14 15 17 18 20 21 21 21
21 11 11 15 14 15 15 13 11 20 23 20 19 16 17 18 18 15 12 10 9 7 6 5 5 7 7 7 6 5 7 9 11 12 12 13 15 17 19 21 22 23 25 25
19 11 11 17 15 18 16 15 9 10 11 14 15 17 17 16 15 13 12 11 10 8 8 8 7 6 6 6 4 7 8 10 12 13 13 16 18 19 20 21 22 23 23 24
19 15 15 5 11 15 21 12 10 10 12 13 16 16 16 15 13 13 13 12 12 12 11 9 8 7 6 5 6 7 9 10 11 13 15 16 17 18 20 21 22 23 23 24
19 23 20 18 17 13 14 13 13 13 12 12 12 11 11 14 14 13 14 15 15 13 11 10 8 6 5 5 6 8 9 11 13 15 17 19 21 22 23 23 23 23 24 24
23 22 16 14 19 23 18 15 13 12 11 10 9 11 14 12 13 14 16 16 14 13 12 9 7 5 5 5 6 9 11 13 16 19 22 24 24 26 27 27 27 27 27 27
20 16 19 17 12 16 17 15 12 10 8 10 13 13 12 14 15 15 15 14 14 13 10 8 6 5 4 5 8 10 13 16 20 22 24 25 27 27 29 30 30 30 30 30
17 16 14 12 15 11 14 13 11 11 11 11 14 16 16 16 16 15 14 13 13 11 9 7 5 3 3 5 9 12 15 19 21 23 23 24 25 27 28 29 30 30 30 30
14 14 15 16 14 15 14 13 14 14 15 16 16 17 17 16 15 15 14 14 12 10 9 7 4 0 3 6 10 13 17 20 23 24 25 26 27 30 31 30 30 30 31 31
11 9 8 8 10 12 14 14 16 15 15 16 17 16 16 15 15 14 14 13 11 10 8 5 2 2 4 8 12 16 20 22 24 25 27 27 29 30 32 31 30 30 30 31
8 7 9 9 9 10 13 15 16 15 15 15 16 17 18 18 16 15 14 13 11 10 7 5 4 3 6 10 14 18 21 23 25 26 27 27 28 30 31 31 32 32 33 33
9 10 9 8 10 12 13 15 16 16 16 16 16 17 16 16 17 16 14 13 12 9 7 6 4 6 10 13 16 19 22 23 26 27 27 27 29 31 32 32 33 34 35 36
8 9 11 12 13 14 17 18 19 19 18 17 16 17 16 17 17 16 14 13 11 8 9 5 5 9 12 15 18 21 23 25 27 28 28 29 29 30 31 32 33 34 35 36
8 9 11 13 16 18 18 19 20 20 20 19 18 18 18 18 18 16 14 12 10 9 8 6 8 11 14 18 21 23 24 26 27 28 29 30 30 31 33 33 34 35 36 36
8 9 11 13 16 19 19 20 21 21 20 20 20 19 18 19 18 15 13 12 11 9 8 8 11 14 17 19 22 23 25 27 28 29 30 29 30 31 33 33 34 35 35 36
6 7 9 10 12 18 20 19 20 22 22 22 20 19 19 19 17 15 14 13 11 9 8 10 14 17 19 21 23 24 26 28 28 29 29 29 29 31 33 34 35 35 35 36
4 4 5 8 11 13 16 18 19 20 22 22 23 23 21 19 17 16 14 12 9 9 11 13 16 19 20 22 24 25 27 28 28 28 29 29 30 31 32 33 33 34 35 35
5 4 3 5 8 10 11 13 15 17 18 19 20 20 19 18 17 16 14 11 10 11 13 15 18 20 22 23 25 26 27 27 27 28 28 28 29 30 31 32 32 33 33 33
8 6 5 6 7 7 8 8 11 14 16 18 20 23 18 14 14 14 13 12 12 13 15 17 19 20 22 23 25 27 27 27 27 27 27 28 29 30 30 31 31 31 32 33
9 8 7 7 7 7 8 7 8 11 14 18 20 23 19 16 16 15 14 13 13 14 16 18 19 21 22 24 25 26 25 26 27 27 27 27 28 29 29 29 30 30 31 32
11 10 9 9 9 10 10 9 8 8 11 15 20 20 16 15 15 15 15 14 14 15 17 18 20 22 23 24 24 24 25 25 26 26 25 26 27 27 27 28 28 29 30 31
9 9 9 9 10 10 10 11 11 10 13 15 20 18 16 16 16 15 14 14 15 16 16 18 20 21 23 23 23 23 24 25 25 25 25 25 25 26 26 26 27 28 29 30